[[{"header":{"parameterUnit":"m.s-1","parameterCategory":1,"la1":30.6,"la2":29.2853,"lo1":-89.7004,"lo2":-87.6739,"dx":0.0162,"dy":0.0183,"nx":112,"ny":82,"refTime":"2023-01-04T18:00:00:Z","depth":0,"parameterNumber":2,"parameterNumberName":"U-component_of_WINDS"},"data":[0.0,0.0,0.0,0.0,0.0,0.0,0.0,0.0,0.0,0.0,0.0,0.0,0.0,0.0,0.0,0.0,0.0,0.0,0.0,0.0,0.0,0.0,0.0,0.0,0.0,0.0,0.0,0.0,0.0,0.0,0.0,0.0,0.0,0.0,0.0,0.0,0.0,0.0,0.0,0.0,0.0,0.0,0.0,0.0,0.0,0.0,0.0,0.0,0.0,0.0,0.0,0.0,0.0,0.0,0.0,0.0,0.0,0.0,0.0,0.0,0.0,0.0,0.0,0.0,0.0,0.0,0.0,0.0,0.0,0.0,0.0,0.0,0.0,0.0,0.0,0.0,0.0,0.0,0.0,0.0,0.0,0.0,0.0,0.0,0.0,0.0,0.0,0.0,0.0,0.0,2.2542,2.4048,2.4194,2.4194,2.4194,2.3579,2.3059,2.2774,0.0,0.0,0.0,0.0,0.0,0.0,0.0,0.0,0.0,0.0,0.0,0.0,0.0,0.0,0.0,0.0,0.0,0.0,0.0,0.0,0.0,0.0,0.0,0.0,0.0,0.0,0.0,0.0,0.0,0.0,0.0,0.0,0.0,0.0,0.0,0.0,0.0,0.0,0.0,0.0,0.0,0.0,0.0,0.0,0.0,0.0,0.0,0.0,0.0,0.0,0.0,0.0,0.0,0.0,0.0,0.0,0.0,0.0,0.0,0.0,0.0,0.0,0.0,0.0,0.0,0.0,0.0,0.0,0.0,0.0,0.0,0.0,0.0,0.0,0.0,0.0,0.0,0.0,0.0,0.0,0.0,0.0,0.0,0.0,0.0,0.0,0.0,0.0,0.0,0.0,0.0,0.0,0.0,0.0,0.0,0.0,0.0,0.0,0.0,0.0,0.0,0.0,0.0,0.0,2.3176,2.4098,2.4194,2.4194,2.4194,2.408,2.3992,2.3953,0.0,0.0,0.0,0.0,0.0,0.0,0.0,0.0,0.0,0.0,0.0,0.0,0.0,0.0,0.0,0.0,0.0,0.0,0.0,0.0,0.0,0.0,0.0,0.0,0.0,0.0,0.0,0.0,0.0,0.0,0.0,0.0,0.0,0.0,0.0,0.0,0.0,0.0,0.0,0.0,0.0,0.0,0.0,0.0,0.0,0.0,0.0,0.0,0.0,0.0,0.0,0.0,0.0,0.0,0.0,0.0,0.0,0.0,0.0,0.0,0.0,0.0,0.0,0.0,0.0,0.0,0.0,0.0,0.0,0.0,0.0,0.0,0.0,0.0,0.0,0.0,0.0,0.0,0.0,0.0,0.0,0.0,0.0,0.0,0.0,0.0,0.0,0.0,0.0,0.0,0.0,0.0,0.0,0.0,0.0,0.0,0.0,0.0,0.0,0.0,0.0,0.0,0.0,2.2898,2.3786,2.4153,2.4194,2.4194,2.4194,2.4194,2.4113,2.3932,2.1875,0.0,0.0,0.0,0.0,0.0,0.0,0.0,0.0,0.0,0.0,0.0,0.0,0.0,0.0,0.0,0.0,0.0,0.0,0.0,0.0,0.0,0.0,0.0,0.0,0.0,0.0,0.0,0.0,0.0,0.0,0.0,0.0,0.0,0.0,0.0,0.0,0.0,0.0,0.0,0.0,0.0,0.0,0.0,0.0,0.0,0.0,0.0,0.0,0.0,0.0,0.0,0.0,0.0,0.0,0.0,0.0,0.0,0.0,0.0,0.0,0.0,0.0,0.0,0.0,0.0,0.0,0.0,0.0,0.0,0.0,0.0,0.0,0.0,0.0,0.0,0.0,0.0,0.0,0.0,0.0,0.0,0.0,0.0,0.0,0.0,0.0,0.0,0.0,0.0,0.0,0.0,0.0,0.0,0.0,0.0,0.0,0.0,0.0,0.0,0.0,0.0,0.0,2.3661,2.4268,2.4451,2.4488,2.4488,2.4488,2.4488,2.427,2.3732,2.2253,0.0,0.0,0.0,0.0,0.0,0.0,0.0,0.0,0.0,0.0,0.0,0.0,0.0,0.0,0.0,0.0,0.0,0.0,0.0,0.0,0.0,0.0,0.0,0.0,0.0,0.0,0.0,0.0,0.0,0.0,0.0,0.0,0.0,0.0,0.0,0.0,0.0,0.0,0.0,0.0,0.0,0.0,0.0,0.0,0.0,0.0,0.0,0.0,0.0,0.0,0.0,0.0,0.0,0.0,0.0,0.0,0.0,0.0,0.0,0.0,0.0,0.0,0.0,0.0,0.0,0.0,0.0,0.0,0.0,0.0,0.0,0.0,0.0,0.0,0.0,0.0,0.0,0.0,0.0,0.0,0.0,0.0,0.0,0.0,0.0,0.0,0.0,0.0,0.0,0.0,0.0,0.0,0.0,0.0,0.0,0.0,0.0,0.0,0.0,0.0,0.0,0.0,2.4143,2.4488,2.5232,2.5324,2.5324,2.5324,2.5324,2.4842,2.3773,2.2253,0.0,0.0,0.0,0.0,0.0,0.0,0.0,0.0,0.0,0.0,0.0,0.0,0.0,0.0,0.0,0.0,0.0,0.0,0.0,0.0,0.0,0.0,0.0,0.0,0.0,0.0,0.0,0.0,0.0,0.0,0.0,0.0,0.0,0.0,0.0,0.0,0.0,0.0,0.0,0.0,0.0,0.0,0.0,0.0,0.0,0.0,0.0,0.0,0.0,0.0,0.0,0.0,0.0,0.0,0.0,0.0,0.0,0.0,0.0,0.0,0.0,0.0,0.0,0.0,0.0,0.0,0.0,0.0,0.0,0.0,0.0,0.0,0.0,0.0,0.0,0.0,0.0,0.0,0.0,0.0,0.0,0.0,0.0,0.0,0.0,0.0,0.0,0.0,0.0,0.0,0.0,0.0,0.0,0.0,0.0,0.0,0.0,0.0,0.0,0.0,0.0,0.0,2.4499,2.5062,2.5379,2.5847,2.6153,2.6153,2.5686,2.5229,2.4793,0.0,0.0,0.0,0.0,0.0,0.0,0.0,0.0,0.0,0.0,0.0,0.0,0.0,0.0,0.0,0.0,0.0,0.0,0.0,0.0,0.0,0.0,0.0,0.0,0.0,0.0,0.0,0.0,0.0,0.0,0.0,0.0,0.0,0.0,0.0,0.0,0.0,0.0,0.0,0.0,0.0,0.0,0.0,0.0,0.0,0.0,0.0,0.0,0.0,0.0,0.0,0.0,0.0,0.0,0.0,0.0,0.0,0.0,0.0,0.0,0.0,0.0,0.0,0.0,0.0,0.0,0.0,0.0,0.0,0.0,0.0,0.0,0.0,0.0,0.0,0.0,0.0,0.0,0.0,0.0,0.0,0.0,0.0,0.0,0.0,0.0,0.0,0.0,0.0,0.0,0.0,0.0,0.0,0.0,0.0,0.0,0.0,0.0,0.0,0.0,0.0,0.0,2.3837,2.4845,2.56,2.6109,2.6654,2.6979,2.6979,2.6471,2.5853,2.513,0.0,0.0,0.0,0.0,0.0,0.0,0.0,0.0,0.0,0.0,0.0,0.0,0.0,0.0,0.0,0.0,0.0,0.0,0.0,0.0,0.0,0.0,0.0,0.0,0.0,0.0,0.0,0.0,0.0,0.0,0.0,0.0,0.0,0.0,0.0,0.0,0.0,0.0,0.0,0.0,0.0,0.0,0.0,0.0,0.0,0.0,0.0,0.0,0.0,0.0,0.0,0.0,0.0,0.0,0.0,0.0,0.0,0.0,0.0,0.0,0.0,0.0,0.0,0.0,0.0,0.0,0.0,0.0,0.0,0.0,0.0,0.0,0.0,0.0,0.0,0.0,0.0,0.0,0.0,0.0,0.0,0.0,0.0,0.0,0.0,0.0,0.0,0.0,0.0,0.0,0.0,0.0,0.0,0.0,0.0,0.0,0.0,0.0,0.0,0.0,0.0,0.0,2.4578,2.5205,2.6035,2.764,2.7829,2.7829,2.7824,2.7829,2.6844,0.0,0.0,0.0,0.0,0.0,0.0,0.0,0.0,0.0,0.0,0.0,0.0,0.0,0.0,0.0,0.0,0.0,0.0,0.0,0.0,0.0,0.0,0.0,0.0,0.0,0.0,0.0,0.0,0.0,0.0,0.0,0.0,0.0,0.0,0.0,0.0,0.0,0.0,0.0,0.0,0.0,0.0,0.0,0.0,0.0,0.0,0.0,0.0,0.0,0.0,0.0,0.0,0.0,0.0,0.0,0.0,0.0,0.0,0.0,0.0,0.0,0.0,0.0,0.0,0.0,0.0,0.0,0.0,0.0,0.0,0.0,0.0,0.0,0.0,0.0,0.0,0.0,0.0,0.0,0.0,0.0,0.0,0.0,0.0,0.0,0.0,0.0,0.0,0.0,0.0,0.0,0.0,0.0,0.0,0.0,0.0,0.0,0.0,0.0,0.0,0.0,0.0,0.0,2.4699,2.6171,2.7363,2.8075,2.8949,2.9375,2.9097,2.8815,2.7763,2.5733,0.0,0.0,0.0,0.0,0.0,0.0,0.0,0.0,0.0,0.0,0.0,0.0,0.0,0.0,0.0,0.0,0.0,0.0,0.0,0.0,0.0,0.0,0.0,0.0,0.0,0.0,0.0,0.0,0.0,0.0,0.0,0.0,0.0,0.0,0.0,0.0,0.0,0.0,0.0,0.0,0.0,0.0,0.0,0.0,0.0,0.0,0.0,0.0,0.0,0.0,0.0,0.0,0.0,0.0,0.0,0.0,0.0,0.0,0.0,0.0,0.0,0.0,0.0,0.0,0.0,0.0,0.0,0.0,0.0,0.0,0.0,0.0,0.0,0.0,0.0,0.0,0.0,0.0,0.0,0.0,0.0,0.0,0.0,0.0,0.0,0.0,0.0,0.0,0.0,0.0,0.0,0.0,0.0,0.0,0.0,0.0,0.0,0.0,0.0,0.0,0.0,0.0,2.5446,2.7184,2.86,2.9456,3.0228,3.0526,3.0121,2.9564,2.8474,2.6699,0.0,0.0,0.0,0.0,0.0,0.0,0.0,0.0,0.0,0.0,0.0,0.0,0.0,0.0,0.0,0.0,0.0,0.0,0.0,0.0,0.0,0.0,0.0,0.0,0.0,0.0,0.0,0.0,0.0,0.0,0.0,0.0,0.0,0.0,0.0,0.0,0.0,0.0,0.0,0.0,0.0,0.0,0.0,0.0,0.0,0.0,0.0,0.0,0.0,0.0,0.0,0.0,0.0,0.0,0.0,0.0,0.0,0.0,0.0,0.0,0.0,0.0,0.0,0.0,0.0,0.0,0.0,0.0,0.0,0.0,0.0,0.0,0.0,0.0,0.0,0.0,0.0,0.0,0.0,0.0,0.0,0.0,0.0,0.0,0.0,0.0,0.0,0.0,0.0,0.0,0.0,0.0,0.0,0.0,0.0,0.0,0.0,0.0,0.0,0.0,0.0,0.0,2.6561,2.817,2.9667,3.1172,3.1362,3.1238,3.0876,3.0215,2.9122,2.7478,0.0,0.0,0.0,0.0,0.0,0.0,0.0,0.0,0.0,0.0,0.0,0.0,0.0,0.0,0.0,0.0,0.0,0.0,0.0,0.0,0.0,0.0,0.0,0.0,0.0,0.0,0.0,0.0,0.0,0.0,0.0,0.0,0.0,0.0,0.0,0.0,0.0,0.0,0.0,0.0,0.0,0.0,0.0,0.0,0.0,0.0,0.0,0.0,0.0,0.0,0.0,0.0,0.0,0.0,0.0,0.0,0.0,0.0,0.0,0.0,1.8781,1.7777,0.0,0.0,0.0,0.0,0.0,0.0,0.0,0.0,0.0,0.0,0.0,0.0,0.0,0.0,0.0,0.0,0.0,0.0,0.0,0.0,0.0,0.0,0.0,0.0,0.0,0.0,0.0,0.0,0.0,0.0,0.0,0.0,0.0,0.0,0.0,0.0,0.0,0.0,0.0,0.0,2.7053,2.8762,3.0102,3.0703,3.1107,3.1296,3.1195,3.1374,3.046,2.8007,2.755,0.0,0.0,0.0,0.0,0.0,0.0,0.0,0.0,0.0,0.0,0.0,0.0,0.0,0.0,0.0,0.0,0.0,0.0,0.0,0.0,0.0,0.0,0.0,0.0,0.0,0.0,0.0,0.0,0.0,0.0,0.0,0.0,0.0,0.0,0.0,0.0,0.0,0.0,0.0,0.0,0.0,0.0,0.0,0.0,0.0,0.0,0.0,0.0,0.0,0.0,0.0,0.0,0.0,0.0,0.0,0.0,0.0,0.0,0.0,2.0416,1.9203,0.0,0.0,0.0,0.0,0.0,0.0,0.0,0.0,0.0,0.0,0.0,0.0,0.0,0.0,0.0,0.0,0.0,0.0,0.0,0.0,0.0,0.0,0.0,0.0,0.0,0.0,0.0,0.0,0.0,0.0,0.0,0.0,0.0,0.0,0.0,0.0,0.0,0.0,0.0,0.0,2.8263,3.0032,3.1418,3.1978,3.2571,3.286,3.2669,3.2182,3.1232,2.9631,2.8181,0.0,0.0,0.0,0.0,0.0,0.0,0.0,0.0,0.0,0.0,0.0,0.0,0.0,0.0,0.0,0.0,0.0,0.0,0.0,0.0,0.0,0.0,0.0,0.0,0.0,0.0,0.0,0.0,0.0,0.0,0.0,0.0,0.0,0.0,0.0,0.0,0.0,0.0,0.0,0.0,0.0,0.0,0.0,0.0,0.0,0.0,0.0,0.0,0.0,0.0,0.0,0.0,0.0,2.3291,2.3586,2.362,2.422,2.4498,2.4355,2.1864,2.0701,2.0582,2.0582,0.0,0.0,0.0,0.0,0.0,0.0,0.0,0.0,0.0,0.0,0.0,0.0,0.0,0.0,0.0,0.0,0.0,0.0,0.0,0.0,0.0,0.0,2.2296,2.2675,2.3546,2.3777,2.1881,0.0,0.0,0.0,0.0,0.0,0.0,0.0,0.0,0.0,0.0,0.0,2.9704,3.1464,3.2818,3.3494,3.4116,3.4363,3.4117,3.2931,3.1943,3.1356,2.8975,2.7335,0.0,0.0,0.0,0.0,0.0,0.0,0.0,0.0,0.0,0.0,0.0,0.0,0.0,0.0,0.0,0.0,0.0,0.0,0.0,0.0,0.0,0.0,0.0,0.0,0.0,0.0,0.0,0.0,0.0,0.0,0.0,0.0,1.5622,1.6456,0.0,0.0,0.0,0.0,0.0,0.0,0.0,0.0,0.0,0.0,0.0,0.0,0.0,2.2902,2.2808,2.3644,2.4101,2.4203,2.4305,2.4355,2.4355,2.4457,2.4498,2.4474,2.4085,0.0,2.2953,2.2953,0.0,0.0,0.0,0.0,0.0,0.0,0.0,0.0,0.0,0.0,0.0,0.0,0.0,0.0,0.0,0.0,0.0,0.0,0.0,0.0,0.0,0.0,2.4576,2.463,2.5234,2.574,2.5429,2.4604,2.3915,2.3915,2.3915,2.3966,0.0,0.0,0.0,0.0,0.0,0.0,3.0891,3.2322,3.3305,3.3417,3.3519,3.3707,3.4076,3.3915,3.3231,3.189,3.1423,2.9867,2.6835,2.6462,0.0,0.0,0.0,0.0,0.0,0.0,0.0,0.0,0.0,0.0,0.0,0.0,0.0,0.0,0.0,0.0,0.0,0.0,0.0,0.0,0.0,0.0,0.0,0.0,0.0,0.0,0.0,0.0,0.0,1.6424,1.7264,1.842,1.8848,1.9163,0.0,0.0,0.0,0.0,0.0,0.0,0.0,0.0,0.0,2.3052,2.3678,2.4212,2.462,2.4966,2.5329,2.5743,2.6167,2.6353,2.637,2.6818,2.7029,2.7029,2.7029,2.6581,2.5787,2.4534,2.3644,2.3052,0.0,0.0,0.0,0.0,2.253,2.253,2.253,2.253,2.253,2.253,0.0,0.0,0.0,0.0,0.0,0.0,0.0,2.44,2.5464,2.5847,2.606,2.6479,2.6821,2.729,2.8152,2.7972,2.7275,2.5989,2.5743,2.587,2.6285,2.6996,0.0,0.0,0.0,3.1606,3.2341,3.3717,3.4647,3.4647,3.5408,3.6017,3.6222,3.5442,3.4667,3.4018,3.2818,3.1255,2.9314,2.8425,2.697,0.0,0.0,0.0,0.0,0.0,0.0,0.0,0.0,0.0,0.0,0.0,0.0,0.0,0.0,0.0,0.0,0.0,0.0,0.0,0.0,0.0,0.0,0.0,0.0,0.0,0.0,0.0,0.0,1.804,1.8729,2.0137,2.0302,2.0386,0.0,0.0,0.0,0.0,0.0,0.0,2.3671,2.4381,2.4771,2.4771,2.5143,2.5609,2.6159,2.637,2.6742,2.7292,2.8035,2.8382,2.8415,2.9194,2.9568,2.9568,2.9568,2.9211,2.8509,2.6251,2.5227,2.5066,2.5066,2.5066,2.5066,2.5066,2.5066,2.5066,2.5066,2.5066,2.5066,2.5066,2.5066,2.5066,2.5066,0.0,0.0,0.0,0.0,2.664,2.7385,2.7706,2.7994,2.8543,2.8813,2.927,3.0429,3.0809,3.0335,2.8247,2.7841,2.8027,2.8577,2.9313,0.0,3.1562,3.2554,3.3417,3.4167,3.5391,3.6186,3.6186,3.7217,3.7893,3.7893,3.6845,3.6118,3.5915,3.4167,3.274,3.1799,3.0354,2.8857,2.7326,0.0,0.0,0.0,0.0,0.0,0.0,0.0,0.0,0.0,0.0,0.0,0.0,0.0,0.0,0.0,0.0,0.0,0.0,0.0,0.0,0.0,0.0,0.0,0.0,0.0,0.0,0.0,0.0,0.0,2.0992,2.114,0.0,0.0,0.0,0.0,2.3282,2.4017,2.444,2.444,2.5135,2.5533,2.5533,2.6894,2.7655,2.7689,2.8459,2.884,2.8891,2.9634,2.998,3.0014,3.0751,3.1099,3.1099,3.1099,3.1065,3.0852,2.8568,2.7224,2.6581,2.6581,2.6581,2.6581,2.6581,2.6581,2.6581,2.6581,2.6581,2.6581,2.6581,2.6581,2.6581,2.6581,2.6581,0.0,0.0,2.8247,2.901,2.9736,3.0446,3.097,3.1021,3.1556,3.209,3.2175,3.274,3.2797,3.1268,3.097,3.0997,3.1021,0.0,3.2412,3.3169,3.4512,3.5712,3.6541,3.7313,3.7775,3.7775,3.7843,3.7893,3.7893,3.7826,3.7483,3.6784,3.5926,3.4799,3.3345,3.1867,3.0388,2.8908,2.7376,0.0,0.0,0.0,0.0,0.0,0.0,0.0,0.0,0.0,0.0,0.0,0.0,0.0,0.0,0.0,0.0,0.0,0.0,0.0,0.0,0.0,0.0,0.0,0.0,0.0,0.0,0.0,0.0,2.2455,2.2622,0.0,2.3637,2.3949,2.4297,2.478,2.5498,2.6124,2.6598,2.7351,2.7782,2.7782,2.8763,2.9507,2.998,3.0743,3.1362,3.1833,3.2104,3.2212,3.2229,3.251,3.2628,3.2628,3.2628,3.2628,3.256,3.1739,3.07,2.9593,2.9593,2.9313,2.889,2.889,2.8586,2.8172,2.8172,2.8493,2.8975,2.9431,2.9593,2.9593,2.9593,2.9593,2.9745,3.049,3.0896,3.1295,3.2036,3.2763,3.3315,3.3315,3.388,3.4573,3.5075,3.5396,3.5582,3.552,3.432,3.3315,3.3315,3.4364,3.5289,3.5549,3.6434,3.7183,3.7466,3.8142,3.8616,3.8616,3.9022,3.9322,3.9322,3.8882,3.851,3.8239,3.7499,3.6405,3.4884,3.4309,3.2899,3.0456,2.988,2.8738,0.0,0.0,0.0,0.0,0.0,0.0,0.0,0.0,0.0,0.0,0.0,0.0,0.0,0.0,0.0,0.0,0.0,0.0,0.0,0.0,0.0,0.0,0.0,0.0,0.0,2.1487,2.2125,2.326,2.362,2.406,2.4795,2.51,2.5549,2.6294,2.7046,2.7799,2.8534,2.9313,2.9856,3.011,3.0835,3.1451,3.1935,3.2435,3.3044,3.3778,3.4021,3.4275,3.4556,3.4799,3.4917,3.4917,3.4917,3.4917,3.4917,3.4917,3.4343,3.3355,3.2341,3.1637,3.1214,3.1214,3.0903,3.049,3.049,3.0801,3.1282,3.1782,3.1935,3.1935,3.1935,3.2131,3.2418,3.2892,3.3427,3.3935,3.4421,3.5098,3.5639,3.5639,3.6017,3.6524,3.7071,3.7173,3.7325,3.7821,3.6688,3.5639,3.5639,3.6496,3.7257,3.7494,3.7968,3.8362,3.8616,3.9068,3.9372,3.9372,3.9808,4.0096,4.0096,3.9643,3.9372,3.9372,3.8667,3.7821,3.6794,3.627,3.4951,3.273,3.1945,3.0463,2.8205,0.0,0.0,0.0,0.0,0.0,0.0,0.0,0.0,0.0,0.0,0.0,0.0,0.0,0.0,0.0,0.0,0.0,0.0,0.0,0.0,0.0,0.0,0.0,2.1319,2.2135,2.2944,2.3433,2.4135,2.488,2.5634,2.637,2.7114,2.7858,2.8662,2.9424,3.0166,3.0886,3.1606,3.231,3.3068,3.3463,3.3463,3.3514,3.3897,3.4607,3.5323,3.6079,3.6863,3.7567,3.7893,3.7893,3.7893,3.7893,3.7893,3.7893,3.7893,3.7606,3.4681,3.3541,3.3497,3.3497,3.348,3.3463,3.3508,3.3497,3.3497,3.3531,3.3531,3.3531,3.3531,3.4032,3.4618,3.4618,3.5684,3.6829,3.6829,3.7381,3.7927,3.7927,3.7944,3.7961,3.7961,3.7961,3.7961,3.7961,3.7961,3.7973,3.7927,3.7944,3.821,3.8933,3.9022,0.0,4.0011,4.0096,4.0096,4.0096,4.0096,4.0096,4.0096,4.0096,4.0096,4.0096,3.9423,3.9017,3.9,3.763,3.6479,3.5616,3.3467,3.1295,2.9094,0.0,0.0,0.0,0.0,0.0,0.0,0.0,0.0,0.0,0.0,0.0,0.0,0.0,0.0,0.0,0.0,0.0,0.0,0.0,0.0,0.0,2.2746,2.2916,2.281,2.3487,2.4451,2.5651,2.5972,2.6615,2.7943,2.8738,2.9465,3.0209,3.0963,3.1708,3.2449,3.2669,3.2899,3.3085,3.4326,3.5002,3.5002,3.6101,3.6761,3.6975,3.7166,3.7369,3.7601,3.7821,3.7893,3.7893,3.7893,3.7893,3.7893,3.7893,3.7893,3.7809,3.698,3.6332,3.587,3.587,3.5504,3.5087,3.5656,3.587,3.5955,3.6485,3.6659,3.6659,3.6659,3.6794,3.6975,3.6975,3.7263,3.7601,3.7601,3.8142,3.87,3.87,3.9119,3.9491,3.9491,3.9491,3.9491,3.9491,3.9491,3.9339,3.8785,3.9153,3.9559,3.9762,3.9795,3.9876,4.0079,4.0096,4.0096,4.0096,4.0096,4.0096,4.0096,4.0096,4.0096,4.0096,3.9897,3.9559,3.9017,3.8611,3.7516,3.5633,3.4472,3.3061,0.0,0.0,0.0,0.0,0.0,0.0,0.0,0.0,0.0,0.0,0.0,0.0,0.0,0.0,0.0,0.0,0.0,0.0,0.0,0.0,0.0,0.0,2.4273,2.478,2.478,2.5143,2.5854,2.7021,2.774,2.8611,2.9796,3.0591,3.1326,3.207,3.252,3.322,3.4275,3.4326,3.4613,3.5256,3.6118,3.6558,3.6558,3.7129,3.7716,3.8362,3.8023,3.8199,3.8819,3.8819,3.8819,3.8819,3.8819,3.8819,3.8819,3.8819,3.8819,3.8751,0.0,0.0,0.0,0.0,3.6958,3.6625,3.7094,3.7257,3.733,3.777,3.7893,3.7893,3.7893,3.8125,3.8362,3.8362,3.8582,3.8819,3.8819,3.9153,3.9457,3.9457,3.9779,4.0096,4.0096,4.0096,4.0096,4.0096,4.0096,0.0,3.9525,3.9812,4.0096,4.0096,4.0096,4.0096,4.0096,4.0096,4.0096,4.0096,4.0096,4.0096,4.0096,4.0096,0.0,0.0,0.0,3.9897,3.9474,3.9169,0.0,0.0,0.0,3.5346,3.4189,3.4189,0.0,0.0,2.8552,2.7901,0.0,0.0,0.0,0.0,0.0,0.0,0.0,0.0,0.0,0.0,0.0,0.0,0.0,0.0,0.0,0.0,2.5673,2.6911,2.7173,2.7207,2.7452,2.8111,2.9388,3.0538,3.1369,3.2114,3.2841,3.3582,3.3734,3.4393,3.5797,3.5853,0.0,0.0,0.0,3.7976,3.7887,3.734,3.7719,3.8978,3.8354,3.8781,4.0096,4.0096,4.0096,4.0096,4.0096,4.0096,4.0096,4.0096,4.0096,3.9977,3.865,3.8147,3.8147,3.8147,3.8147,3.8147,3.8147,0.0,0.0,3.8147,3.8147,3.8147,3.8147,3.8599,3.9119,3.9119,3.9592,4.0096,4.0096,4.0096,4.0096,4.0096,4.0096,4.0096,4.0096,4.018,4.0218,4.0218,4.0286,4.035,4.035,4.0282,4.0218,4.0218,4.0286,4.035,4.035,4.035,4.035,4.035,4.035,0.0,4.035,4.0269,4.0218,4.0218,4.0146,4.0096,4.0096,3.9474,3.9073,3.9,3.8362,3.7652,3.6919,3.6919,3.6552,3.5785,3.3,3.1708,0.0,0.0,0.0,0.0,0.0,0.0,0.0,0.0,0.0,0.0,0.0,0.0,0.0,0.0,0.0,2.5992,2.6961,2.8238,3.0057,3.0337,3.0378,3.0531,3.0801,3.1512,3.2848,3.3643,3.437,3.512,3.5774,3.653,3.7403,3.7454,3.7589,3.7877,3.8481,3.848,3.7829,3.8891,3.9272,3.8927,3.9422,0.0,4.0096,4.0096,4.0096,4.0096,4.0096,4.0096,4.0096,4.0096,4.0096,4.0079,3.9779,3.966,3.966,3.966,3.966,3.966,3.966,3.966,3.966,3.966,3.966,3.966,3.966,3.9762,0.0,3.9893,3.9994,4.0096,4.0096,4.0096,4.0096,4.0096,4.0096,4.0096,4.0096,4.0574,4.0984,4.0984,4.1457,4.1877,4.1877,4.1373,4.0984,4.0984,4.1491,4.1877,4.1877,4.1877,4.1877,4.1877,4.1877,4.1877,4.1877,4.1322,4.0984,4.0984,4.0422,4.0096,4.0096,3.9948,3.9609,3.9005,3.8865,3.8413,3.7686,3.7686,3.7618,3.7403,3.5594,3.4748,0.0,0.0,0.0,0.0,0.0,0.0,0.0,0.0,0.0,0.0,0.0,2.3209,2.3832,0.0,2.6191,2.7223,2.8581,2.9905,3.1038,3.1833,3.2307,3.2307,3.2628,3.3288,3.4393,3.5199,3.596,3.671,3.7127,3.7669,3.8413,3.8447,3.844,3.8391,3.8759,3.8757,3.8354,3.8343,3.8536,3.8894,3.8924,3.9143,3.9516,3.9914,4.0096,4.0096,4.0096,4.0096,4.0096,4.0096,4.0096,4.0096,4.0096,4.0096,4.0096,4.0096,4.0096,4.0096,4.0096,4.0096,4.0096,4.0096,4.0096,4.0096,4.0096,4.0096,4.0096,4.0096,4.0096,4.0096,4.0096,4.0371,4.0658,4.0658,4.0929,4.12,4.12,4.1487,4.1745,4.1745,4.2063,4.23,4.23,4.2303,4.2172,4.1813,4.2049,4.23,4.23,4.23,4.23,4.23,4.23,4.23,4.23,4.1965,4.1593,4.1221,4.0849,4.0472,4.013,4.0096,3.9943,3.9559,3.9542,3.9372,3.9,3.9,3.9,3.8983,3.821,3.7466,0.0,0.0,0.0,0.0,0.0,0.0,0.0,2.1665,2.2142,2.2768,2.3728,2.4627,2.5239,2.6444,2.7658,2.8561,3.0224,3.1522,3.1799,3.2744,3.3529,3.3793,3.4351,3.5013,3.5763,3.6552,3.7325,3.8058,3.8113,3.8447,3.9169,3.9067,3.8956,3.8905,3.8759,3.8605,3.8453,3.738,3.7454,3.8676,3.8234,3.8416,3.9153,3.9795,4.0096,4.0096,4.0096,4.0096,4.0096,4.0096,4.0096,4.0096,4.0096,4.0096,4.0096,4.0096,4.0096,4.0096,4.0096,4.0096,4.0096,4.0096,4.0096,4.0096,4.0096,4.0096,4.013,4.0269,4.0303,4.035,4.0502,4.098,4.1407,4.1407,4.1863,4.23,4.23,4.2418,4.2506,4.2506,4.2638,4.2756,4.2756,4.325,4.3386,4.2625,4.2655,4.2756,4.2756,4.2756,4.2756,4.2756,4.2756,4.2689,4.2523,4.2506,4.2202,4.1457,4.1407,4.1153,4.054,4.0388,4.0303,4.0303,4.0168,4.0096,4.0096,4.0096,4.0096,4.0096,4.0096,3.9457,2.009,2.0099,2.0398,2.1478,2.1776,2.2191,0.0,2.3839,2.3613,2.3589,2.508,2.6294,2.598,2.7996,2.9961,3.0723,3.161,3.2632,3.3958,3.3757,3.3943,3.521,3.5419,3.578,3.6581,3.733,3.8075,3.8819,3.8882,3.9203,3.9943,3.9291,3.8906,3.8908,3.826,3.7572,3.6858,3.7381,3.7748,3.7921,3.8497,3.9179,3.9982,4.0058,4.0096,4.0096,4.0096,4.0096,4.0096,4.0096,4.0096,4.0096,4.0096,4.0096,4.0096,4.0096,4.0096,4.0096,4.0096,4.0096,4.0096,4.0096,4.0096,4.0096,4.0096,4.0096,4.0235,4.0882,4.1085,4.1221,4.1877,4.2113,4.2181,4.2181,4.2249,4.23,4.23,4.2811,4.3288,4.3288,4.3842,4.4344,4.4344,4.4415,4.4195,4.3389,4.3893,4.4344,4.4344,4.4344,4.4344,4.4344,4.4344,4.4059,4.3338,4.3288,4.2949,4.2232,4.2181,4.2147,4.2063,4.1424,4.1085,4.1085,4.0422,4.0096,4.0096,4.0096,4.0096,4.0096,4.0096,4.0011,2.1734,2.1923,2.2177,2.3226,2.3087,2.2916,2.3827,2.412,2.4349,2.4924,2.6072,2.7172,2.7753,2.9148,3.0452,3.1189,3.2251,3.3206,3.3822,3.4055,3.4367,3.4952,3.6107,3.7016,3.7357,3.808,3.8853,3.9576,3.9197,3.9081,3.9394,3.8679,3.8048,3.7569,3.7247,3.6934,3.6615,3.6508,3.6677,3.7115,3.741,3.7989,3.8778,3.9209,3.9649,4.0096,4.0096,4.0096,4.0096,4.0096,4.0096,4.0096,4.0096,4.0354,4.0692,4.0265,4.0096,4.0096,4.0096,4.0096,4.0168,4.0608,4.073,4.0828,4.1251,4.1386,4.1437,4.1745,4.183,4.1914,4.2232,4.2625,4.2932,4.2932,4.3301,4.3636,4.3636,4.389,4.4096,4.4096,4.4364,4.4615,4.4615,4.4615,4.4482,4.4161,4.4381,4.4615,4.4615,4.4615,4.4615,4.4615,4.4615,4.4465,4.4144,4.4096,4.3775,4.2997,4.2932,4.2743,4.2317,4.1999,4.183,4.183,4.1538,4.1166,4.073,4.073,4.0523,4.0096,4.0096,4.032,2.2677,2.314,2.3533,2.4232,2.4129,2.3942,2.4306,2.4793,2.5339,2.5979,2.6852,2.7806,2.8822,2.9729,3.0626,3.1547,3.2553,3.3358,3.375,3.4085,3.4417,3.4799,3.6233,3.7272,3.7452,3.8377,3.9185,3.9736,3.9032,3.8594,3.8594,3.7876,3.7189,3.663,3.6399,3.629,3.629,3.5766,3.5863,3.6615,3.6615,3.7129,3.8135,3.8897,3.9659,4.0405,4.0405,4.0523,4.0709,4.0709,4.0709,4.0709,4.0709,4.1031,4.1441,4.0895,4.0709,4.0709,4.0709,4.0709,4.0794,4.1322,4.1508,4.1593,4.2147,4.23,4.2337,4.254,4.2591,4.2642,4.2875,4.3335,4.3727,4.3727,4.4195,4.4615,4.4615,4.4615,4.4615,4.4615,4.4615,4.4615,4.4615,4.4615,4.4615,4.4615,4.4615,4.4615,4.4615,4.4615,4.4615,4.4615,4.4615,4.4615,4.4615,4.4615,4.4347,4.3775,4.3727,4.3487,4.2959,4.2709,4.2591,4.2591,4.2388,4.2033,4.1508,4.1508,4.1221,4.0709,4.0709,4.0997,2.246,2.3232,2.4099,2.4193,2.4967,2.5787,2.6064,2.6632,2.6989,2.6492,2.7402,2.8318,2.8482,2.956,3.0855,3.2233,3.2505,3.3013,3.4382,3.3973,3.4014,3.5332,3.5592,3.5915,3.6568,3.8012,3.8918,3.8935,3.8246,3.782,3.782,3.7069,3.663,3.6615,3.591,3.5537,3.5537,3.5504,3.5863,3.6615,3.6615,3.741,3.8894,3.9705,4.0476,4.117,4.117,4.1576,4.2232,4.2232,4.2232,4.2232,4.2232,4.2249,4.2266,4.2249,4.2232,4.2232,4.2232,4.2232,4.2249,4.2266,4.2266,4.2266,4.23,4.23,4.2452,4.3169,4.3372,4.3541,4.433,4.4564,4.455,4.455,4.4567,4.4615,4.4615,4.4615,4.4615,4.4615,4.4615,4.4615,4.4615,4.4615,4.4615,4.4615,4.4615,4.4615,4.4615,4.4615,4.4615,4.4615,4.4615,4.4615,4.4615,4.4615,4.4598,4.4581,4.455,4.455,4.453,4.3792,4.3372,4.3372,4.2658,4.23,4.2266,4.2266,4.2266,4.2232,4.2232,4.2249,2.4733,2.4999,2.5153,2.5976,2.6191,2.622,2.6312,2.6573,2.6861,2.7071,2.7857,2.8756,2.9596,3.0539,3.1483,3.2357,3.2553,3.2877,3.3756,3.365,3.3819,3.4727,3.5677,3.6352,3.6584,3.7541,3.8177,3.8177,3.7455,3.6994,3.6994,3.6275,3.5863,3.5863,3.5635,3.5504,3.5504,3.5504,3.5619,3.5879,3.6814,3.7764,3.8727,3.9523,4.0033,4.0261,4.0261,4.0711,4.1441,4.1441,4.1776,4.23,4.23,4.2591,4.3017,4.3017,4.3369,4.367,4.2655,4.23,4.2384,4.2878,4.3017,4.3132,4.367,4.3822,4.3873,4.4127,4.4212,4.4262,4.453,4.4615,4.4615,4.4615,4.4615,4.4615,4.4615,4.4615,4.4615,4.4615,4.4615,4.4615,4.4615,4.4615,4.4615,4.4615,4.4615,4.4615,4.4615,4.4615,4.4615,4.4615,4.4615,4.4615,4.4615,4.4615,4.4615,4.4615,4.4615,4.4615,4.4615,4.4347,4.4212,4.4212,4.3941,4.3569,4.3017,4.3017,4.2777,4.2286,4.1707,4.1734,2.5793,2.6075,2.624,2.6775,2.6851,2.6714,2.6524,2.6729,2.7066,2.7456,2.8102,2.8912,2.9931,3.0714,3.1401,3.2033,3.2386,3.2769,3.3413,3.3713,3.4113,3.4772,3.5669,3.6212,3.6212,3.6677,3.7086,3.7353,3.6646,3.6212,3.6212,3.575,3.5504,3.5504,3.5504,3.5504,3.5504,3.5744,3.5968,3.6193,3.7392,3.8178,3.8627,3.9439,3.9938,4.0208,4.0515,4.1097,4.1844,4.2149,4.2624,4.3112,4.3112,4.3403,4.3826,4.3826,4.4147,4.4462,4.3467,4.3112,4.3196,4.3673,4.3826,4.3927,4.4432,4.4615,4.4615,4.4615,4.4615,4.4615,4.4615,4.4615,4.4615,4.4615,4.4615,4.4615,4.4615,4.4615,4.4615,4.4615,4.4615,4.4615,4.4615,4.4615,4.4615,4.4615,4.4615,4.4615,4.4615,4.4615,4.4615,4.4615,4.4615,4.4615,4.4615,4.4615,4.4615,4.4615,4.4615,4.4615,4.4615,4.4615,4.4615,4.4615,4.4615,4.4347,4.3826,4.3826,4.3434,4.2635,4.2078,4.1929,2.5703,2.6416,2.7207,2.6617,2.6929,2.7283,2.6766,2.7151,2.76,2.76,2.8126,2.8786,2.9428,3.0058,3.0702,3.1346,3.2004,3.2691,3.3395,3.4054,3.4712,3.5429,3.5504,3.5504,3.5504,3.5504,3.5798,3.6477,3.5894,3.5504,3.5504,3.5504,3.5504,3.5504,3.5518,3.5549,3.5549,3.6207,3.6851,3.7464,3.8228,3.8622,3.867,3.9424,4.0149,4.0864,4.1699,4.2483,4.3214,4.4064,4.444,4.4528,4.4528,4.4556,4.4615,4.4615,4.4615,4.4615,4.4615,4.4615,4.4615,4.4615,4.4615,4.4615,4.4615,4.4615,4.4615,4.4615,4.4615,4.4615,4.4615,4.4615,4.4615,4.4615,4.4615,4.4615,4.4615,4.4615,4.4615,4.4615,4.4615,4.4615,4.4615,4.4615,4.4615,4.4615,4.4615,4.4615,4.4615,4.4615,4.4615,4.4615,4.4615,4.4615,4.4615,4.4615,4.4615,4.4615,4.4615,4.4615,4.4615,4.4615,4.4615,4.4615,4.4615,4.457,4.4528,4.4528,4.4078,4.3214,4.32,4.2707,2.6826,2.6922,2.6877,2.7209,2.7418,2.7516,2.7383,2.748,2.76,2.76,2.8126,2.8652,2.8816,2.9759,3.0567,3.0717,3.1331,3.2168,3.3335,3.3664,3.4188,3.537,3.5504,3.5504,3.5504,3.5504,3.557,3.5766,3.5603,3.5504,3.5504,3.5504,3.5504,3.5504,3.5983,3.6254,3.6254,3.6866,3.7509,3.8155,3.8348,3.8724,3.9204,3.9417,3.9597,3.9782,4.0027,4.0602,4.1379,4.1609,4.2457,4.3621,4.3621,4.402,4.4615,4.4615,4.4615,4.4615,4.4615,4.4615,4.4615,4.4615,4.4615,4.4615,4.4615,4.4615,4.4615,4.4615,4.4615,4.4615,4.4615,4.4615,4.4615,4.4615,4.4615,4.4615,4.4615,4.4615,4.4615,4.4615,4.4615,4.4615,4.4615,4.4615,4.4615,4.4615,4.4615,4.4615,4.4615,4.4615,4.4615,4.4615,4.4615,4.4615,4.4615,4.4615,4.4615,4.4615,4.4615,4.4615,4.4615,4.4615,4.4615,4.4615,4.4615,4.4267,4.3621,4.3621,4.3184,4.2332,4.1674,4.1247,2.6958,2.7106,2.7136,2.751,2.76,2.76,2.76,2.76,2.76,2.76,2.8126,2.8607,2.8607,2.9639,3.0507,3.0507,3.1316,3.2198,3.2961,3.3575,3.4218,3.4966,3.5325,3.5504,3.5504,3.5504,3.5504,3.5504,3.5504,3.5504,3.5504,3.5504,3.5639,3.5923,3.6314,3.6778,3.7332,3.7659,3.8182,3.8841,3.8841,3.905,3.9406,3.9406,3.9406,3.9409,3.9793,4.0239,4.0758,4.1527,4.2426,4.3336,4.371,4.4167,4.4615,4.4615,4.4615,4.4615,4.4615,4.4615,4.4615,4.4615,4.4615,4.4615,4.4615,4.4615,4.4615,4.4615,4.4615,4.4615,4.4615,4.4615,4.4615,4.4615,4.4615,4.4615,4.4615,4.4615,4.4615,4.4615,4.4615,4.4615,4.4615,4.4615,4.4615,4.4615,4.4615,4.4615,4.4615,4.4615,4.4615,4.4615,4.4615,4.4615,4.4615,4.4615,4.4615,4.4615,4.4615,4.4615,4.4615,4.4224,4.4035,4.4035,4.3649,4.3229,4.2739,4.2739,4.2268,4.1428,4.0929,4.05,2.6689,2.7165,2.76,2.76,2.76,2.76,2.76,2.76,2.76,2.76,2.7991,2.8368,2.8442,2.937,3.0178,3.0357,3.142,3.2303,3.2467,3.359,3.4398,3.4503,3.5085,3.5504,3.5504,3.5504,3.5504,3.5504,3.5504,3.5504,3.5504,3.5594,3.5968,3.6733,3.6748,3.7332,3.8512,3.8527,3.8826,3.9406,3.9406,3.9406,3.9406,3.9406,3.9406,3.9427,4.0187,4.0535,4.0639,4.2268,4.3032,4.3214,4.4078,4.4499,4.4615,4.4615,4.4615,4.4615,4.4615,4.4615,4.4615,4.4615,4.4615,4.4615,4.4615,4.4615,4.4615,4.4615,4.4615,4.4615,4.4615,4.4615,4.4615,4.4615,4.4615,4.4615,4.4615,4.4615,4.4615,4.4615,4.4615,4.4615,4.4615,4.4615,4.4615,4.4615,4.4615,4.4615,4.4615,4.4615,4.4615,4.4615,4.4615,4.4615,4.4615,4.4615,4.4615,4.4615,4.4615,4.4542,4.4426,4.3695,4.3246,4.3123,4.2395,4.1949,4.1836,4.1836,4.1379,4.0535,4.0535,4.0115,2.7136,2.751,2.76,2.76,2.76,2.76,2.76,2.76,2.76,2.76,2.7243,2.7123,2.7675,2.7959,2.8468,2.9578,3.0372,3.1226,3.2347,3.3185,3.3874,3.4428,3.5085,3.5504,3.5504,3.5504,3.5504,3.5504,3.5504,3.5504,3.5504,3.6028,3.6868,3.8035,3.808,3.8437,3.9212,3.9227,3.9287,3.9406,3.9406,3.9406,3.9406,3.9406,3.9406,3.9406,3.9556,3.9628,3.9702,4.0724,4.1576,4.23,4.3184,4.3977,4.4615,4.4615,4.4615,4.4615,4.4615,4.4615,4.4615,4.4615,4.4615,4.4615,4.4615,4.4615,4.4615,4.4615,4.4615,4.4615,4.4615,4.4615,4.4615,4.4615,4.4615,4.4615,4.4615,4.4615,4.4615,4.4615,4.4615,4.4615,4.4615,4.4615,4.4615,4.4615,4.4615,4.4615,4.4615,4.4615,4.4615,4.4615,4.4615,4.4615,4.4615,4.4615,4.4615,4.4615,4.4615,4.4267,4.3562,4.3381,4.2955,4.2237,4.2077,4.1658,4.0929,4.0929,4.0466,3.9628,3.9628,3.9538,2.724,2.76,2.76,2.76,2.76,2.76,2.76,2.733,2.7091,2.7091,2.6554,2.6183,2.6509,2.6839,2.7405,2.8408,2.9383,3.0357,3.1316,3.2647,3.3619,3.3934,3.4876,3.5504,3.5504,3.5504,3.5504,3.5504,3.5504,3.5504,3.5504,3.6432,3.7404,3.838,3.8736,3.9062,3.9406,3.9406,3.9406,3.9406,3.9406,3.9406,3.9406,3.9406,3.9406,3.9406,3.9406,3.9406,3.9499,4.0826,4.1609,4.2125,4.3456,4.4224,4.4615,4.4615,4.4615,4.4615,4.4615,4.4615,4.4615,4.4615,4.4615,4.4615,4.4615,4.4615,4.4615,4.4615,4.4615,4.4615,4.4615,4.4615,4.4615,4.4615,4.4615,4.4615,4.4615,4.4615,4.4615,4.4615,4.4615,4.4615,4.4615,4.4615,4.4615,4.4615,4.4615,4.4615,4.4615,4.4615,4.4615,4.4615,4.4615,4.4615,4.4615,4.4615,4.4412,4.3962,4.3916,4.353,4.2645,4.2189,4.1755,4.1329,4.0877,4.0447,4.0025,4.0025,3.9811,3.9406,3.9406,3.9406,2.7048,2.748,2.76,2.76,2.76,2.7555,2.742,2.6986,2.6569,2.642,2.5854,2.5423,2.5573,2.5914,2.6494,2.745,2.8483,2.9473,3.0372,3.1974,3.3185,3.3469,3.4562,3.534,3.5489,3.5504,3.5504,3.5504,3.5504,3.5624,3.5893,3.6866,3.7778,3.8586,3.914,3.9406,3.9406,3.9406,3.9406,3.9406,3.9406,3.9406,3.9406,3.9406,3.9406,3.9406,3.9406,3.9517,3.9793,4.1346,4.2109,4.2426,4.3989,4.4615,4.4615,4.4615,4.4615,4.4615,4.4615,4.4615,4.4615,4.4615,4.4615,4.4615,4.4615,4.4615,4.4615,4.4615,4.4615,4.4615,4.4615,4.4615,4.4615,4.4615,4.4615,4.4615,4.4615,4.4615,4.4615,4.4615,4.4615,4.4615,4.4615,4.4615,4.4615,4.4615,4.4615,4.4615,4.4615,4.4615,4.4615,4.4615,4.4615,4.4615,4.4615,4.4615,4.4224,4.3351,4.3306,4.2832,4.1772,4.1063,4.0605,4.0432,3.9755,3.9406,3.9406,3.9406,3.9406,3.9406,3.9406,3.9406,2.6494,2.7151,2.76,2.76,2.76,2.7435,2.6824,2.6644,2.6435,2.5824,2.5158,2.4874,2.5483,2.5143,2.5408,2.7285,2.7705,2.8423,3.0238,3.1181,3.2138,3.335,3.4143,3.4832,3.5444,3.5504,3.5504,3.5504,3.5504,3.5996,3.7148,3.7327,3.7985,3.9272,3.9376,3.9406,3.9406,3.9406,3.9406,3.9406,3.9406,3.9406,3.9406,3.9406,3.9406,3.9406,3.9406,3.9847,4.0656,4.1609,4.2473,4.3276,4.4224,4.4615,4.4615,4.4615,4.4615,4.4615,4.4615,4.4615,4.4615,4.4615,4.4615,4.4615,4.4615,4.4615,4.4615,4.4615,4.4615,4.4615,4.4615,4.4615,4.4615,4.4615,4.4615,4.4615,4.4615,4.4615,4.4615,4.4615,4.4615,4.4615,4.4615,4.4615,4.4615,4.4615,4.4615,4.4615,4.4615,4.4615,4.4615,4.4615,4.4615,4.4615,4.4615,4.4615,4.4224,4.3351,4.3306,4.2552,4.0878,4.0726,4.0343,3.952,3.9427,3.9406,3.9406,3.9406,3.9406,3.9406,3.9406,3.9406,2.642,2.6794,2.6988,2.6988,2.6988,2.6824,2.6153,2.5375,2.4728,2.4448,2.3569,2.2941,2.3206,2.3355,2.3845,2.4998,2.621,2.7542,2.9131,3.0598,3.1989,3.3335,3.4084,3.4757,3.5429,3.5504,3.5504,3.5504,3.5504,3.6073,3.7345,3.7387,3.8,3.9361,3.9406,3.9406,3.9406,3.9406,3.9406,3.9406,3.9406,3.9406,3.9406,3.9406,3.9406,3.9406,3.9406,3.9592,4.0025,4.1428,4.2205,4.2661,4.4047,4.4615,4.4615,4.4615,4.4615,4.4615,4.4615,4.4615,4.4615,4.4615,4.4615,4.4615,4.4615,4.4615,4.4615,4.4615,4.4615,4.4615,4.4615,4.4615,4.4615,4.4615,4.4615,4.4615,4.4615,4.4615,4.4615,4.4615,4.4615,4.4615,4.4615,4.4615,4.4615,4.4615,4.4615,4.4615,4.4615,4.4615,4.4615,4.4615,4.4615,4.4615,4.4615,4.4615,4.4004,4.2599,4.252,4.1739,3.999,3.992,3.974,3.9406,3.9406,3.9406,3.9406,3.9406,3.9406,3.9406,3.9406,3.9406,2.5884,2.6153,2.6303,2.6303,2.6303,2.6078,2.5211,2.4283,2.349,2.3116,2.2323,2.1695,2.1695,2.2243,2.2897,2.349,2.5121,2.6841,2.8382,2.994,3.157,3.329,3.3919,3.4548,3.5429,3.5504,3.5504,3.5504,3.5504,3.6073,3.7345,3.7387,3.8,3.9361,3.9406,3.9406,3.9406,3.9406,3.9406,3.9406,3.9406,3.9406,3.9406,3.9406,3.9406,3.9406,3.9406,3.9684,4.0255,4.1494,4.23,4.2892,4.4121,4.4615,4.4615,4.4615,4.4615,4.4615,4.4615,4.4615,4.4615,4.4615,4.4615,4.4615,4.4615,4.4615,4.4615,4.4615,4.4615,4.4615,4.4615,4.4615,4.4615,4.4615,4.4615,4.4615,4.4615,4.4615,4.4615,4.4615,4.4615,4.4615,4.4615,4.4615,4.4615,4.4615,4.4615,4.4615,4.4615,4.4369,4.421,4.421,4.3975,4.4049,4.4556,4.4615,4.3873,4.2109,4.1997,4.1229,3.9463,3.9406,3.9406,3.9406,3.9406,3.9406,3.9406,3.9406,3.9406,3.9406,3.9406,3.9406,2.4623,2.5109,2.5603,2.5603,2.5603,2.5259,2.3924,2.361,2.3236,2.1979,2.171,2.1695,2.1695,2.2243,2.2897,2.349,2.4732,2.6306,2.8323,2.9189,3.0581,3.3185,3.3515,3.4023,3.537,3.5504,3.5504,3.5504,3.5504,3.6073,3.7345,3.7387,3.8,3.9361,3.9406,3.9406,3.9406,3.9406,3.9406,3.9406,3.9406,3.9406,3.9406,3.9406,3.9406,3.9406,3.9406,4.0376,4.1965,4.1997,4.3031,4.457,4.4584,4.4615,4.4615,4.4615,4.4615,4.4615,4.4615,4.4615,4.4615,4.4615,4.4615,4.4615,4.4615,4.4615,4.4615,4.4615,4.4615,4.4615,4.4615,4.4615,4.4615,4.4615,4.4615,4.4615,4.4615,4.4615,4.4615,4.4615,4.4615,4.4615,4.4615,4.4615,4.4615,4.4615,4.4615,4.4615,4.4615,4.3844,4.3306,4.3306,4.2536,4.2723,4.444,4.4615,4.3873,4.2109,4.1997,4.1229,3.9463,3.9406,3.9406,3.9406,3.9406,3.9406,3.9406,3.9406,3.9406,3.9406,3.9406,3.9406,2.4593,2.4754,2.4918,2.4918,2.4918,2.4586,2.3276,2.2633,2.2054,2.1191,2.0647,2.0327,2.0327,2.1255,2.2079,2.2263,2.4163,2.6138,2.7692,2.8903,3.0566,3.3185,3.4307,3.504,3.5459,3.5504,3.5504,3.5504,3.5504,3.6073,3.7345,3.7387,3.8,3.9361,3.9406,3.9406,3.9406,3.9406,3.9406,3.9406,3.9406,3.9406,3.9406,3.9406,3.9406,3.9406,3.9406,3.9702,4.0324,4.1511,4.2316,4.2938,4.4136,4.4615,4.4615,4.4615,4.4615,4.4615,4.4615,4.4615,4.4615,4.4615,4.4615,4.4615,4.4615,4.4615,4.4615,4.4615,4.4615,4.4615,4.4615,4.4615,4.4615,4.4615,4.4615,4.4615,4.4615,4.4615,4.4615,4.4615,4.4615,4.4615,4.4615,4.4615,4.4615,4.4615,4.4093,4.3695,4.3695,4.3472,4.3306,4.3306,4.3063,4.2878,4.2831,4.2815,4.2331,4.118,4.1113,4.0603,3.9445,3.9406,3.9406,3.9406,3.9406,3.9406,3.9406,3.9406,3.9406,3.9406,3.9406,3.9406,2.4081,2.4216,2.4216,2.4216,2.4216,2.3958,2.2932,2.2183,2.1515,2.0847,2.0168,1.9774,2.0034,2.0961,2.1869,2.2338,2.4208,2.6153,2.7752,2.8904,3.0566,3.3185,3.4681,3.5504,3.5504,3.5504,3.5504,3.5504,3.5504,3.6073,3.7345,3.7387,3.8,3.9361,3.9406,3.9406,3.9406,3.9406,3.9406,3.9406,3.9406,3.9406,3.9406,3.9406,3.9406,3.9406,3.9406,3.9592,0.0,4.1062,4.1901,4.2599,4.368,4.4312,4.4615,4.4615,4.4615,4.4615,4.4615,4.4615,4.4615,4.4615,4.4615,4.4615,4.4615,4.4615,4.4615,4.4615,4.4615,4.4615,4.4615,4.4615,4.4615,4.4615,4.4615,4.4615,4.4615,4.4615,4.4615,4.4615,4.4341,4.421,4.4542,4.4047,4.3739,4.4064,4.3381,4.2816,4.2816,4.252,4.2332,4.2332,4.2013,4.1608,4.1062,4.1625,4.1642,4.0758,4.0707,4.0309,3.9442,3.9406,3.9406,3.9406,3.9406,3.9406,3.9406,3.9406,3.9406,3.9406,3.9406,3.9406,0.0,2.349,2.355,2.3595,2.3595,2.343,2.2838,2.2224,0.0,2.0907,2.0273,2.0028,2.0653,2.1311,2.2173,2.34,2.4732,2.6306,2.8323,2.9338,3.079,3.3275,3.4711,3.5504,3.5504,3.5504,3.5504,3.5504,3.5533,3.6118,3.7345,3.7464,3.806,3.9361,3.9406,3.9406,3.9406,3.9406,3.9406,3.9406,3.9406,3.9406,3.9406,3.9406,3.9406,3.9406,3.9406,3.9864,4.0605,4.0673,4.1642,4.3123,4.3246,4.38,4.4514,4.457,4.4615,4.4615,4.4615,4.4615,4.4615,4.4615,4.4615,4.4615,4.4615,4.4615,4.4615,4.4615,4.4615,4.4615,4.4615,4.4615,4.4615,4.4615,4.4615,4.4615,4.4615,4.4615,4.4615,4.4615,4.3948,4.3621,4.4384,4.3152,4.2348,4.3093,4.2473,4.1917,4.1917,4.1197,4.0707,4.0707,3.9973,3.9499,3.9499,4.0926,4.1478,4.0656,4.0605,4.0239,3.9427,3.9406,3.9406,3.9406,3.9406,3.9406,3.9406,3.9406,3.9406,3.9406,3.9406,3.9406,2.1934,0.0,2.3022,2.3475,2.3595,2.343,0.0,2.2583,2.2273,2.1605,2.1335,2.1285,2.144,2.2004,2.2707,2.3486,2.4732,2.6306,2.8323,3.0896,3.3006,3.4128,3.4996,3.5504,3.5504,3.5504,3.5504,3.5504,3.5968,3.6596,3.736,3.7883,3.8542,3.9376,3.9406,3.9406,3.9406,3.9406,3.9406,3.9406,3.9406,3.9406,3.9406,3.9406,3.9406,3.9406,3.9406,3.9517,3.9755,4.0432,4.0929,4.1429,4.2785,4.3428,4.3697,4.4355,4.4615,4.4615,4.4615,4.4615,4.4615,4.4615,4.4615,4.4615,4.4615,4.4615,4.4615,4.4615,4.4615,4.4615,4.4615,4.4615,4.4615,4.4615,4.4615,4.4615,4.4615,4.4615,4.4615,4.4615,4.4426,4.4152,4.3697,4.3276,4.2832,4.2379,4.156,4.1013,4.1013,4.0827,4.0707,4.0707,4.0518,4.038,4.038,4.015,3.9917,3.972,3.9702,3.961,3.9406,3.9406,3.9406,3.9406,3.9406,3.9406,3.9406,3.9406,3.9406,3.9406,3.9406,3.9406,2.1066,2.1734,2.2393,2.3022,2.3186,2.3171,2.3127,2.2897,2.2598,2.2228,2.1914,2.1784,2.2094,2.2677,2.3426,2.4358,2.5644,2.732,2.9611,3.1988,3.3754,3.4413,3.5085,3.5504,3.5504,3.5504,3.5504,3.5504,3.6118,3.6746,3.7375,3.8033,3.8706,3.9376,3.9406,3.9406,3.9406,3.9406,3.9406,3.9406,3.9406,3.9406,3.9406,3.9406,3.9406,3.9406,3.9406,3.9406,3.9442,3.9917,4.0343,4.0794,4.1739,4.2347,4.277,4.3228,4.3665,4.4006,4.4006,4.4284,4.4615,4.4615,4.4615,4.4615,4.4615,4.4615,4.4615,4.4615,4.4615,4.4615,4.4615,4.4615,4.4615,4.4615,4.4615,4.4615,4.4615,4.4615,4.4615,4.4615,4.4267,4.3977,4.3902,4.3229,4.2676,4.2599,4.1511,4.0707,4.0707,4.0361,4.0098,4.0098,4.0098,4.0098,4.0098,3.9666,3.9406,3.9406,3.9406,3.9406,3.9406,3.9406,3.9406,3.9406,3.9406,3.9406,3.9406,3.9406,3.9406,3.9406,3.9406,3.9406,2.0384,2.1036,2.171,2.2388,2.2628,2.2838,2.3351,2.3141,2.2838,2.2838,2.2468,2.2323,2.2887,2.349,2.4343,2.5689,2.7198,2.9009,3.1331,3.2811,3.3904,3.4563,3.5145,3.5504,3.5504,3.5504,3.5504,3.5504,3.6207,3.6851,3.7357,3.8138,3.8811,3.9376,3.9406,3.9406,3.9406,3.9406,3.9406,3.9406,3.9406,3.9406,3.9406,3.9406,3.9406,3.9406,3.9406,3.9406,3.9406,3.9406,3.9847,4.0502,4.0639,4.1147,4.182,4.1949,4.2473,4.3108,4.3108,4.3591,4.4193,4.4193,4.4193,4.4239,4.4355,4.4313,4.4257,4.4387,4.4499,4.4615,4.4615,4.4499,4.4415,4.4415,4.433,4.4245,4.4245,4.4245,4.4245,4.4245,4.3568,4.317,4.3786,4.2566,4.1741,4.2452,4.1288,4.0394,4.0485,3.9864,3.9406,3.9406,3.9406,3.9406,3.9406,3.9406,3.9406,3.9406,3.9406,3.9406,3.9406,3.9406,3.9406,3.9406,3.9406,3.9406,3.9406,3.9406,3.9406,3.9406,3.9406,3.9406,1.9828,2.0348,2.1012,2.168,2.2283,2.2718,2.2823,2.3156,2.346,2.346,2.3838,2.4186,2.4291,2.4855,2.5734,2.7091,2.9325,3.1241,3.2213,3.3499,3.4592,3.5265,3.5444,3.5504,3.5504,3.5504,3.5504,3.5504,3.658,3.73,3.7387,3.8569,3.9287,3.9406,3.9406,3.9406,3.9406,3.9406,3.9406,3.9406,3.9406,3.9406,3.9406,3.9406,3.9406,3.9406,3.9406,3.9406,3.9406,3.9406,3.9481,3.9666,4.0414,4.0792,4.0996,4.1739,4.2077,4.2205,4.2205,4.2284,4.2395,4.2395,4.2395,4.2552,4.3291,4.3056,4.2705,4.3378,4.4062,4.4615,4.4615,4.4079,4.3575,4.3575,4.3115,4.2655,4.2655,4.2655,4.2655,4.2655,4.2047,4.1329,4.0737,3.9834,3.9189,3.9169,3.8931,3.8966,3.9535,3.9481,3.9406,3.9406,3.9406,3.9406,3.9406,3.9406,3.9406,3.9406,3.9406,3.9406,3.9406,3.9406,3.9406,3.9406,3.9406,3.9406,3.9406,3.9406,3.9406,3.9406,3.9406,3.9406,1.9708,2.0183,2.0763,2.1086,2.1944,2.2882,2.3565,2.3943,2.4242,2.4612,2.493,2.5259,2.5603,2.6228,2.7348,2.9385,3.0718,3.1989,3.338,3.4113,3.4742,3.5429,3.5504,3.5504,3.5504,3.5504,3.5504,3.5504,3.6686,3.7387,3.7387,3.8673,3.9406,3.9406,3.9406,3.9406,3.9406,3.9406,3.9406,3.9406,3.9406,3.9406,3.9406,3.9406,3.9406,3.9406,3.9406,3.9406,3.9406,3.9406,3.9406,3.9427,3.9847,3.999,4.0098,4.0978,4.1609,4.2062,4.2536,4.2692,4.272,4.2752,4.2754,4.2762,4.2758,4.252,4.2323,4.2699,4.3078,4.3366,4.3366,4.3081,4.2716,4.2312,4.2253,4.2082,4.1239,4.1399,4.1583,4.1139,4.0778,4.0426,4.0021,3.9655,3.9377,3.9292,3.8862,3.8803,3.9472,3.9159,3.9005,3.9361,3.9406,3.9406,3.9406,3.9406,3.9406,3.9406,3.9406,3.9406,3.9406,3.9406,3.9406,3.9406,3.9406,3.9406,3.9406,3.9406,3.9406,3.9406,3.9406,3.9406,1.9893,2.0423,2.1012,2.1311,2.2039,2.2992,2.4107,2.4485,2.4829,2.5663,2.5959,2.6273,2.6931,2.7857,2.922,3.1376,3.1989,3.2736,3.4278,3.4637,3.4922,3.5444,3.5504,3.5504,3.5504,3.5504,3.5564,3.5729,3.6776,3.7479,3.7629,3.8748,3.9406,3.9406,3.9406,3.9406,3.9406,3.9406,3.9406,3.9406,3.9406,3.9406,3.9406,3.9406,3.9406,3.9406,3.9406,3.9406,3.9406,3.9406,3.9406,3.9406,3.9406,3.952,3.9811,4.0673,4.1318,4.1805,4.2293,4.2334,4.2184,4.2045,4.1979,4.1939,4.1562,4.1463,4.1525,4.1718,4.1654,4.1631,4.2162,4.2044,4.1678,4.1291,4.1367,4.1244,4.0242,4.0359,4.0475,3.9863,3.9448,3.9192,3.9192,3.9055,3.8996,3.917,3.862,3.8431,3.9076,3.8572,3.8422,3.9092,3.9167,3.9227,3.9391,3.9406,3.9406,3.9406,3.9406,3.9406,3.9406,3.9406,3.9406,3.9406,3.9406,3.9406,3.9406,3.9406,3.9406,3.9406,3.9406,3.9406,2.0458,2.1126,2.1904,2.3101,2.3037,2.2868,2.352,2.4141,2.4963,2.6258,2.7018,2.766,2.8323,2.997,3.1481,3.2303,3.3469,3.4323,3.4488,3.5042,3.5444,3.5489,3.5504,3.5504,3.5504,3.5504,3.5759,3.6389,3.703,3.7674,3.8287,3.902,3.9406,3.9406,3.9406,3.9406,3.9406,3.9406,3.9406,3.9406,3.9406,3.9406,3.9406,3.9406,3.9406,3.9406,3.9406,3.9406,3.9406,3.9406,3.9406,3.9406,3.9406,3.99,4.0707,4.1593,4.1518,4.088,4.0206,3.9507,3.8815,3.8076,3.7841,3.7978,3.8725,3.8996,3.9221,4.0024,3.9726,3.963,4.1738,4.1274,4.0417,4.1045,4.0144,3.9318,3.9963,3.9548,3.9059,3.8988,3.7815,3.6831,3.6831,3.6271,3.6046,3.6663,3.6703,3.6894,3.7492,3.7514,3.7734,3.8392,3.8484,3.8721,3.9346,3.9406,3.9406,3.9406,3.9406,3.9406,3.9406,3.9406,3.9406,3.9406,3.9406,3.9406,3.9406,3.9406,3.9406,3.9406,3.9406,3.9406,2.0518,2.1201,2.2009,2.3281,2.4059,2.4672,2.5327,2.5974,2.6734,2.7649,2.838,2.9159,3.0209,3.1689,3.2961,3.3619,3.4173,3.4637,3.5055,3.534,3.5504,3.5504,3.5504,3.5504,3.5504,3.5878,3.6239,3.6479,3.7449,3.8123,3.8395,3.905,3.9406,3.9406,3.9406,3.9406,3.9406,3.9406,3.9406,3.9406,3.9406,3.9406,3.9406,3.9406,3.9406,3.9406,3.9406,3.9406,3.9406,3.9406,3.972,4.0174,3.9746,4.0121,4.0734,3.9575,3.9314,3.9565,3.9756,3.9297,3.8712,3.8994,3.8744,3.831,3.8178,3.8163,3.8249,3.8581,3.8458,3.8644,4.0458,3.9812,3.8738,3.9021,3.8639,3.805,3.7382,3.7366,3.7336,3.6859,3.6306,3.5926,3.5926,3.5685,3.5594,3.5833,3.5878,3.6103,3.6746,3.6836,3.7075,3.7719,3.8138,3.8661,3.9346,3.9406,3.9406,3.9406,3.9406,3.9406,3.9406,3.9406,3.9406,3.9406,3.9406,3.9406,3.9406,3.9406,3.9406,3.9406,3.9406,3.9406,2.0782,2.15,2.2378,2.3864,2.5076,2.6153,2.7021,2.7587,2.8156,2.9026,2.9894,3.0911,3.2213,3.32,3.4039,3.4712,3.4817,3.4982,3.5444,3.5504,3.5504,3.5504,3.5504,3.5504,3.5504,3.6103,3.6583,3.6761,3.7796,3.8482,3.8691,3.9152,3.9406,3.9406,3.9406,3.9406,3.9406,3.9406,3.9406,3.9406,3.9406,3.9406,3.9406,3.9406,3.9406,3.9406,3.9406,3.9406,3.9406,3.9406,3.9619,3.996,3.977,3.9938,4.0119,3.8718,3.8441,3.8811,3.9091,3.8685,3.809,3.8507,3.8289,3.7743,3.7227,3.7235,3.7427,3.7427,3.7427,3.7717,3.9035,3.84,3.7485,3.7733,3.7602,3.7189,3.6399,3.6415,3.6461,3.5943,3.5652,3.5504,3.5504,3.5504,3.5504,3.5504,3.5504,3.5669,3.6118,3.6178,3.6417,3.7045,3.7883,3.8586,3.905,3.9272,3.9406,3.9406,3.9406,3.9406,3.9406,3.9406,3.9406,3.9406,3.9406,3.9406,3.9406,3.9406,3.9406,3.9406,3.9406,3.9406,2.1345,2.2183,2.3167,2.5121,2.6108,2.6973,2.8308,2.8607,2.8981,3.0268,3.1585,3.2916,3.4248,3.4518,3.4727,3.5385,3.5504,3.5504,3.5504,3.5504,3.5504,3.5504,3.5504,3.5504,3.5519,3.6134,3.6746,3.7357,3.8033,3.8691,3.9361,3.9406,3.9406,3.9406,3.9406,3.9406,3.9406,3.9406,3.9406,3.9406,3.9406,3.9406,3.9406,3.9406,3.9406,3.9406,3.9406,3.9406,3.9406,3.9391,3.9005,3.85,3.935,3.9267,3.879,3.9639,3.9496,3.8755,3.7966,3.7219,3.6477,3.5765,3.5504,3.5504,3.5504,3.6022,3.66,3.66,3.66,3.6767,3.7573,3.7189,3.6783,3.7602,3.7159,3.6813,3.7602,3.716,3.66,3.66,3.6006,3.5504,3.5504,3.5504,3.5504,3.5504,3.5504,3.5504,3.5504,3.5504,3.5759,3.6434,3.7631,3.8377,3.8395,3.9005,3.9391,3.9391,3.9406,3.9406,3.9406,3.9406,3.9406,3.9406,3.9406,3.9406,3.9406,3.9406,3.9406,3.9406,3.9406,3.9406,2.1345,2.2183,2.3167,2.5121,2.6799,2.8233,2.9114,2.9624,3.0447,3.2243,3.329,3.4024,3.4444,3.4892,3.5265,3.5474,3.5504,3.5504,3.5504,3.5504,3.5504,3.5504,3.5504,3.5684,3.6148,3.6761,3.7404,3.8048,3.8721,3.9182,3.9391,3.9406,3.9406,3.9406,3.9406,3.9406,3.9406,3.9406,3.9406,3.9406,3.9406,3.9406,3.9406,3.9406,3.9406,3.9406,3.9406,3.9406,3.9415,3.9542,3.9206,3.8596,3.838,3.8166,3.7901,3.7121,3.6702,3.6549,3.6816,3.6444,3.5879,3.6181,3.5926,3.5504,3.5504,3.5652,3.583,3.583,3.583,3.5879,3.6117,3.6006,3.6022,3.6768,3.6384,3.5879,3.6132,3.599,3.583,3.583,3.5636,3.5504,3.5504,3.5504,3.5504,3.5504,3.5504,3.5504,3.5504,3.5504,3.5759,3.6434,3.6838,3.7242,3.7659,3.8317,3.8691,3.8691,3.9137,3.9406,3.9406,3.9406,3.9406,3.9406,3.9406,3.9406,3.9406,3.9406,3.9406,3.9406,3.9406,3.9406,2.1345,2.2363,2.3471,2.5181,2.7111,2.8981,3.0417,3.1031,3.1794,3.3545,3.4218,3.4578,3.4847,3.522,3.5504,3.5504,3.5504,3.5504,3.5504,3.5504,3.5504,3.5504,3.5744,3.6074,3.6464,3.7285,3.7958,3.8362,3.9017,3.9406,3.9406,3.9406,3.9406,3.9406,3.9406,3.9406,3.9406,3.9406,3.9406,3.9406,3.9406,3.9406,3.9406,3.9406,3.9406,3.9391,3.9107,3.9005,3.8981,3.8848,3.8415,3.7788,3.739,3.7054,3.673,3.5835,3.5504,3.5554,3.6022,3.5863,3.557,3.6022,3.5863,3.5504,3.5504,3.5504,3.5504,3.5504,3.5504,3.5504,3.5504,3.5504,3.5619,3.6054,3.5815,3.5504,3.5504,3.5504,3.5504,3.5504,3.5504,3.5504,3.5504,3.5504,3.5504,3.5504,3.5504,3.5504,3.5504,3.5504,3.5654,3.6058,3.6344,3.6658,3.7,3.7629,3.8108,3.8377,3.8781,3.9107,3.9391,3.9406,3.9406,3.9406,3.9406,3.9406,3.9406,3.9406,3.9406,3.9406,3.9406,3.9406,2.1345,2.2622,2.3924,2.5259,2.7171,2.9385,3.1989,3.2587,3.2976,3.4308,3.4578,3.4772,3.5385,3.5504,3.5504,3.5504,3.5504,3.5504,3.5504,3.5504,3.5534,3.5594,3.6118,3.6553,3.6673,3.7721,3.8439,3.8482,3.9065,3.9406,3.9406,3.9406,3.9406,3.9406,3.9406,3.9406,3.9406,3.9406,3.9406,3.9406,3.9406,3.9406,3.9406,3.9406,3.9376,3.9272,3.8661,3.8335,3.8167,3.7569,3.6956,3.6419,3.6419,3.6028,3.5504,3.5504,3.5504,3.5504,3.5504,3.5504,3.5504,3.5504,3.5504,3.5504,3.5504,3.5504,3.5504,3.5504,3.5504,3.5504,3.5504,3.5504,3.5504,3.5504,3.5504,3.5504,3.5504,3.5504,3.5504,3.5504,3.5504,3.5504,3.5504,3.5504,3.5504,3.5504,3.5504,3.5504,3.5504,3.5504,3.5504,3.5504,3.6043,3.6419,3.6419,3.6971,3.7584,3.82,3.829,3.8616,3.9272,3.9376,3.9406,3.9406,3.9406,3.9406,3.9406,3.9406,3.9406,3.9406,3.9406,3.9406,2.1345,2.2622,2.3924,2.5259,2.7515,3.0072,3.2691,3.3275,3.3664,3.5011,3.528,3.5325,3.5458,3.5504,3.5504,3.5504,3.5504,3.5504,3.5504,3.5504,3.5699,3.6207,3.6419,3.6898,3.7901,3.8245,3.8616,3.9137,3.9316,3.9406,3.9406,3.9406,3.9406,3.9406,3.9406,3.9406,3.9406,3.9406,3.9406,3.9406,3.9406,3.9406,3.9406,3.9406,3.9107,3.8601,3.8452,3.7841,3.6913,3.6746,3.6312,3.5714,3.5714,3.5624,3.5504,3.5504,3.5504,3.5504,3.5504,3.5504,3.5504,3.5504,3.5504,3.5504,3.5504,3.5504,3.5504,3.5504,3.5504,3.5504,3.5504,3.5504,3.5504,3.5504,3.5504,3.5504,3.5504,3.5504,3.5504,3.5504,3.5504,3.5504,3.5504,3.5504,3.5504,3.5504,3.5504,3.5504,3.5504,3.5504,3.5504,3.5504,3.5624,3.5714,3.5714,3.6312,3.6763,3.6913,3.7345,3.7913,3.8586,3.9107,3.9406,3.9406,3.9406,3.9406,3.9406,3.9406,3.9406,3.9406,3.9406,3.9406,2.1345,2.2423,2.3785,2.6393,2.8323,3.0282,3.2901,3.3499,3.3873,3.5219,3.5504,3.5504,3.5504,3.5504,3.5504,3.5504,3.5504,3.5504,3.5504,3.5504,3.5744,3.6434,3.6746,3.7315,3.8287,3.8691,3.9017,3.9376,3.9406,3.9406,3.9406,3.9406,3.9406,3.9406,3.9406,3.9406,3.9406,3.9406,3.9406,3.9406,3.9406,3.9227,3.8931,3.8931,3.8736,3.838,3.7766,3.7122,3.6479,3.6148,3.5818,3.5504,3.5504,3.5504,3.5504,3.5504,3.5504,3.5504,3.5504,3.5504,3.5504,3.5504,3.5504,3.5504,3.5504,3.5504,3.5504,3.5504,3.5504,3.5504,3.5504,3.5504,3.5504,3.5504,3.5504,3.5504,3.5504,3.5504,3.5504,3.5504,3.5504,3.5504,3.5504,3.5504,3.5504,3.5504,3.5504,3.5504,3.5504,3.5504,3.5504,3.5504,3.5504,3.5504,3.5504,3.5818,3.6148,3.6479,3.6808,3.7255,3.7883,3.8272,3.8733,3.9391,3.9406,3.9406,3.9406,3.9406,3.9406,3.9406,3.9406,3.9406,2.1186,2.2258,2.3905,2.7515,2.9024,3.0222,3.2602,3.3335,3.3844,3.507,3.5429,3.5504,3.5504,3.5504,3.5504,3.5504,3.5504,3.5504,3.5504,3.5609,3.5923,3.6583,3.7195,3.7838,3.8497,3.9062,3.9406,3.9406,3.9406,3.9406,3.9406,3.9406,3.9406,3.9406,3.9406,3.9406,3.9406,3.9406,3.9406,3.9406,3.9272,3.8945,3.8395,3.8185,3.808,3.802,3.6972,3.6434,3.6267,3.5729,3.5504,3.5504,3.5504,3.5504,3.5504,3.5504,3.5504,3.5504,3.5504,3.5504,3.5504,3.5504,3.5504,3.5504,3.5504,3.5504,3.5504,3.5504,3.5504,3.5504,3.5504,3.5504,3.5504,3.5504,3.5504,3.5504,3.5504,3.5504,3.5504,3.5504,3.5504,3.5504,3.5504,3.5504,3.5504,3.5504,3.5504,3.5504,3.5504,3.5504,3.5504,3.5504,3.5504,3.5504,3.5504,3.5504,3.5744,3.6299,3.6329,3.6596,3.7225,3.724,3.7823,3.9032,3.9167,3.9287,3.9406,3.9406,3.9406,3.9406,3.9406,3.9406,2.0632,2.2542,2.4889,2.718,2.8665,2.9982,3.145,3.2662,3.3709,3.4473,3.51,3.5504,3.5504,3.5504,3.5504,3.5504,3.5504,3.5504,3.5504,3.5998,3.6582,3.721,3.7853,3.8527,3.9197,3.9346,3.9406,3.9406,3.9406,3.9406,3.9406,3.9406,3.9406,3.9406,3.9406,3.9406,3.9406,3.9406,3.9406,3.9391,3.8811,3.8482,3.8365,3.7272,3.6748,3.6748,3.6568,3.6163,3.5624,3.5549,3.5504,3.5504,3.5504,3.5504,3.5504,3.5504,3.5504,3.5504,3.5504,3.5504,3.5504,3.5504,3.5504,3.5504,3.5504,3.5504,3.5504,3.5504,3.5504,3.5504,3.5504,3.5504,3.5504,3.5504,3.5504,3.5504,3.5504,3.5504,3.5504,3.5504,3.5504,3.5504,3.5504,3.5504,3.5504,3.5504,3.5504,3.5504,3.5504,3.5504,3.5504,3.5504,3.5504,3.5504,3.5504,3.5504,3.5549,3.5624,3.5639,3.5923,3.6598,3.6628,3.6941,3.7642,3.8242,3.8826,3.9406,3.9406,3.9406,3.9406,3.9406,3.9406,2.0976,2.2885,2.4993,2.6629,2.8334,2.9937,3.1212,3.2542,3.3694,3.4353,3.5026,3.5504,3.5504,3.5504,3.5504,3.5504,3.5504,3.5504,3.5504,3.5744,3.6297,3.7268,3.7659,3.8257,3.9302,3.9406,3.9406,3.9406,3.9406,3.9406,3.9406,3.9406,3.9406,3.9406,3.9406,3.9406,3.9406,3.9406,3.9212,3.8841,3.8542,3.8035,3.7332,3.6763,3.6508,3.6479,3.6088,3.5774,3.5504,3.5504,3.5504,3.5504,3.5504,3.5504,3.5504,3.5504,3.5504,3.5504,3.5504,3.5504,3.5504,3.5504,3.5504,3.5504,3.5504,3.5504,3.5504,3.5504,3.5504,3.5504,3.5504,3.5504,3.5504,3.5504,3.5504,3.5504,3.5504,3.5504,3.5504,3.5504,3.5504,3.5504,3.5504,3.5504,3.5504,3.5504,3.5504,3.5504,3.5504,3.5504,3.5504,3.5504,3.5504,3.5504,3.5504,3.5504,3.5504,3.5504,3.5504,3.5639,3.5923,3.5938,3.6237,3.6881,3.7524,3.8167,3.8841,3.8841,3.9017,3.9406,3.9406,3.9406,2.1136,2.2746,2.4436,2.5764,2.7602,2.9428,3.0717,3.2033,3.323,3.4069,3.4787,3.5295,3.5474,3.5504,3.5504,3.5504,3.5504,3.5504,3.5504,3.5654,3.6103,3.706,3.7464,3.8063,3.9047,3.9302,3.9406,3.9406,3.9406,3.9406,3.9406,3.9406,3.9406,3.9406,3.9406,3.9406,3.9406,3.9227,3.8901,3.8409,3.808,3.7422,3.6493,3.6312,3.6254,3.6224,3.5714,3.5504,3.5504,3.5504,3.5504,3.5504,3.5504,3.5504,3.5504,3.5504,3.5504,3.5504,3.5504,3.5504,3.5504,3.5504,3.5504,3.5504,3.5504,3.5504,3.5504,3.5504,3.5504,3.5504,3.5504,3.5504,3.5504,3.5504,3.5504,3.5504,3.5504,3.5504,3.5504,3.5504,3.5504,3.5504,3.5504,3.5504,3.5504,3.5504,3.5504,3.5504,3.5504,3.5504,3.5504,3.5504,3.5504,3.5504,3.5504,3.5504,3.5504,3.5504,3.5504,3.5504,3.5504,3.5504,3.5744,3.6254,3.6686,3.733,3.8138,3.832,3.8661,3.9137,3.9316,3.9406,2.0563,2.1754,2.3112,2.438,2.6213,2.8049,2.9383,3.0687,3.1974,3.3275,3.4084,3.4742,3.5385,3.5504,3.5504,3.5504,3.5504,3.5504,3.5504,3.6043,3.6479,3.6538,3.7616,3.838,3.8454,3.9035,3.9406,3.9406,3.9406,3.9406,3.9406,3.9406,3.9406,3.9406,3.9406,3.9406,3.9406,3.8766,3.8422,3.8395,3.7182,3.6568,3.6479,3.5833,3.5549,3.5549,3.5519,3.5504,3.5504,3.5504,3.5504,3.5504,3.5504,3.5504,3.5504,3.5504,3.5504,3.5504,3.5504,3.5504,3.5504,3.5504,3.5504,3.5504,3.5504,3.5504,3.5504,3.5504,3.5504,3.5504,3.5504,3.5504,3.5504,3.5504,3.5504,3.5504,3.5504,3.5504,3.5504,3.5504,3.5504,3.5504,3.5504,3.5504,3.5504,3.5504,3.5504,3.5504,3.5504,3.5504,3.5504,3.5504,3.5504,3.5504,3.5504,3.5504,3.5504,3.5504,3.5504,3.5504,3.5504,3.5504,3.5519,3.5549,3.5594,3.6222,3.7464,3.8078,3.8424,3.8484,3.9092,3.9406,2.0518,2.169,2.2897,2.3744,2.5791,2.772,2.8214,2.9983,3.1645,3.2123,3.3425,3.4563,3.4817,3.5205,3.5504,3.5504,3.5504,3.5504,3.5504,3.5714,3.6013,3.6449,3.6913,3.733,3.7719,3.7988,3.8285,3.8736,3.8751,3.896,3.9376,3.9406,3.9406,3.9406,3.9406,3.9182,3.8766,3.8093,3.7554,3.7182,3.6718,3.6267,3.5848,3.5609,3.5504,3.5504,3.5504,3.5504,3.5504,3.5504,3.5504,3.5504,3.5504,3.5504,3.5504,3.5504,3.5504,3.5504,3.5504,3.5504,3.5504,3.5504,3.5504,3.5504,3.5504,3.5504,3.5504,3.5504,3.5504,3.5504,3.5504,3.5504,3.5504,3.5504,3.5504,3.5504,3.5504,3.5504,3.5504,3.5504,3.5504,3.5504,3.5504,3.5504,3.5504,3.5504,3.5504,3.5504,3.5504,3.5504,3.5504,3.5504,3.5504,3.5504,3.5504,3.5504,3.5504,3.5504,3.5504,3.5504,3.5504,3.5504,3.5504,3.5504,3.5504,3.5938,3.6821,3.7045,3.7375,3.7778,3.8452,3.8751,2.0243,2.1186,2.2228,2.3082,2.4953,2.6764,2.745,2.9116,3.0703,3.1376,3.2557,3.3634,3.4084,3.4696,3.5235,3.5474,3.5504,3.5504,3.5504,3.5504,3.5669,3.6103,3.6374,3.6673,3.706,3.7285,3.7584,3.8018,3.8063,3.8257,3.8703,3.8733,3.8733,3.8733,3.8733,3.8509,3.8063,3.7419,3.6896,3.6508,3.6267,3.5923,3.5504,3.5504,3.5504,3.5504,3.5504,3.5504,3.5504,3.5504,3.5504,3.5504,3.5504,3.5504,3.5504,3.5504,3.5504,3.5504,3.5504,3.5504,3.5504,3.5504,3.5504,3.5504,3.5504,3.5504,3.5504,3.5504,3.5504,3.5504,3.5504,3.5504,3.5504,3.5504,3.5504,3.5504,3.5504,3.5504,3.5504,3.5504,3.5504,3.5504,3.5504,3.5504,3.5504,3.5504,3.5504,3.5504,3.5504,3.5504,3.5504,3.5504,3.5504,3.5504,3.5504,3.5504,3.5504,3.5504,3.5504,3.5504,3.5504,3.5504,3.5504,3.5504,3.5504,3.5729,3.6148,3.6389,3.6718,3.7105,3.7764,3.8182,0.0,0.0,0.0,2.2328,2.361,2.5083,2.7048,2.8066,2.9102,3.1017,3.1466,3.1899,3.32,3.4009,3.4682,3.534,3.5458,3.5504,3.5504,3.5504,3.5504,3.5504,3.6073,3.6479,3.6479,3.7,3.7342,3.7357,3.7357,3.7389,3.7387,3.7387,3.7387,3.7387,3.7389,3.7357,3.7357,3.6761,3.6479,3.6464,3.5804,3.5504,3.5504,3.5504,3.5504,3.5504,3.5504,3.5504,3.5504,3.5504,3.5504,3.5504,3.5504,3.5504,3.5504,3.5504,3.5504,3.5504,3.5504,3.5504,3.5504,3.5504,3.5504,3.5504,3.5504,3.5504,3.5504,3.5504,3.5504,3.5504,3.5504,3.5504,3.5504,3.5504,3.5504,3.5504,3.5504,3.5504,3.5504,3.5504,3.5504,3.5504,3.5504,3.5504,3.5504,3.5504,3.5504,3.5504,3.5504,3.5504,3.5504,3.5504,3.5504,3.5504,3.5504,3.5504,3.5504,3.5504,3.5504,3.5504,3.5504,3.5504,3.5504,3.5504,3.5504,3.5504,3.5504,3.6148,3.6479,3.6493,3.709,3.7749,1.9708,0.0,0.0,0.0,0.0,0.0,2.5184,2.6704,2.8171,2.9192,3.0524,3.1615,3.1974,3.3006,3.3829,3.4023,3.4876,3.5504,3.5504,3.5504,3.5504,3.5504,3.5669,3.5774,3.5774,3.5938,3.6222,3.6701,3.6746,3.6941,3.7389,3.7387,3.7387,3.7387,3.6971,3.6746,3.6746,3.6103,3.5774,3.5774,3.5594,3.5504,3.5504,3.5504,3.5504,3.5504,3.5504,3.5504,3.5504,3.5504,3.5504,3.5504,3.5504,3.5504,3.5504,3.5504,3.5504,3.5504,3.5504,3.5504,3.5504,3.5504,3.5504,3.5504,3.5504,3.5504,3.5504,3.5504,3.5504,3.5504,3.5504,3.5504,3.5504,3.5504,3.5504,3.5504,3.5504,3.5504,3.5504,3.5504,3.5504,3.5504,3.5504,3.5504,3.5504,3.5504,3.5504,3.5504,3.5504,3.5504,3.5504,3.5504,3.5504,3.5504,3.5504,3.5504,3.5504,3.5504,3.5504,3.5504,3.5504,3.5504,3.5504,3.5504,3.5504,3.5504,3.5504,3.5684,3.5774,3.5789,3.6447,3.733,1.9708,1.9998,2.0348,2.0628,0.0,0.0,2.3973,2.5525,2.7033,2.7991,2.931,3.0388,3.0658,3.1779,3.2662,3.2662,3.3783,3.4756,3.504,3.5325,3.5504,3.5504,3.5504,3.5504,3.5504,3.5504,3.5669,3.6043,3.6073,3.6237,3.658,3.6611,3.6611,3.6611,3.6267,3.6073,3.6073,3.5699,3.5504,3.5504,3.5504,3.5504,3.5504,3.5504,3.5504,3.5504,3.5504,3.5504,3.5504,3.5504,3.5504,3.5504,3.5504,3.5504,3.5504,3.5504,3.5504,3.5504,3.5504,3.5504,3.5504,3.5504,3.5504,3.5504,3.5504,3.5504,3.5504,3.5504,3.5504,3.5504,3.5504,3.5504,3.5504,3.5504,3.5504,3.5504,3.5504,3.5504,3.5504,3.5504,3.5504,3.5504,3.5504,3.5504,3.5504,3.5504,3.5504,3.5504,3.5504,3.5504,3.5504,3.5504,3.5504,3.5504,3.5504,3.5504,3.5504,3.5504,3.5504,3.5504,3.5504,3.5504,3.5504,3.5504,3.5504,3.5504,3.5504,3.5504,3.5504,3.5519,3.6194,3.6898,1.9714,1.9708,1.9833,2.0443,2.1086,0.0,2.3116,2.4418,2.5734,2.7016,2.7857,2.8577,2.9249,3.0358,3.1197,3.1271,3.2347,3.3455,3.4263,3.4891,3.531,3.5385,3.5385,3.5429,3.5489,3.5504,3.5504,3.5504,3.5504,3.5504,3.5504,3.5504,3.5504,3.5504,3.5504,3.5504,3.5504,3.5504,3.5504,3.5504,3.5504,3.5504,3.5504,3.5504,3.5504,3.5504,3.5504,3.5504,3.5504,3.5504,3.5504,3.5504,3.5504,3.5504,3.5504,3.5504,3.5504,3.5504,3.5504,3.5504,3.5504,3.5504,3.5504,3.5504,3.5504,3.5504,3.5504,3.5504,3.5504,3.5504,3.5504,3.5504,3.5504,3.5504,3.5564,3.5609,3.5609,3.5653,3.5714,3.5714,3.5669,3.5639,3.5714,3.5714,3.5714,3.5714,3.5667,3.5654,3.5654,3.5564,3.5504,3.5504,3.5504,3.5504,3.5504,3.5504,3.5504,3.5504,3.5504,3.5504,3.5504,3.5504,3.5504,3.5504,3.5504,3.5504,3.5504,3.5504,3.5504,3.5519,3.6103,3.6434,1.9848,1.9708,1.9729,1.9863,2.0408,0.0,2.1889,2.3071,2.4223,2.502,2.6153,2.7198,2.7869,2.8635,2.934,2.9879,3.0597,3.1704,3.3455,3.3799,3.4083,3.4622,3.4697,3.4922,3.5444,3.5504,3.5504,3.5504,3.5504,3.5504,3.5504,3.5504,3.5504,3.5504,3.5504,3.5504,3.5504,3.5504,3.5504,3.5504,3.5504,3.5504,3.5504,3.5504,3.5504,3.5504,3.5504,3.5504,3.5504,3.5504,3.5504,3.5504,3.5504,3.5504,3.5504,3.5504,3.5504,3.5504,3.5504,3.5504,3.5504,3.5504,3.5504,3.5504,3.5504,3.5504,3.5504,3.5504,3.5504,3.5504,3.5504,3.5504,3.5504,3.5504,3.5908,3.6314,3.6314,3.6686,3.7028,3.7028,3.6641,3.6447,3.6956,3.7028,3.7028,3.7028,3.6744,3.655,3.655,3.5922,3.5504,3.5504,3.5504,3.5504,3.5504,3.5504,3.5504,3.5504,3.5504,3.5504,3.5504,3.5504,3.5504,3.5504,3.5504,3.5504,3.5504,3.5504,3.5504,3.5504,3.5639,3.5983,2.0378,1.9953,1.9708,1.9708,1.9953,0.0,0.0,2.1949,2.2832,2.3505,2.4691,2.5719,2.6033,2.6931,2.7709,2.8051,2.8921,2.9909,3.0911,3.2474,3.3755,3.4425,3.4831,3.5168,3.5459,3.5861,3.6076,3.604,3.5717,3.5504,3.5504,3.5504,3.5504,3.5504,3.5504,3.5504,3.5504,3.5504,3.5504,3.5504,3.5504,3.5504,3.5504,3.5504,3.5504,3.5504,3.5504,3.5504,3.5504,3.5504,3.5504,3.5504,3.5504,3.5504,3.5504,3.5504,3.5504,3.5504,3.5504,3.5504,3.5504,3.5504,3.5504,3.5504,3.5504,3.5504,3.5504,3.5504,3.5504,3.5504,3.5504,3.5744,3.5998,3.5998,3.6492,3.6941,3.6941,3.7195,3.7509,3.7838,3.7644,3.7434,3.7419,3.7387,3.7345,3.7118,3.6924,3.6864,3.7058,3.6714,3.6462,3.6462,3.5893,3.5504,3.5504,3.5504,3.5504,3.5504,3.5504,3.5504,3.5504,3.5504,3.5504,3.5504,3.5504,3.5504,3.5504,3.5504,3.5504,3.5504,3.5504,3.5684,2.1251,2.0602,2.0043,1.9923,1.9893,1.9998,0.0,0.0,0.0,2.2198,2.3251,2.4081,2.4201,2.5211,2.5986,2.5866,2.7165,2.8129,2.8009,3.0695,3.2975,3.3799,3.4668,3.5211,3.5275,3.6151,3.6603,3.6398,3.5978,3.5636,3.5504,3.5504,3.5504,3.5504,3.5504,3.5504,3.5504,3.5504,3.5504,3.5504,3.5504,3.5504,3.5504,3.5504,3.5504,3.5504,3.5504,3.5504,3.5504,3.5504,3.5504,3.5504,3.5504,3.5504,3.5504,3.5504,3.5504,3.5504,3.5504,3.5504,3.5504,3.5504,3.5504,3.5504,3.5504,3.5504,3.5504,3.5504,3.5594,3.5684,3.5684,3.6178,3.6673,3.6673,3.7135,3.7599,3.7599,3.7686,3.7958,3.8482,3.8586,3.8422,3.7883,3.7776,3.7671,3.7342,3.7298,3.7417,3.7731,3.7776,3.7776,3.7776,3.6849,3.6163,3.5893,3.5878,3.5774,3.5519,3.5504,3.5504,3.5504,3.5504,3.5504,3.5504,3.5504,3.5504,3.5504,3.5504,3.5504,3.5504,3.5504,3.5504,2.2643,2.1974,2.1321,2.0728,2.0593,2.0443,1.9938,0.0,2.0847,2.0907,0.0,2.2203,2.2812,0.0,0.0,2.3227,2.5122,2.6437,2.5852,2.8019,3.0203,3.1588,3.2935,3.3956,3.4474,3.5846,3.6399,3.5687,3.6153,3.6196,3.5537,3.5504,3.5504,3.5504,3.5504,3.5504,3.5504,3.5504,3.5504,3.5504,3.5504,3.5504,3.5504,3.5504,3.5504,3.5504,3.5504,3.5504,3.5504,3.5504,3.5504,3.5504,3.5504,3.5504,3.5504,3.5504,3.5504,3.5504,3.5504,3.5504,3.5504,3.5504,3.5504,3.5504,3.5504,3.5504,3.5504,3.5504,3.5923,3.6389,3.6389,3.6836,3.73,3.73,3.7808,3.8305,3.8305,3.8751,3.9197,3.9272,3.9287,3.9257,3.9197,3.9167,3.9152,3.9107,3.9107,3.9122,3.9167,3.9167,3.9167,3.9167,3.9047,3.8479,3.73,3.7178,3.6701,3.5579,3.5504,3.5504,3.5504,3.5504,3.5504,3.5504,3.5504,3.5504,3.5504,3.5504,3.5504,3.5504,3.5504,3.5504,2.4552,2.362,2.2652,2.2019,2.1869,2.169,2.1006,2.0782,2.0703,2.0703,0.0,0.0,0.0,0.0,0.0,0.0,2.3524,2.4498,2.423,2.6302,2.8727,3.1068,3.2208,3.341,3.4949,3.5253,3.5445,3.5592,3.6255,3.6162,3.4986,3.5699,3.5927,3.5504,3.5504,3.5504,3.5504,3.5504,3.5504,3.5504,3.5504,3.5504,3.5504,3.5504,3.5504,3.5504,3.5504,3.5504,3.5504,3.5504,3.5504,3.5504,3.5504,3.5504,3.5504,3.5504,3.5504,3.5504,3.5504,3.5504,3.5504,3.5504,3.5504,3.5579,3.5953,3.6073,3.6148,3.6507,3.6806,3.7015,3.7015,3.7494,3.7973,3.7973,3.8497,3.899,3.899,3.9197,3.9406,3.9406,3.9406,3.9406,3.9406,3.9406,3.9406,3.9406,3.9406,3.9406,3.9406,3.7261,3.5735,3.5735,3.5735,3.6515,3.8389,3.8554,3.7292,3.4298,3.3914,3.4324,3.5455,3.5504,3.5504,3.5504,3.4392,3.4375,3.5504,3.5504,3.5504,3.5504,3.5504,3.5504,2.6557,2.5435,2.4268,2.365,2.3227,2.2778,2.2124,2.1455,2.0922,2.0742,2.0703,0.0,0.0,0.0,2.1354,2.1112,0.0,2.3151,2.2925,2.4819,2.7203,2.9792,3.1219,3.2706,3.4512,3.472,3.4907,3.5339,3.6018,3.5939,3.4866,3.5569,3.5859,3.551,3.5497,3.5504,3.5504,3.5504,3.5504,3.5504,3.5504,3.5504,3.5504,3.5504,3.5504,3.5504,3.5504,3.5504,3.5504,3.5504,3.5504,3.5504,3.5504,3.5504,3.5504,3.5504,3.5504,3.5504,3.5504,3.5624,3.5774,3.5774,3.5893,3.6118,3.6596,3.6746,3.6836,3.7285,3.7522,3.7674,3.7674,3.8167,3.8676,3.8676,3.905,3.9406,3.9406,3.9406,3.9301,3.9017,3.9195,3.9213,3.8624,3.8782,3.9068,3.9355,3.9406,3.9406,3.9406,3.5715,3.3102,3.3102,3.3102,3.4324,3.7415,3.7677,3.6371,3.3304,3.2863,3.3376,3.4775,3.4258,3.4438,3.5488,3.3094,3.3027,3.5504,3.4455,3.4488,3.5504,3.5504,3.5504,2.8502,2.7515,2.6333,2.5674,2.4537,2.3411,2.2808,2.2154,2.1485,2.0823,2.0703,2.0503,1.9848,2.0288,2.0466,1.9613,2.152,0.0,0.0,2.3418,2.5195,2.6843,2.952,3.1539,0.0,3.431,3.5269,0.0,3.5272,3.5687,3.5566,3.4941,3.4848,3.5475,3.5513,3.5504,3.5504,3.5504,3.5504,3.5504,3.5504,3.5504,3.5504,3.5504,3.5504,3.5504,3.5504,3.5504,3.5504,3.5504,3.5504,3.5504,3.5504,3.5504,3.5504,3.5504,3.5504,3.5504,3.5504,3.5923,3.6464,3.6464,3.6866,3.7327,3.7357,3.7375,3.7389,3.7387,3.7868,3.838,3.838,3.8871,3.9376,3.9376,3.9391,3.9406,3.9406,3.9406,3.9086,3.805,3.869,3.873,3.6663,3.7156,3.8215,3.9247,3.9406,3.9406,3.9406,3.5715,3.3102,3.3102,3.3102,3.3154,3.3304,3.3292,3.324,3.3124,3.3091,3.3105,3.3169,3.1109,3.1723,3.5439,3.1814,3.1741,3.5488,3.1796,3.1887,3.5504,3.5504,3.5504,3.0523,2.9579,2.8425,2.7754,2.6914,2.6087,2.5432,2.4085,2.2892,2.2667,2.1949,2.1156,2.0498,2.0548,2.0547,0.0,0.0,0.0,0.0,2.2884,2.4168,2.5196,2.7457,2.9262,0.0,0.0,0.0,0.0,3.4405,0.0,3.3554,3.5051,3.5848,3.5562,3.5508,3.5722,3.6212,3.5734,3.5504,3.5504,3.5504,3.5504,3.5504,3.5504,3.5504,3.5504,3.5504,3.5504,3.5504,3.5504,3.5504,3.5533,3.5983,3.6148,3.6103,3.5669,3.5774,3.6207,3.6626,3.6911,3.7105,3.7105,3.724,3.7477,3.7928,3.8063,3.8153,3.8599,3.8883,3.9047,3.9047,3.9227,3.9406,3.9406,3.9406,3.9406,3.9406,3.9406,3.9086,3.8013,3.8088,3.7885,3.6448,3.5948,3.5635,3.5285,3.6403,3.6794,3.5413,3.3974,3.3102,3.3102,3.3102,3.3102,3.3102,3.3102,3.3102,3.3102,3.3102,3.3102,3.3102,3.2386,3.2585,3.3886,3.5399,3.4696,3.1723,3.0444,3.0451,3.1723,3.1723,3.3073,3.2213,3.1256,3.0178,2.9745,2.8786,2.7842,2.7408,2.5944,2.4608,2.4358,2.3281,2.2233,2.1804,2.1506,2.1289,0.0,0.0,0.0,0.0,2.2524,2.3197,2.3654,2.5668,0.0,0.0,0.0,0.0,0.0,0.0,0.0,0.0,3.4933,3.5951,3.5982,3.5937,3.6127,3.66,3.6133,3.575,3.5504,3.5504,3.5504,3.5504,3.5504,3.5504,3.5504,3.5504,3.5504,3.5519,3.5759,3.5848,3.5923,3.6567,3.6806,3.6761,3.6342,3.6447,3.6866,3.727,3.7569,3.7764,3.7764,3.7928,3.818,3.8631,3.8751,3.8856,3.9272,3.9406,3.9406,3.9406,3.9406,3.9406,3.9406,3.9406,3.9406,3.9406,3.9406,3.9086,3.8013,3.7791,3.7472,3.6389,3.5359,3.4511,3.3932,3.4568,3.4609,3.327,3.3102,3.3102,3.3102,3.3102,3.3102,3.3102,3.3102,3.3102,3.3102,3.3102,3.3102,3.3102,3.3102,3.3102,3.3102,3.5775,3.5124,3.0959,3.0959,3.0577,2.9792,2.9792,3.1331]},{"header":{"parameterUnit":"m.s-1","parameterCategory":1,"la1":30.6,"la2":29.2853,"lo1":-89.7004,"lo2":-87.6739,"dx":0.0162,"dy":0.0183,"nx":112,"ny":82,"refTime":"2023-01-04T18:00:00:Z","depth":0,"parameterNumber":3,"parameterNumberName":"V-component_of_WINDS"},"data":[0.0,0.0,0.0,0.0,0.0,0.0,0.0,0.0,0.0,0.0,0.0,0.0,0.0,0.0,0.0,0.0,0.0,0.0,0.0,0.0,0.0,0.0,0.0,0.0,0.0,0.0,0.0,0.0,0.0,0.0,0.0,0.0,0.0,0.0,0.0,0.0,0.0,0.0,0.0,0.0,0.0,0.0,0.0,0.0,0.0,0.0,0.0,0.0,0.0,0.0,0.0,0.0,0.0,0.0,0.0,0.0,0.0,0.0,0.0,0.0,0.0,0.0,0.0,0.0,0.0,0.0,0.0,0.0,0.0,0.0,0.0,0.0,0.0,0.0,0.0,0.0,0.0,0.0,0.0,0.0,0.0,0.0,0.0,0.0,0.0,0.0,0.0,0.0,0.0,0.0,0.8191,0.8738,0.8791,0.8791,0.8791,0.8597,0.8708,0.9274,0.0,0.0,0.0,0.0,0.0,0.0,0.0,0.0,0.0,0.0,0.0,0.0,0.0,0.0,0.0,0.0,0.0,0.0,0.0,0.0,0.0,0.0,0.0,0.0,0.0,0.0,0.0,0.0,0.0,0.0,0.0,0.0,0.0,0.0,0.0,0.0,0.0,0.0,0.0,0.0,0.0,0.0,0.0,0.0,0.0,0.0,0.0,0.0,0.0,0.0,0.0,0.0,0.0,0.0,0.0,0.0,0.0,0.0,0.0,0.0,0.0,0.0,0.0,0.0,0.0,0.0,0.0,0.0,0.0,0.0,0.0,0.0,0.0,0.0,0.0,0.0,0.0,0.0,0.0,0.0,0.0,0.0,0.0,0.0,0.0,0.0,0.0,0.0,0.0,0.0,0.0,0.0,0.0,0.0,0.0,0.0,0.0,0.0,0.0,0.0,0.0,0.0,0.0,0.0,0.845,0.8771,0.8791,0.8791,0.8791,0.8764,0.8777,0.8881,0.0,0.0,0.0,0.0,0.0,0.0,0.0,0.0,0.0,0.0,0.0,0.0,0.0,0.0,0.0,0.0,0.0,0.0,0.0,0.0,0.0,0.0,0.0,0.0,0.0,0.0,0.0,0.0,0.0,0.0,0.0,0.0,0.0,0.0,0.0,0.0,0.0,0.0,0.0,0.0,0.0,0.0,0.0,0.0,0.0,0.0,0.0,0.0,0.0,0.0,0.0,0.0,0.0,0.0,0.0,0.0,0.0,0.0,0.0,0.0,0.0,0.0,0.0,0.0,0.0,0.0,0.0,0.0,0.0,0.0,0.0,0.0,0.0,0.0,0.0,0.0,0.0,0.0,0.0,0.0,0.0,0.0,0.0,0.0,0.0,0.0,0.0,0.0,0.0,0.0,0.0,0.0,0.0,0.0,0.0,0.0,0.0,0.0,0.0,0.0,0.0,0.0,0.0,0.8962,0.8657,0.8791,0.8791,0.8791,0.8791,0.8791,0.8956,0.9322,0.9047,0.0,0.0,0.0,0.0,0.0,0.0,0.0,0.0,0.0,0.0,0.0,0.0,0.0,0.0,0.0,0.0,0.0,0.0,0.0,0.0,0.0,0.0,0.0,0.0,0.0,0.0,0.0,0.0,0.0,0.0,0.0,0.0,0.0,0.0,0.0,0.0,0.0,0.0,0.0,0.0,0.0,0.0,0.0,0.0,0.0,0.0,0.0,0.0,0.0,0.0,0.0,0.0,0.0,0.0,0.0,0.0,0.0,0.0,0.0,0.0,0.0,0.0,0.0,0.0,0.0,0.0,0.0,0.0,0.0,0.0,0.0,0.0,0.0,0.0,0.0,0.0,0.0,0.0,0.0,0.0,0.0,0.0,0.0,0.0,0.0,0.0,0.0,0.0,0.0,0.0,0.0,0.0,0.0,0.0,0.0,0.0,0.0,0.0,0.0,0.0,0.0,0.0,0.8994,0.8818,0.8885,0.8898,0.8898,0.8898,0.8898,0.915,0.9769,0.9104,0.0,0.0,0.0,0.0,0.0,0.0,0.0,0.0,0.0,0.0,0.0,0.0,0.0,0.0,0.0,0.0,0.0,0.0,0.0,0.0,0.0,0.0,0.0,0.0,0.0,0.0,0.0,0.0,0.0,0.0,0.0,0.0,0.0,0.0,0.0,0.0,0.0,0.0,0.0,0.0,0.0,0.0,0.0,0.0,0.0,0.0,0.0,0.0,0.0,0.0,0.0,0.0,0.0,0.0,0.0,0.0,0.0,0.0,0.0,0.0,0.0,0.0,0.0,0.0,0.0,0.0,0.0,0.0,0.0,0.0,0.0,0.0,0.0,0.0,0.0,0.0,0.0,0.0,0.0,0.0,0.0,0.0,0.0,0.0,0.0,0.0,0.0,0.0,0.0,0.0,0.0,0.0,0.0,0.0,0.0,0.0,0.0,0.0,0.0,0.0,0.0,0.0,0.8817,0.8898,0.9137,0.917,0.917,0.917,0.917,0.935,0.9771,0.9104,0.0,0.0,0.0,0.0,0.0,0.0,0.0,0.0,0.0,0.0,0.0,0.0,0.0,0.0,0.0,0.0,0.0,0.0,0.0,0.0,0.0,0.0,0.0,0.0,0.0,0.0,0.0,0.0,0.0,0.0,0.0,0.0,0.0,0.0,0.0,0.0,0.0,0.0,0.0,0.0,0.0,0.0,0.0,0.0,0.0,0.0,0.0,0.0,0.0,0.0,0.0,0.0,0.0,0.0,0.0,0.0,0.0,0.0,0.0,0.0,0.0,0.0,0.0,0.0,0.0,0.0,0.0,0.0,0.0,0.0,0.0,0.0,0.0,0.0,0.0,0.0,0.0,0.0,0.0,0.0,0.0,0.0,0.0,0.0,0.0,0.0,0.0,0.0,0.0,0.0,0.0,0.0,0.0,0.0,0.0,0.0,0.0,0.0,0.0,0.0,0.0,0.0,0.9206,0.9091,0.919,0.9391,0.9519,0.9519,0.9317,0.9261,0.9424,0.0,0.0,0.0,0.0,0.0,0.0,0.0,0.0,0.0,0.0,0.0,0.0,0.0,0.0,0.0,0.0,0.0,0.0,0.0,0.0,0.0,0.0,0.0,0.0,0.0,0.0,0.0,0.0,0.0,0.0,0.0,0.0,0.0,0.0,0.0,0.0,0.0,0.0,0.0,0.0,0.0,0.0,0.0,0.0,0.0,0.0,0.0,0.0,0.0,0.0,0.0,0.0,0.0,0.0,0.0,0.0,0.0,0.0,0.0,0.0,0.0,0.0,0.0,0.0,0.0,0.0,0.0,0.0,0.0,0.0,0.0,0.0,0.0,0.0,0.0,0.0,0.0,0.0,0.0,0.0,0.0,0.0,0.0,0.0,0.0,0.0,0.0,0.0,0.0,0.0,0.0,0.0,0.0,0.0,0.0,0.0,0.0,0.0,0.0,0.0,0.0,0.0,0.9874,0.9506,0.927,0.9471,0.9685,0.982,0.982,0.9618,0.9602,0.9852,0.0,0.0,0.0,0.0,0.0,0.0,0.0,0.0,0.0,0.0,0.0,0.0,0.0,0.0,0.0,0.0,0.0,0.0,0.0,0.0,0.0,0.0,0.0,0.0,0.0,0.0,0.0,0.0,0.0,0.0,0.0,0.0,0.0,0.0,0.0,0.0,0.0,0.0,0.0,0.0,0.0,0.0,0.0,0.0,0.0,0.0,0.0,0.0,0.0,0.0,0.0,0.0,0.0,0.0,0.0,0.0,0.0,0.0,0.0,0.0,0.0,0.0,0.0,0.0,0.0,0.0,0.0,0.0,0.0,0.0,0.0,0.0,0.0,0.0,0.0,0.0,0.0,0.0,0.0,0.0,0.0,0.0,0.0,0.0,0.0,0.0,0.0,0.0,0.0,0.0,0.0,0.0,0.0,0.0,0.0,0.0,0.0,0.0,0.0,0.0,0.0,0.0,1.0228,0.9659,0.9444,1.006,1.0112,1.0112,1.0127,1.0112,1.0456,0.0,0.0,0.0,0.0,0.0,0.0,0.0,0.0,0.0,0.0,0.0,0.0,0.0,0.0,0.0,0.0,0.0,0.0,0.0,0.0,0.0,0.0,0.0,0.0,0.0,0.0,0.0,0.0,0.0,0.0,0.0,0.0,0.0,0.0,0.0,0.0,0.0,0.0,0.0,0.0,0.0,0.0,0.0,0.0,0.0,0.0,0.0,0.0,0.0,0.0,0.0,0.0,0.0,0.0,0.0,0.0,0.0,0.0,0.0,0.0,0.0,0.0,0.0,0.0,0.0,0.0,0.0,0.0,0.0,0.0,0.0,0.0,0.0,0.0,0.0,0.0,0.0,0.0,0.0,0.0,0.0,0.0,0.0,0.0,0.0,0.0,0.0,0.0,0.0,0.0,0.0,0.0,0.0,0.0,0.0,0.0,0.0,0.0,0.0,0.0,0.0,0.0,0.0,1.0294,1.003,1.0248,1.1325,1.1022,1.1001,1.1664,1.0935,1.057,1.0857,0.0,0.0,0.0,0.0,0.0,0.0,0.0,0.0,0.0,0.0,0.0,0.0,0.0,0.0,0.0,0.0,0.0,0.0,0.0,0.0,0.0,0.0,0.0,0.0,0.0,0.0,0.0,0.0,0.0,0.0,0.0,0.0,0.0,0.0,0.0,0.0,0.0,0.0,0.0,0.0,0.0,0.0,0.0,0.0,0.0,0.0,0.0,0.0,0.0,0.0,0.0,0.0,0.0,0.0,0.0,0.0,0.0,0.0,0.0,0.0,0.0,0.0,0.0,0.0,0.0,0.0,0.0,0.0,0.0,0.0,0.0,0.0,0.0,0.0,0.0,0.0,0.0,0.0,0.0,0.0,0.0,0.0,0.0,0.0,0.0,0.0,0.0,0.0,0.0,0.0,0.0,0.0,0.0,0.0,0.0,0.0,0.0,0.0,0.0,0.0,0.0,0.0,1.0982,1.0605,1.0675,1.1659,1.1396,1.1546,1.2515,1.1758,1.1486,1.2062,0.0,0.0,0.0,0.0,0.0,0.0,0.0,0.0,0.0,0.0,0.0,0.0,0.0,0.0,0.0,0.0,0.0,0.0,0.0,0.0,0.0,0.0,0.0,0.0,0.0,0.0,0.0,0.0,0.0,0.0,0.0,0.0,0.0,0.0,0.0,0.0,0.0,0.0,0.0,0.0,0.0,0.0,0.0,0.0,0.0,0.0,0.0,0.0,0.0,0.0,0.0,0.0,0.0,0.0,0.0,0.0,0.0,0.0,0.0,0.0,0.0,0.0,0.0,0.0,0.0,0.0,0.0,0.0,0.0,0.0,0.0,0.0,0.0,0.0,0.0,0.0,0.0,0.0,0.0,0.0,0.0,0.0,0.0,0.0,0.0,0.0,0.0,0.0,0.0,0.0,0.0,0.0,0.0,0.0,0.0,0.0,0.0,0.0,0.0,0.0,0.0,0.0,1.2175,1.1507,1.1166,1.1771,1.1765,1.2089,1.2987,1.2593,1.2814,1.4001,0.0,0.0,0.0,0.0,0.0,0.0,0.0,0.0,0.0,0.0,0.0,0.0,0.0,0.0,0.0,0.0,0.0,0.0,0.0,0.0,0.0,0.0,0.0,0.0,0.0,0.0,0.0,0.0,0.0,0.0,0.0,0.0,0.0,0.0,0.0,0.0,0.0,0.0,0.0,0.0,0.0,0.0,0.0,0.0,0.0,0.0,0.0,0.0,0.0,0.0,0.0,0.0,0.0,0.0,0.0,0.0,0.0,0.0,0.0,0.0,1.083,1.0264,0.0,0.0,0.0,0.0,0.0,0.0,0.0,0.0,0.0,0.0,0.0,0.0,0.0,0.0,0.0,0.0,0.0,0.0,0.0,0.0,0.0,0.0,0.0,0.0,0.0,0.0,0.0,0.0,0.0,0.0,0.0,0.0,0.0,0.0,0.0,0.0,0.0,0.0,0.0,0.0,1.3673,1.3603,1.3917,1.4975,1.4444,1.4077,1.4299,1.3561,1.3067,1.3097,1.292,0.0,0.0,0.0,0.0,0.0,0.0,0.0,0.0,0.0,0.0,0.0,0.0,0.0,0.0,0.0,0.0,0.0,0.0,0.0,0.0,0.0,0.0,0.0,0.0,0.0,0.0,0.0,0.0,0.0,0.0,0.0,0.0,0.0,0.0,0.0,0.0,0.0,0.0,0.0,0.0,0.0,0.0,0.0,0.0,0.0,0.0,0.0,0.0,0.0,0.0,0.0,0.0,0.0,0.0,0.0,0.0,0.0,0.0,0.0,1.1787,1.1115,0.0,0.0,0.0,0.0,0.0,0.0,0.0,0.0,0.0,0.0,0.0,0.0,0.0,0.0,0.0,0.0,0.0,0.0,0.0,0.0,0.0,0.0,0.0,0.0,0.0,0.0,0.0,0.0,0.0,0.0,0.0,0.0,0.0,0.0,0.0,0.0,0.0,0.0,0.0,0.0,1.4654,1.479,1.5112,1.5878,1.5688,1.5718,1.6199,1.5415,1.5002,1.5282,1.4514,0.0,0.0,0.0,0.0,0.0,0.0,0.0,0.0,0.0,0.0,0.0,0.0,0.0,0.0,0.0,0.0,0.0,0.0,0.0,0.0,0.0,0.0,0.0,0.0,0.0,0.0,0.0,0.0,0.0,0.0,0.0,0.0,0.0,0.0,0.0,0.0,0.0,0.0,0.0,0.0,0.0,0.0,0.0,0.0,0.0,0.0,0.0,0.0,0.0,0.0,0.0,0.0,0.0,1.3447,1.36,1.362,1.3948,1.4091,1.4026,1.2639,1.1997,1.1928,1.1928,0.0,0.0,0.0,0.0,0.0,0.0,0.0,0.0,0.0,0.0,0.0,0.0,0.0,0.0,0.0,0.0,0.0,0.0,0.0,0.0,0.0,0.0,1.1777,1.2715,1.2834,1.2443,1.139,0.0,0.0,0.0,0.0,0.0,0.0,0.0,0.0,0.0,0.0,0.0,1.569,1.5945,1.6162,1.6381,1.6709,1.7179,1.7831,1.7234,1.7096,1.7718,1.6414,1.5544,0.0,0.0,0.0,0.0,0.0,0.0,0.0,0.0,0.0,0.0,0.0,0.0,0.0,0.0,0.0,0.0,0.0,0.0,0.0,0.0,0.0,0.0,0.0,0.0,0.0,0.0,0.0,0.0,0.0,0.0,0.0,0.0,0.8997,0.9465,0.0,0.0,0.0,0.0,0.0,0.0,0.0,0.0,0.0,0.0,0.0,0.0,0.0,1.3223,1.3152,1.3617,1.388,1.3938,1.3997,1.4026,1.4026,1.4085,1.4091,1.4094,1.387,0.0,1.3252,1.3252,0.0,0.0,0.0,0.0,0.0,0.0,0.0,0.0,0.0,0.0,0.0,0.0,0.0,0.0,0.0,0.0,0.0,0.0,0.0,0.0,0.0,0.0,1.2896,1.3044,1.3364,1.3578,1.3414,1.3586,1.3773,1.3773,1.3773,1.3802,0.0,0.0,0.0,0.0,0.0,0.0,1.7588,1.831,1.8795,1.8834,1.8892,1.8636,1.7952,1.7796,1.7461,1.6822,1.6576,1.6132,1.5435,1.5143,0.0,0.0,0.0,0.0,0.0,0.0,0.0,0.0,0.0,0.0,0.0,0.0,0.0,0.0,0.0,0.0,0.0,0.0,0.0,0.0,0.0,0.0,0.0,0.0,0.0,0.0,0.0,0.0,0.0,0.9482,0.998,1.0635,1.0909,1.1106,0.0,0.0,0.0,0.0,0.0,0.0,0.0,0.0,0.0,1.3276,1.3636,1.3961,1.4232,1.4414,1.4605,1.4825,1.5107,1.5215,1.5225,1.5464,1.5566,1.5566,1.5566,1.5327,1.4907,1.4147,1.3617,1.3276,0.0,0.0,0.0,0.0,1.3008,1.3008,1.3008,1.3008,1.3008,1.3008,0.0,0.0,0.0,0.0,0.0,0.0,0.0,1.4105,1.4683,1.4605,1.4464,1.4715,1.4944,1.5225,1.5725,1.5886,1.5727,1.4986,1.4825,1.4917,1.5176,1.5586,0.0,0.0,0.0,1.8225,1.8672,1.9491,2.0029,2.0029,2.0468,2.0585,2.0182,1.9696,1.9241,1.8881,1.8145,1.7459,1.6882,1.6391,1.5552,0.0,0.0,0.0,0.0,0.0,0.0,0.0,0.0,0.0,0.0,0.0,0.0,0.0,0.0,0.0,0.0,0.0,0.0,0.0,0.0,0.0,0.0,0.0,0.0,0.0,0.0,0.0,0.0,1.0627,1.1074,1.1685,1.1751,1.18,0.0,0.0,0.0,0.0,0.0,0.0,1.3649,1.4059,1.4283,1.4283,1.4498,1.4785,1.5122,1.5225,1.5439,1.5737,1.6207,1.6427,1.6447,1.6855,1.7028,1.7028,1.7028,1.6865,1.648,1.5156,1.4547,1.4436,1.4436,1.4436,1.4436,1.4436,1.4436,1.4436,1.4436,1.4436,1.4436,1.4436,1.4436,1.4436,1.4436,0.0,0.0,0.0,0.0,1.5381,1.5811,1.5996,1.6162,1.65,1.6656,1.692,1.7568,1.781,1.7536,1.6309,1.6074,1.6182,1.6519,1.6924,0.0,1.8223,1.8771,1.9269,1.9727,2.0459,2.0918,2.0918,2.1514,2.1905,2.1905,2.1299,2.0879,2.0762,1.9727,1.8879,1.8359,1.7503,1.6619,1.5757,0.0,0.0,0.0,0.0,0.0,0.0,0.0,0.0,0.0,0.0,0.0,0.0,0.0,0.0,0.0,0.0,0.0,0.0,0.0,0.0,0.0,0.0,0.0,0.0,0.0,0.0,0.0,0.0,0.0,1.2196,1.2174,0.0,0.0,0.0,0.0,1.3425,1.3831,1.4075,1.4075,1.4512,1.476,1.476,1.5566,1.6007,1.6026,1.641,1.6609,1.6638,1.7109,1.7331,1.735,1.7754,1.7932,1.7932,1.7932,1.7913,1.7812,1.6535,1.5737,1.5327,1.5327,1.5327,1.5327,1.5327,1.5327,1.5327,1.5327,1.5327,1.5327,1.5327,1.5327,1.5327,1.5327,1.5327,0.0,0.0,1.6309,1.6707,1.7168,1.7578,1.7881,1.791,1.8196,1.8481,1.8529,1.8879,1.8936,1.803,1.7881,1.7874,1.791,0.0,1.8666,1.915,1.995,2.0644,2.1044,2.1543,2.1837,2.1837,2.1876,2.1905,2.1905,2.1866,2.1641,2.121,2.0742,2.0117,1.9276,1.8398,1.7522,1.6648,1.5786,0.0,0.0,0.0,0.0,0.0,0.0,0.0,0.0,0.0,0.0,0.0,0.0,0.0,0.0,0.0,0.0,0.0,0.0,0.0,0.0,0.0,0.0,0.0,0.0,0.0,0.0,0.0,0.0,1.2981,1.3044,0.0,1.363,1.3792,1.401,1.4307,1.4703,1.5064,1.5376,1.5791,1.602,1.602,1.6627,1.7057,1.7331,1.7727,1.8061,1.8379,1.8535,1.8621,1.8631,1.8769,1.8838,1.8838,1.8838,1.8838,1.8799,1.8347,1.7725,1.7064,1.7064,1.6924,1.668,1.668,1.6504,1.6244,1.6244,1.643,1.6728,1.6992,1.7064,1.7064,1.7064,1.7064,1.7152,1.7581,1.7815,1.8022,1.8496,1.8916,1.921,1.921,1.9561,1.9961,2.0225,2.041,2.0518,2.0508,1.9814,1.921,1.921,1.9815,2.0323,2.0498,2.1035,2.1495,2.1631,2.2021,2.2295,2.2295,2.2529,2.2674,2.2674,2.242,2.2206,2.2049,2.165,2.1045,2.0165,1.9833,1.8994,1.7561,1.723,1.6592,0.0,0.0,0.0,0.0,0.0,0.0,0.0,0.0,0.0,0.0,0.0,0.0,0.0,0.0,0.0,0.0,0.0,0.0,0.0,0.0,0.0,0.0,0.0,0.0,0.0,1.2625,1.3082,1.3463,1.362,1.3874,1.428,1.4455,1.4732,1.52,1.5615,1.603,1.6515,1.6924,1.7194,1.734,1.7803,1.8181,1.8437,1.8703,1.9054,1.9502,1.9667,1.9814,1.9951,2.0117,2.0185,2.0185,2.0185,2.0185,2.0185,2.0185,1.9853,1.9258,1.8672,1.8289,1.8044,1.8044,1.7842,1.7581,1.7581,1.7783,1.8083,1.835,1.8437,1.8437,1.8437,1.8527,1.8693,1.8966,1.9251,1.9543,1.9873,2.0264,2.0576,2.0576,2.082,2.1114,2.1376,2.1435,2.1523,2.1836,2.1182,2.0576,2.0576,2.1045,2.1484,2.162,2.1893,2.2148,2.2295,2.2527,2.2703,2.2703,2.2925,2.3091,2.3091,2.2859,2.2703,2.2703,2.2324,2.1836,2.127,2.0967,2.0205,1.8896,1.842,1.7588,1.6304,0.0,0.0,0.0,0.0,0.0,0.0,0.0,0.0,0.0,0.0,0.0,0.0,0.0,0.0,0.0,0.0,0.0,0.0,0.0,0.0,0.0,0.0,0.0,1.2371,1.3482,1.4181,1.3631,1.3899,1.4328,1.4819,1.5225,1.5654,1.6124,1.6527,1.6966,1.7438,1.7832,1.8225,1.8607,1.9092,1.9344,1.9344,1.9374,1.957,1.998,2.042,2.083,2.1229,2.1689,2.1905,2.1905,2.1905,2.1905,2.1905,2.1905,2.1905,2.1739,2.0048,1.9365,1.9364,1.9364,1.9354,1.9344,1.9346,1.9364,1.9364,1.9383,1.9383,1.9383,1.9383,1.9648,1.9962,1.9962,2.0576,2.121,2.121,2.1582,2.1925,2.1925,2.1935,2.1944,2.1944,2.1944,2.1944,2.1944,2.1944,2.1924,2.1925,2.1935,2.206,2.2449,2.2529,0.0,2.3042,2.3091,2.3091,2.3091,2.3091,2.3091,2.3091,2.3091,2.3091,2.3091,2.2732,2.2498,2.2488,2.1698,2.1035,2.0615,1.9298,1.8022,1.6755,0.0,0.0,0.0,0.0,0.0,0.0,0.0,0.0,0.0,0.0,0.0,0.0,0.0,0.0,0.0,0.0,0.0,0.0,0.0,0.0,0.0,1.3566,1.3431,1.3186,1.3732,1.4367,1.4828,1.4976,1.5347,1.6093,1.6592,1.7012,1.7441,1.7854,1.8283,1.8758,1.8885,1.8994,1.9102,1.9843,2.0234,2.0234,2.0869,2.125,2.1348,2.1485,2.1602,2.1709,2.1836,2.1905,2.1905,2.1905,2.1905,2.1905,2.1905,2.1905,2.1857,2.1378,2.0977,2.0684,2.0684,2.0498,2.0283,2.0586,2.0684,2.0732,2.1064,2.1192,2.1192,2.1192,2.127,2.1348,2.1348,2.1514,2.1709,2.1709,2.2021,2.2344,2.2344,2.2557,2.2771,2.2771,2.2771,2.2771,2.2771,2.2771,2.2684,2.2393,2.2576,2.281,2.2927,2.2947,2.2964,2.3081,2.3091,2.3091,2.3091,2.3091,2.3091,2.3091,2.3091,2.3091,2.3091,2.3006,2.281,2.2498,2.2264,2.166,2.0625,1.9902,1.9064,0.0,0.0,0.0,0.0,0.0,0.0,0.0,0.0,0.0,0.0,0.0,0.0,0.0,0.0,0.0,0.0,0.0,0.0,0.0,0.0,0.0,0.0,1.4245,1.4307,1.4307,1.4498,1.4908,1.562,1.6016,1.6498,1.7181,1.764,1.8086,1.8516,1.8752,1.918,1.9814,1.9843,2.0009,2.0381,2.0879,2.1133,2.1133,2.2089,2.2439,2.2148,2.2649,2.2698,2.2412,2.2412,2.2412,2.2412,2.2412,2.2412,2.2412,2.2412,2.2412,2.2373,0.0,0.0,0.0,0.0,2.1338,2.1172,2.1416,2.1484,2.1553,2.1807,2.1905,2.1905,2.1905,2.2012,2.2148,2.2148,2.2275,2.2412,2.2412,2.2576,2.2752,2.2752,2.2937,2.3091,2.3091,2.3091,2.3091,2.3091,2.3091,0.0,2.2791,2.2957,2.3091,2.3091,2.3091,2.3091,2.3091,2.3091,2.3091,2.3091,2.3091,2.3091,2.3091,2.3091,0.0,0.0,0.0,2.3006,2.2762,2.2586,0.0,0.0,0.0,2.0381,1.9689,1.9689,0.0,0.0,1.6484,1.6088,0.0,0.0,0.0,0.0,0.0,0.0,0.0,0.0,0.0,0.0,0.0,0.0,0.0,0.0,0.0,0.0,1.5331,1.5537,1.5669,1.5688,1.585,1.6271,1.6989,1.7653,1.8088,1.8518,1.8937,1.9413,1.9501,1.9882,2.0693,2.0752,0.0,0.0,0.0,2.2036,2.215,2.3022,2.3227,2.276,2.3648,2.3736,2.3091,2.3091,2.3091,2.3091,2.3091,2.3091,2.3091,2.3091,2.3091,2.3023,2.2314,2.2052,2.2052,2.2052,2.2052,2.2052,2.2052,0.0,0.0,2.2052,2.2052,2.2052,2.2052,2.2285,2.2557,2.2557,2.283,2.3091,2.3091,2.3091,2.3091,2.3091,2.3091,2.3091,2.3091,2.314,2.3191,2.3191,2.323,2.3237,2.3237,2.3198,2.3191,2.3191,2.323,2.3237,2.3237,2.3237,2.3237,2.3237,2.3237,0.0,2.3237,2.322,2.3191,2.3191,2.312,2.3091,2.3091,2.2762,2.2559,2.2488,2.2148,2.1738,2.1288,2.1288,2.1103,2.0713,1.9053,1.8283,0.0,0.0,0.0,0.0,0.0,0.0,0.0,0.0,0.0,0.0,0.0,0.0,0.0,0.0,0.0,1.533,1.5684,1.6324,1.7353,1.7493,1.7539,1.7627,1.7783,1.8193,1.8965,1.9424,1.9844,2.0302,2.0654,2.1064,2.1622,2.1651,2.1729,2.1896,2.2217,2.2836,2.3753,2.3368,2.3568,2.4354,2.3658,0.0,2.3091,2.3091,2.3091,2.3091,2.3091,2.3091,2.3091,2.3091,2.3091,2.3081,2.2937,2.2869,2.2869,2.2869,2.2869,2.2869,2.2869,2.2869,2.2869,2.2869,2.2869,2.2869,2.2869,2.2927,0.0,2.2974,2.3033,2.3091,2.3091,2.3091,2.3091,2.3091,2.3091,2.3091,2.3091,2.3396,2.3662,2.3662,2.3935,2.4147,2.4147,2.3887,2.3662,2.3662,2.3955,2.4147,2.4147,2.4147,2.4147,2.4147,2.4147,2.4147,2.4147,2.3857,2.3662,2.3662,2.3308,2.3091,2.3091,2.3035,2.284,2.2519,2.241,2.2178,2.1758,2.1758,2.1719,2.1622,2.0576,2.0087,0.0,0.0,0.0,0.0,0.0,0.0,0.0,0.0,0.0,0.0,0.0,1.5361,1.5905,0.0,1.5796,1.658,1.6899,1.7266,1.792,1.8379,1.8652,1.8652,1.8838,1.9219,1.9882,2.0322,2.0762,2.1221,2.1435,2.1748,2.2178,2.2197,2.2558,2.3325,2.3548,2.3925,2.4493,2.5229,2.5326,2.4808,2.4798,2.4489,2.392,2.3365,2.3091,2.3091,2.3091,2.3091,2.3091,2.3091,2.3091,2.3091,2.3091,2.3091,2.3091,2.3091,2.3091,2.3091,2.3091,2.3091,2.3091,2.3091,2.3091,2.3091,2.3091,2.3091,2.3091,2.3091,2.3091,2.3091,2.3091,2.3279,2.3445,2.3445,2.3601,2.3757,2.3757,2.3923,2.4102,2.4102,2.4254,2.4391,2.4391,2.4424,2.4378,2.4141,2.4277,2.4391,2.4391,2.4391,2.4391,2.4391,2.4391,2.4391,2.4391,2.4228,2.4014,2.3799,2.3584,2.3337,2.311,2.3091,2.3003,2.281,2.2801,2.2703,2.2488,2.2488,2.2488,2.2479,2.206,2.1631,0.0,0.0,0.0,0.0,0.0,0.0,0.0,1.4682,1.5776,1.4751,1.4881,1.5614,1.7104,1.6504,1.6272,1.776,1.8071,1.8176,1.8359,1.9144,1.9775,1.998,2.0033,2.0215,2.0674,2.1103,2.1523,2.1973,2.2032,2.2197,2.2586,2.284,2.3523,2.4755,2.502,2.522,2.5452,2.7003,2.6901,2.5147,2.585,2.5578,2.4436,2.3529,2.3091,2.3091,2.3091,2.3091,2.3091,2.3091,2.3091,2.3091,2.3091,2.3091,2.3091,2.3091,2.3091,2.3091,2.3091,2.3091,2.3091,2.3091,2.3091,2.3091,2.3091,2.3091,2.311,2.322,2.324,2.3237,2.3325,2.363,2.3906,2.3906,2.417,2.4391,2.4391,2.4459,2.4541,2.4541,2.4586,2.4654,2.4654,2.4971,2.5049,2.4609,2.4596,2.4654,2.4654,2.4654,2.4654,2.4654,2.4654,2.4615,2.4551,2.4541,2.4365,2.3935,2.3906,2.376,2.3376,2.3288,2.324,2.324,2.3162,2.3091,2.3091,2.3091,2.3091,2.3091,2.3091,2.2752,1.5398,1.5387,1.5284,1.5092,1.5142,1.5021,0.0,1.4627,1.5207,1.5136,1.5256,1.5624,1.6472,1.6926,1.7363,1.7917,1.8296,1.8792,1.9581,2.0534,2.1494,2.2377,2.1334,2.0684,2.1093,2.1553,2.1982,2.2412,2.242,2.2606,2.3003,2.3989,2.4607,2.4787,2.5776,2.6769,2.7711,2.7035,2.6554,2.6307,2.542,2.4393,2.3288,2.3157,2.3091,2.3091,2.3091,2.3091,2.3091,2.3091,2.3091,2.3091,2.3091,2.3091,2.3091,2.3091,2.3091,2.3091,2.3091,2.3091,2.3091,2.3091,2.3091,2.3091,2.3091,2.3091,2.3201,2.3603,2.3721,2.3799,2.4147,2.4284,2.4323,2.4323,2.4362,2.4391,2.4391,2.4717,2.5024,2.5024,2.5312,2.5538,2.5538,2.561,2.5484,2.5082,2.5342,2.5538,2.5538,2.5538,2.5538,2.5538,2.5538,2.5406,2.5053,2.5024,2.4828,2.4352,2.4323,2.4303,2.4254,2.3916,2.3721,2.3721,2.3308,2.3091,2.3091,2.3091,2.3091,2.3091,2.3091,2.3042,1.5973,1.5946,1.5727,1.4833,1.5227,1.5622,1.4907,1.6002,1.695,1.6128,1.6871,1.7688,1.7723,1.8148,1.8638,1.9043,1.9739,2.0349,2.0726,2.2115,2.3235,2.3659,2.3113,2.2767,2.292,2.2515,2.2432,2.282,2.3465,2.392,2.4082,2.5179,2.6088,2.6705,2.7186,2.7643,2.8096,2.8299,2.8079,2.7432,2.6962,2.614,2.5062,2.4382,2.3735,2.3091,2.3091,2.3091,2.3091,2.3091,2.3091,2.3091,2.3091,2.3269,2.3464,2.3188,2.3091,2.3091,2.3091,2.3091,2.3162,2.3415,2.3516,2.3542,2.3786,2.3864,2.3893,2.4102,2.415,2.4199,2.4352,2.4609,2.4818,2.4818,2.5,2.5162,2.5162,2.5308,2.5459,2.5459,2.5581,2.5693,2.5693,2.5693,2.565,2.5464,2.5591,2.5693,2.5693,2.5693,2.5693,2.5693,2.5693,2.564,2.5454,2.5459,2.5273,2.4824,2.4818,2.4678,2.4401,2.4248,2.415,2.415,2.3952,2.3737,2.3516,2.3516,2.3367,2.3091,2.3091,2.3249,1.657,1.6429,1.6174,1.5105,1.5595,1.6302,1.6145,1.7542,1.8622,1.7751,1.8585,1.947,1.951,1.97,2.0079,2.0634,2.1343,2.1896,2.2154,2.3646,2.4834,2.5139,2.5107,2.5111,2.5262,2.3981,2.3255,2.3552,2.4628,2.5273,2.5273,2.6337,2.7299,2.8076,2.8406,2.8577,2.8577,2.9385,2.9236,2.8096,2.8096,2.738,2.5996,2.484,2.3947,2.3298,2.3298,2.3367,2.3474,2.3474,2.3474,2.3474,2.3474,2.3659,2.3926,2.3581,2.3474,2.3474,2.3474,2.3474,2.3523,2.3857,2.3965,2.4014,2.4303,2.4391,2.4443,2.456,2.459,2.4619,2.4723,2.5019,2.5278,2.5278,2.5484,2.5693,2.5693,2.5693,2.5693,2.5693,2.5693,2.5693,2.5693,2.5693,2.5693,2.5693,2.5693,2.5693,2.5693,2.5693,2.5693,2.5693,2.5693,2.5693,2.5693,2.5693,2.5571,2.5273,2.5278,2.5107,2.4771,2.4658,2.459,2.459,2.4473,2.4268,2.3965,2.3965,2.3799,2.3474,2.3474,2.364,1.741,1.7035,1.6933,1.6764,1.6702,1.6987,1.8144,1.8865,1.9474,2.0145,2.0069,2.0269,2.1561,2.1551,2.1655,2.2648,2.2839,2.3169,2.4074,2.511,2.6159,2.7265,2.728,2.7403,2.7933,2.6003,2.4734,2.4745,2.5797,2.6451,2.6451,2.7461,2.8076,2.8096,2.9177,2.9753,2.9753,2.9792,2.9236,2.8096,2.8096,2.6962,2.4808,2.3681,2.3369,2.3769,2.3769,2.4004,2.4352,2.4352,2.4352,2.4352,2.4352,2.4362,2.4371,2.4362,2.4352,2.4352,2.4352,2.4352,2.4362,2.4371,2.4371,2.4371,2.4391,2.4391,2.4479,2.4955,2.5072,2.517,2.5562,2.5664,2.5689,2.5689,2.5698,2.5693,2.5693,2.5693,2.5693,2.5693,2.5693,2.5693,2.5693,2.5693,2.5693,2.5693,2.5693,2.5693,2.5693,2.5693,2.5693,2.5693,2.5693,2.5693,2.5693,2.5693,2.5684,2.5674,2.5689,2.5689,2.5645,2.5283,2.5072,2.5072,2.4629,2.4391,2.4371,2.4371,2.4371,2.4352,2.4352,2.4362,1.9324,1.901,1.8676,1.8507,1.8811,1.9269,1.967,2.0552,2.1199,2.0866,2.1765,2.2391,2.1701,2.2495,2.319,2.2947,2.3678,2.4523,2.5207,2.6468,2.7601,2.8342,2.8062,2.7894,2.8072,2.6778,2.5933,2.5933,2.6933,2.7562,2.7562,2.8629,2.9236,2.9236,2.9605,2.9792,2.9792,2.9792,2.9624,2.9216,2.8827,2.8457,2.8073,2.6942,2.6497,2.6648,2.6648,2.6281,2.5675,2.5675,2.5164,2.4391,2.4391,2.459,2.4867,2.4867,2.5039,2.5181,2.4596,2.4391,2.444,2.4756,2.4867,2.4902,2.5181,2.5269,2.5298,2.5445,2.5493,2.5523,2.5645,2.5693,2.5693,2.5693,2.5693,2.5693,2.5693,2.5693,2.5693,2.5693,2.5693,2.5693,2.5693,2.5693,2.5693,2.5693,2.5693,2.5693,2.5693,2.5693,2.5693,2.5693,2.5693,2.5693,2.5693,2.5693,2.5693,2.5693,2.5693,2.5693,2.5693,2.5571,2.5493,2.5493,2.5337,2.5123,2.4867,2.4867,2.4697,2.4414,2.5278,2.5795,2.022,2.0144,2.0089,1.9767,2.0188,2.0754,2.1027,2.1863,2.2436,2.1864,2.296,2.3728,2.2786,2.3754,2.4589,2.4248,2.5104,2.6008,2.6548,2.7637,2.8593,2.9145,2.8917,2.8708,2.8708,2.8079,2.7504,2.7107,2.8088,2.8708,2.8708,2.9404,2.9792,2.9792,2.9792,2.9792,2.9792,2.9993,3.0181,3.0369,2.9577,2.9427,2.9773,2.8621,2.8193,2.8318,2.7878,2.7331,2.6722,2.6274,2.5611,2.4859,2.4859,2.5059,2.5303,2.5303,2.5488,2.5606,2.5064,2.4859,2.4908,2.5215,2.5303,2.5361,2.562,2.5693,2.5693,2.5693,2.5693,2.5693,2.5693,2.5693,2.5693,2.5693,2.5693,2.5693,2.5693,2.5693,2.5693,2.5693,2.5693,2.5693,2.5693,2.5693,2.5693,2.5693,2.5693,2.5693,2.5693,2.5693,2.5693,2.5693,2.5693,2.5693,2.5693,2.5693,2.5693,2.5693,2.5693,2.5693,2.5693,2.5693,2.5693,2.5693,2.5693,2.5571,2.5303,2.5303,2.5393,2.5554,2.6389,2.7131,2.0239,2.05,2.1137,2.0655,2.0922,2.1484,2.2187,2.2732,2.3108,2.3108,2.3574,2.4155,2.4666,2.5222,2.5791,2.6361,2.6914,2.7462,2.8021,2.8543,2.9095,2.9729,2.9792,2.9792,2.9792,2.9792,2.9346,2.8275,2.9197,2.9792,2.9792,2.9792,2.9792,2.9792,2.9836,2.9829,2.9829,3.0382,3.0922,3.1436,3.0408,2.9938,2.9941,2.8841,2.8605,2.8947,2.7731,2.7425,2.7696,2.6476,2.5917,2.5805,2.5805,2.5757,2.5693,2.5693,2.5693,2.5693,2.5693,2.5693,2.5693,2.5693,2.5693,2.5693,2.5693,2.5693,2.5693,2.5693,2.5693,2.5693,2.5693,2.5693,2.5693,2.5693,2.5693,2.5693,2.5693,2.5693,2.5693,2.5693,2.5693,2.5693,2.5693,2.5693,2.5693,2.5693,2.5693,2.5693,2.5693,2.5693,2.5693,2.5693,2.5693,2.5693,2.5693,2.5693,2.5693,2.5693,2.5693,2.5693,2.5693,2.5693,2.5693,2.5693,2.5693,2.5732,2.5805,2.5805,2.6452,2.7696,2.7754,2.8402,2.2114,2.2119,2.2082,2.2355,2.2501,2.2658,2.285,2.3007,2.3108,2.3108,2.3574,2.4042,2.418,2.4971,2.5649,2.5804,2.6319,2.7022,2.7971,2.8217,2.8687,2.9679,2.9792,2.9792,2.9792,2.9792,2.9682,2.9385,2.9643,2.9792,2.9792,2.9792,2.9792,2.9792,3.0193,3.0387,3.0387,3.0934,3.1474,3.198,3.1718,3.1815,3.2246,3.1955,3.1887,3.2,3.1661,3.1049,3.0271,2.992,2.8739,2.7125,2.7125,2.6548,2.5693,2.5693,2.5693,2.5693,2.5693,2.5693,2.5693,2.5693,2.5693,2.5693,2.5693,2.5693,2.5693,2.5693,2.5693,2.5693,2.5693,2.5693,2.5693,2.5693,2.5693,2.5693,2.5693,2.5693,2.5693,2.5693,2.5693,2.5693,2.5693,2.5693,2.5693,2.5693,2.5693,2.5693,2.5693,2.5693,2.5693,2.5693,2.5693,2.5693,2.5693,2.5693,2.5693,2.5693,2.5693,2.5693,2.5693,2.5693,2.5693,2.5693,2.5693,2.6173,2.7125,2.7125,2.7744,2.8958,2.9863,3.0451,2.2596,2.2694,2.2719,2.3032,2.3108,2.3108,2.3108,2.3108,2.3108,2.3108,2.3574,2.4004,2.4004,2.487,2.5598,2.5598,2.6306,2.7047,2.7657,2.8141,2.8681,2.934,2.9641,2.9792,2.9792,2.9792,2.9792,2.9792,2.9792,2.9792,2.9792,2.9792,2.9905,3.0143,3.0437,3.0826,3.129,3.1599,3.2039,3.2591,3.2591,3.2767,3.3102,3.3102,3.3102,3.3068,3.2513,3.1865,3.1134,3.0067,2.8819,2.7542,2.6982,2.6342,2.5693,2.5693,2.5693,2.5693,2.5693,2.5693,2.5693,2.5693,2.5693,2.5693,2.5693,2.5693,2.5693,2.5693,2.5693,2.5693,2.5693,2.5693,2.5693,2.5693,2.5693,2.5693,2.5693,2.5693,2.5693,2.5693,2.5693,2.5693,2.5693,2.5693,2.5693,2.5693,2.5693,2.5693,2.5693,2.5693,2.5693,2.5693,2.5693,2.5693,2.5693,2.5693,2.5693,2.5693,2.5693,2.5693,2.5693,2.6245,2.6524,2.6524,2.7044,2.7673,2.8389,2.8389,2.9016,3.0203,3.0877,3.15,2.237,2.2744,2.3108,2.3108,2.3108,2.3108,2.3108,2.3108,2.3108,2.3108,2.3461,2.3803,2.3866,2.4644,2.5322,2.5473,2.6394,2.7135,2.7273,2.8154,2.8831,2.8888,2.944,2.9792,2.9792,2.9792,2.9792,2.9792,2.9792,2.9792,2.9792,2.9867,3.0181,3.0789,3.0801,3.129,3.2315,3.2328,3.2579,3.3102,3.3102,3.3102,3.3102,3.3102,3.3102,3.3047,3.1931,3.1456,3.1289,2.9016,2.7979,2.7696,2.6452,2.5854,2.5693,2.5693,2.5693,2.5693,2.5693,2.5693,2.5693,2.5693,2.5693,2.5693,2.5693,2.5693,2.5693,2.5693,2.5693,2.5693,2.5693,2.5693,2.5693,2.5693,2.5693,2.5693,2.5693,2.5693,2.5693,2.5693,2.5693,2.5693,2.5693,2.5693,2.5693,2.5693,2.5693,2.5693,2.5693,2.5693,2.5693,2.5693,2.5693,2.5693,2.5693,2.5693,2.5693,2.5693,2.5693,2.5781,2.5941,2.7006,2.7683,2.7838,2.8866,2.9476,2.9636,2.9636,3.0271,3.1456,3.1456,3.2052,2.2719,2.3032,2.3108,2.3108,2.3108,2.3108,2.3108,2.3108,2.3108,2.3108,2.2834,2.2734,2.317,2.3409,2.3835,2.4791,2.5485,2.6231,2.7173,2.7846,2.8392,2.8856,2.944,2.9792,2.9792,2.9792,2.9792,2.9792,2.9792,2.9792,2.9792,3.0231,3.0901,3.188,3.1918,3.2252,3.2939,3.2952,3.3002,3.3102,3.3102,3.3102,3.3102,3.3102,3.3102,3.3102,3.2862,3.2776,3.2655,3.1178,3.0,2.897,2.7744,2.662,2.5693,2.5693,2.5693,2.5693,2.5693,2.5693,2.5693,2.5693,2.5693,2.5693,2.5693,2.5693,2.5693,2.5693,2.5693,2.5693,2.5693,2.5693,2.5693,2.5693,2.5693,2.5693,2.5693,2.5693,2.5693,2.5693,2.5693,2.5693,2.5693,2.5693,2.5693,2.5693,2.5693,2.5693,2.5693,2.5693,2.5693,2.5693,2.5693,2.5693,2.5693,2.5693,2.5693,2.5693,2.5693,2.6173,2.722,2.7471,2.8062,2.9062,2.9292,2.9886,3.0877,3.0877,3.1545,3.2776,3.2776,3.2884,2.2807,2.3108,2.3108,2.3108,2.3108,2.3108,2.3108,2.2882,2.2681,2.2681,2.2257,2.197,2.2219,2.2495,2.2945,2.3785,2.4628,2.5473,2.6306,2.7394,2.821,2.8442,2.9264,2.9792,2.9792,2.9792,2.9792,2.9792,2.9792,2.9792,2.9792,3.057,3.1386,3.2169,3.2503,3.2813,3.3102,3.3102,3.3102,3.3102,3.3102,3.3102,3.3102,3.3102,3.3102,3.3102,3.3102,3.3102,3.2961,3.1045,2.992,2.9223,2.7352,2.6245,2.5693,2.5693,2.5693,2.5693,2.5693,2.5693,2.5693,2.5693,2.5693,2.5693,2.5693,2.5693,2.5693,2.5693,2.5693,2.5693,2.5693,2.5693,2.5693,2.5693,2.5693,2.5693,2.5693,2.5693,2.5693,2.5693,2.5693,2.5693,2.5693,2.5693,2.5693,2.5693,2.5693,2.5693,2.5693,2.5693,2.5693,2.5693,2.5693,2.5693,2.5693,2.5693,2.5965,2.6644,2.6682,2.7234,2.8495,2.9131,2.975,3.0339,3.0978,3.1601,3.2196,3.2196,3.2491,3.3102,3.3102,3.3102,2.2671,2.3007,2.3108,2.3108,2.3108,2.307,2.2957,2.2594,2.227,2.2144,2.1694,2.1356,2.1482,2.1744,2.2207,2.2982,2.3847,2.4704,2.5485,2.6859,2.7846,2.8084,2.9001,2.9654,2.9779,2.9792,2.9792,2.9792,2.9792,2.9892,3.0118,3.0934,3.17,3.2378,3.2842,3.3102,3.3102,3.3102,3.3102,3.3102,3.3102,3.3102,3.3102,3.3102,3.3102,3.3102,3.3102,3.2939,3.2513,3.0316,2.9246,2.8785,2.6562,2.5693,2.5693,2.5693,2.5693,2.5693,2.5693,2.5693,2.5693,2.5693,2.5693,2.5693,2.5693,2.5693,2.5693,2.5693,2.5693,2.5693,2.5693,2.5693,2.5693,2.5693,2.5693,2.5693,2.5693,2.5693,2.5693,2.5693,2.5693,2.5693,2.5693,2.5693,2.5693,2.5693,2.5693,2.5693,2.5693,2.5693,2.5693,2.5693,2.5693,2.5693,2.5693,2.5693,2.6245,2.7518,2.7589,2.8249,2.9727,3.0698,3.1334,3.1589,3.259,3.3102,3.3102,3.3102,3.3102,3.3102,3.3102,3.3102,2.2207,2.2732,2.3108,2.3108,2.3108,2.297,2.2483,2.2332,2.2157,2.1669,2.1157,2.0918,2.1407,2.1144,2.1344,2.2844,2.3195,2.3797,2.5372,2.6193,2.6997,2.7984,2.8618,2.9195,2.9741,2.9792,2.9792,2.9792,2.9792,3.0238,3.1205,3.1356,3.1909,3.2989,3.3077,3.3102,3.3102,3.3102,3.3102,3.3102,3.3102,3.3102,3.3102,3.3102,3.3102,3.3102,3.3102,3.2447,3.1267,2.9954,2.875,2.7636,2.6245,2.5693,2.5693,2.5693,2.5693,2.5693,2.5693,2.5693,2.5693,2.5693,2.5693,2.5693,2.5693,2.5693,2.5693,2.5693,2.5693,2.5693,2.5693,2.5693,2.5693,2.5693,2.5693,2.5693,2.5693,2.5693,2.5693,2.5693,2.5693,2.5693,2.5693,2.5693,2.5693,2.5693,2.5693,2.5693,2.5693,2.5693,2.5693,2.5693,2.5693,2.5693,2.5693,2.5693,2.6245,2.7518,2.7589,2.8634,3.0944,3.1144,3.1733,3.2905,3.3047,3.3102,3.3102,3.3102,3.3102,3.3102,3.3102,3.3102,2.2144,2.2458,2.2621,2.2621,2.2621,2.2483,2.1945,2.1292,2.0726,2.0514,1.9799,1.9271,1.9472,1.9597,1.9986,2.0952,2.1968,2.3085,2.4443,2.5703,2.6901,2.7971,2.8568,2.9132,2.9729,2.9792,2.9792,2.9792,2.9792,3.0269,3.1336,3.1406,3.1922,3.3065,3.3102,3.3102,3.3102,3.3102,3.3102,3.3102,3.3102,3.3102,3.3102,3.3102,3.3102,3.3102,3.3102,3.2819,3.2196,3.0203,2.9108,2.8471,2.6466,2.5693,2.5693,2.5693,2.5693,2.5693,2.5693,2.5693,2.5693,2.5693,2.5693,2.5693,2.5693,2.5693,2.5693,2.5693,2.5693,2.5693,2.5693,2.5693,2.5693,2.5693,2.5693,2.5693,2.5693,2.5693,2.5693,2.5693,2.5693,2.5693,2.5693,2.5693,2.5693,2.5693,2.5693,2.5693,2.5693,2.5693,2.5693,2.5693,2.5693,2.5693,2.5693,2.5693,2.6538,2.8564,2.868,2.9772,3.2239,3.2326,3.2578,3.3102,3.3102,3.3102,3.3102,3.3102,3.3102,3.3102,3.3102,3.3102,2.1719,2.1945,2.2071,2.2071,2.2071,2.1882,2.1154,2.0376,1.971,1.9397,1.8731,1.8204,1.8204,1.8644,1.9171,1.971,2.1079,2.2523,2.3816,2.515,2.652,2.7934,2.843,2.8957,2.9729,2.9792,2.9792,2.9792,2.9792,3.0269,3.1336,3.1406,3.1922,3.3065,3.3102,3.3102,3.3102,3.3102,3.3102,3.3102,3.3102,3.3102,3.3102,3.3102,3.3102,3.3102,3.3102,3.2677,3.1877,3.0113,2.897,2.8121,2.638,2.5693,2.5693,2.5693,2.5693,2.5693,2.5693,2.5693,2.5693,2.5693,2.5693,2.5693,2.5693,2.5693,2.5693,2.5693,2.5693,2.5693,2.5693,2.5693,2.5693,2.5693,2.5693,2.5693,2.5693,2.5693,2.5693,2.5693,2.5693,2.5693,2.5693,2.5693,2.5693,2.5693,2.5693,2.5693,2.5693,2.6038,2.6269,2.6269,2.6586,2.65,2.5757,2.5693,2.6754,2.9246,2.9407,3.0508,3.3004,3.3102,3.3102,3.3102,3.3102,3.3102,3.3102,3.3102,3.3102,3.3102,3.3102,3.3102,2.073,2.1093,2.1507,2.1507,2.1507,2.1218,2.0075,1.9811,1.9497,1.8442,1.8216,1.8204,1.8204,1.8644,1.9171,1.971,2.0752,2.2098,2.3766,2.4465,2.5632,2.7846,2.8091,2.8549,2.9679,2.9792,2.9792,2.9792,2.9792,3.0269,3.1336,3.1406,3.1922,3.3065,3.3102,3.3102,3.3102,3.3102,3.3102,3.3102,3.3102,3.3102,3.3102,3.3102,3.3102,3.3102,3.3102,3.1723,2.9453,2.9407,2.7945,2.5732,2.5708,2.5693,2.5693,2.5693,2.5693,2.5693,2.5693,2.5693,2.5693,2.5693,2.5693,2.5693,2.5693,2.5693,2.5693,2.5693,2.5693,2.5693,2.5693,2.5693,2.5693,2.5693,2.5693,2.5693,2.5693,2.5693,2.5693,2.5693,2.5693,2.5693,2.5693,2.5693,2.5693,2.5693,2.5693,2.5693,2.5693,2.6802,2.7589,2.7589,2.8657,2.8378,2.5917,2.5693,2.6754,2.9246,2.9407,3.0508,3.3004,3.3102,3.3102,3.3102,3.3102,3.3102,3.3102,3.3102,3.3102,3.3102,3.3102,3.3102,2.0705,2.0817,2.0955,2.0955,2.0955,2.0653,1.9509,1.897,1.8505,1.7801,1.7325,1.7038,1.7038,1.7816,1.8506,1.8681,2.0275,2.1933,2.3211,2.4199,2.5619,2.7846,2.8787,2.9402,2.9754,2.9792,2.9792,2.9792,2.9792,3.0269,3.1336,3.1406,3.1922,3.3065,3.3102,3.3102,3.3102,3.3102,3.3102,3.3102,3.3102,3.3102,3.3102,3.3102,3.3102,3.3102,3.3102,3.2655,3.1789,3.009,2.8947,2.8051,2.6356,2.5693,2.5693,2.5693,2.5693,2.5693,2.5693,2.5693,2.5693,2.5693,2.5693,2.5693,2.5693,2.5693,2.5693,2.5693,2.5693,2.5693,2.5693,2.5693,2.5693,2.5693,2.5693,2.5693,2.5693,2.5693,2.5693,2.5693,2.5693,2.5693,2.5693,2.5693,2.5693,2.5693,2.6428,2.7006,2.7006,2.7363,2.7589,2.7589,2.7932,2.8179,2.8215,2.8238,2.8924,3.0541,3.0631,3.1368,3.3025,3.3102,3.3102,3.3102,3.3102,3.3102,3.3102,3.3102,3.3102,3.3102,3.3102,3.3102,2.0251,2.0365,2.0365,2.0365,2.0365,2.0125,1.9221,1.8594,1.8053,1.7512,1.6923,1.6574,1.681,1.7589,1.833,1.8744,2.0313,2.1945,2.3261,2.4227,2.5619,2.7846,2.9101,2.9792,2.9792,2.9792,2.9792,2.9792,2.9792,3.0269,3.1336,3.1406,3.1922,3.3065,3.3102,3.3102,3.3102,3.3102,3.3102,3.3102,3.3102,3.3102,3.3102,3.3102,3.3102,3.3102,3.3102,3.2819,0.0,3.0732,2.9544,2.8564,2.703,2.6135,2.5693,2.5693,2.5693,2.5693,2.5693,2.5693,2.5693,2.5693,2.5693,2.5693,2.5693,2.5693,2.5693,2.5693,2.5693,2.5693,2.5693,2.5693,2.5693,2.5693,2.5693,2.5693,2.5693,2.5693,2.5693,2.5693,2.6086,2.6269,2.5781,2.6466,2.6935,2.6476,2.7471,2.8272,2.8272,2.868,2.8958,2.8958,2.9384,2.9988,3.0732,2.9931,2.9909,3.1134,3.1201,3.1777,3.3059,3.3102,3.3102,3.3102,3.3102,3.3102,3.3102,3.3102,3.3102,3.3102,3.3102,3.3102,0.0,1.971,1.9761,1.9798,1.9798,1.966,1.9121,1.8607,0.0,1.7562,1.7011,1.6787,1.7349,1.7902,1.8606,1.9635,2.0752,2.2098,2.3766,2.4591,2.5808,2.7921,2.9126,2.9792,2.9792,2.9792,2.9792,2.9792,2.9849,3.0306,3.1336,3.1436,3.1972,3.3065,3.3102,3.3102,3.3102,3.3102,3.3102,3.3102,3.3102,3.3102,3.3102,3.3102,3.3102,3.3102,3.3102,3.2426,3.1334,3.1245,2.9875,2.7838,2.7683,2.6873,2.583,2.5732,2.5693,2.5693,2.5693,2.5693,2.5693,2.5693,2.5693,2.5693,2.5693,2.5693,2.5693,2.5693,2.5693,2.5693,2.5693,2.5693,2.5693,2.5693,2.5693,2.5693,2.5693,2.5693,2.5693,2.5693,2.6668,2.7125,2.6014,2.7757,2.8935,2.7885,2.875,2.9521,2.9521,3.0519,3.1201,3.1201,3.2261,3.2961,3.2961,3.0945,3.0135,3.1267,3.1334,3.1865,3.3047,3.3102,3.3102,3.3102,3.3102,3.3102,3.3102,3.3102,3.3102,3.3102,3.3102,3.3102,1.8405,0.0,1.9296,1.9698,1.9798,1.966,0.0,1.8907,1.8669,1.8129,1.7903,1.7841,1.799,1.8443,1.9033,1.9685,2.0752,2.2098,2.3766,2.5925,2.7664,2.8605,2.9365,2.9792,2.9792,2.9792,2.9792,2.9792,3.0181,3.0708,3.1348,3.1788,3.234,3.3077,3.3102,3.3102,3.3102,3.3102,3.3102,3.3102,3.3102,3.3102,3.3102,3.3102,3.3102,3.3102,3.3102,3.2939,3.259,3.1589,3.0877,3.0169,2.8319,2.7434,2.704,2.6062,2.5693,2.5693,2.5693,2.5693,2.5693,2.5693,2.5693,2.5693,2.5693,2.5693,2.5693,2.5693,2.5693,2.5693,2.5693,2.5693,2.5693,2.5693,2.5693,2.5693,2.5693,2.5693,2.5693,2.5693,2.5941,2.6366,2.704,2.7636,2.8249,2.8889,2.9988,3.0765,3.0765,3.1011,3.1201,3.1201,3.1478,3.1655,3.1655,3.2008,3.236,3.2633,3.2655,3.2797,3.3102,3.3102,3.3102,3.3102,3.3102,3.3102,3.3102,3.3102,3.3102,3.3102,3.3102,3.3102,1.7677,1.8217,1.8769,1.9296,1.9434,1.9422,1.9384,1.9171,1.892,1.8631,1.8368,1.8279,1.8518,1.9008,1.9635,2.0439,2.1518,2.2924,2.4874,2.6841,2.8292,2.8844,2.944,2.9792,2.9792,2.9792,2.9792,2.9792,3.0306,3.0834,3.1361,3.1913,3.2478,3.3077,3.3102,3.3102,3.3102,3.3102,3.3102,3.3102,3.3102,3.3102,3.3102,3.3102,3.3102,3.3102,3.3102,3.3102,3.3059,3.236,3.1733,3.1055,2.9772,2.8901,2.8342,2.7639,2.7054,2.6572,2.6572,2.6183,2.5693,2.5693,2.5693,2.5693,2.5693,2.5693,2.5693,2.5693,2.5693,2.5693,2.5693,2.5693,2.5693,2.5693,2.5693,2.5693,2.5693,2.5693,2.5693,2.5693,2.6173,2.662,2.6706,2.7673,2.8448,2.8564,3.0056,3.1201,3.1201,3.1711,3.2074,3.2074,3.2074,3.2074,3.2074,3.2698,3.3102,3.3102,3.3102,3.3102,3.3102,3.3102,3.3102,3.3102,3.3102,3.3102,3.3102,3.3102,3.3102,3.3102,3.3102,3.3102,1.7123,1.7652,1.8216,1.8744,1.8945,1.9121,1.9572,1.9397,1.9121,1.9121,1.8832,1.8731,1.9183,1.971,2.0426,2.1556,2.2797,2.4315,2.6348,2.7562,2.8417,2.8969,2.949,2.9792,2.9792,2.9792,2.9792,2.9792,3.0382,3.0922,3.1381,3.2001,3.2566,3.3077,3.3102,3.3102,3.3102,3.3102,3.3102,3.3102,3.3102,3.3102,3.3102,3.3102,3.3102,3.3102,3.3102,3.3102,3.3102,3.3102,3.2447,3.1466,3.1289,3.0586,2.9658,2.9476,2.875,2.7861,2.7861,2.7173,2.6259,2.6259,2.6259,2.6221,2.6062,2.594,2.5842,2.5659,2.5659,2.5693,2.5693,2.5659,2.561,2.561,2.5562,2.5513,2.5513,2.5513,2.5513,2.5513,2.6503,2.7074,2.6179,2.7907,2.916,2.8432,3.0032,3.1382,3.1488,3.2426,3.3102,3.3102,3.3102,3.3102,3.3102,3.3102,3.3102,3.3102,3.3102,3.3102,3.3102,3.3102,3.3102,3.3102,3.3102,3.3102,3.3102,3.3102,3.3102,3.3102,3.3102,3.3102,1.66,1.7074,1.765,1.8191,1.8657,1.902,1.9108,1.9409,1.9685,1.9685,2.0025,2.0339,2.0427,2.0879,2.1594,2.2681,2.4607,2.6273,2.706,2.8109,2.8994,2.9591,2.9741,2.9792,2.9792,2.9792,2.9792,2.9792,3.0728,3.1298,3.1406,3.2399,3.3002,3.3102,3.3102,3.3102,3.3102,3.3102,3.3102,3.3102,3.3102,3.3102,3.3102,3.3102,3.3102,3.3102,3.3102,3.3102,3.3102,3.3102,3.2982,3.2698,3.1611,3.1089,3.0788,2.9772,2.9292,2.9108,2.9108,2.8993,2.8832,2.8832,2.8832,2.8634,2.7613,2.7035,2.6491,2.5488,2.5439,2.5693,2.5693,2.5449,2.519,2.519,2.4893,2.4596,2.4596,2.4596,2.4596,2.4596,2.5546,2.6584,2.7413,2.8676,3.0003,3.1296,3.1808,3.2228,3.2735,3.2982,3.3102,3.3102,3.3102,3.3102,3.3102,3.3102,3.3102,3.3102,3.3102,3.3102,3.3102,3.3102,3.3102,3.3102,3.3102,3.3102,3.3102,3.3102,3.3102,3.3102,3.3102,3.3102,1.65,1.6936,1.7461,1.7713,1.8393,1.9158,1.9773,2.0113,2.0364,2.0652,2.0942,2.1218,2.1507,2.2008,2.2922,2.4657,2.5833,2.6901,2.8009,2.8593,2.912,2.9729,2.9792,2.9792,2.9792,2.9792,2.9792,2.9792,3.0783,3.1406,3.1406,3.2487,3.3102,3.3102,3.3102,3.3102,3.3102,3.3102,3.3102,3.3102,3.3102,3.3102,3.3102,3.3102,3.3102,3.3102,3.3102,3.3102,3.3102,3.3102,3.3102,3.3047,3.2447,3.2239,3.2074,3.0844,2.9954,2.9315,2.8657,2.8425,2.8276,2.7368,2.7074,2.6915,2.6106,2.5707,2.543,2.487,2.484,2.5006,2.5006,2.4873,2.488,2.5486,2.5013,2.4726,2.5925,2.5743,2.5482,2.6083,2.6608,2.714,2.7699,2.8221,2.8839,2.9642,3.0362,3.1004,3.1574,3.2208,3.2729,3.3065,3.3102,3.3102,3.3102,3.3102,3.3102,3.3102,3.3102,3.3102,3.3102,3.3102,3.3102,3.3102,3.3102,3.3102,3.3102,3.3102,3.3102,3.3102,3.3102,3.3102,1.6674,1.7137,1.765,1.7902,1.8493,1.9271,2.0251,2.0591,2.088,2.1557,2.1782,2.2046,2.2598,2.3349,2.4519,2.6386,2.6901,2.7499,2.8731,2.9032,2.927,2.9741,2.9792,2.9792,2.9792,2.9792,2.9842,2.998,3.0859,3.1449,3.1574,3.255,3.3102,3.3102,3.3102,3.3102,3.3102,3.3102,3.3102,3.3102,3.3102,3.3102,3.3102,3.3102,3.3102,3.3102,3.3102,3.3102,3.3102,3.3102,3.3102,3.3102,3.3102,3.2905,3.2491,3.1245,3.0123,2.9171,2.8494,2.8187,2.7954,2.6915,2.6583,2.6462,2.5813,2.5378,2.5013,2.4727,2.4567,2.4492,2.4434,2.452,2.4796,2.5396,2.501,2.4874,2.6321,2.6178,2.6034,2.6857,2.743,2.7794,2.7794,2.8019,2.8235,2.8361,2.9202,3.0025,3.0564,3.1445,3.224,3.2839,3.2901,3.2952,3.309,3.3102,3.3102,3.3102,3.3102,3.3102,3.3102,3.3102,3.3102,3.3102,3.3102,3.3102,3.3102,3.3102,3.3102,3.3102,3.3102,3.3102,1.7186,1.7727,1.838,1.9384,1.9309,1.9146,1.9736,2.0302,2.0993,2.2033,2.2646,2.3158,2.3766,2.5175,2.6474,2.7135,2.8084,2.8769,2.8875,2.9371,2.9741,2.9779,2.9792,2.9792,2.9792,2.9792,3.0005,3.05,3.1072,3.1612,3.2127,3.2742,3.3102,3.3102,3.3102,3.3102,3.3102,3.3102,3.3102,3.3102,3.3102,3.3102,3.3102,3.3102,3.3102,3.3102,3.3102,3.3102,3.3102,3.3102,3.3102,3.3102,3.3102,3.2382,3.1201,2.9977,2.924,2.8958,2.9887,2.994,2.9784,3.0662,3.0951,3.072,2.9581,2.8235,2.683,2.5652,2.5065,2.4704,2.4463,2.4861,2.5102,2.4177,2.439,2.4539,2.3628,2.4205,2.4913,2.4988,2.6663,2.807,2.807,2.8948,2.9813,3.0323,3.0458,3.0718,3.1251,3.1408,3.1662,3.2215,3.2256,3.2491,3.3052,3.3102,3.3102,3.3102,3.3102,3.3102,3.3102,3.3102,3.3102,3.3102,3.3102,3.3102,3.3102,3.3102,3.3102,3.3102,3.3102,3.3102,1.7236,1.779,1.8468,1.9535,2.0188,2.0702,2.1228,2.1794,2.2408,2.3201,2.3788,2.444,2.5376,2.662,2.7657,2.821,2.8643,2.9032,2.9415,2.9654,2.9792,2.9792,2.9792,2.9792,2.9792,3.0105,3.0374,3.0575,3.1424,3.1989,3.2181,3.2767,3.3102,3.3102,3.3102,3.3102,3.3102,3.3102,3.3102,3.3102,3.3102,3.3102,3.3102,3.3102,3.3102,3.3102,3.3102,3.3102,3.3102,3.3102,3.2633,3.1884,3.1544,3.0682,2.9663,3.0367,3.0065,2.9243,2.895,2.9211,2.9437,2.8104,2.8149,2.8575,2.7898,2.7253,2.6689,2.6207,2.5971,2.5517,2.3981,2.4817,2.5976,2.5583,2.5666,2.612,2.7066,2.7055,2.7064,2.7775,2.8589,2.9157,2.9157,2.9514,2.9867,3.0068,3.0105,3.0294,3.0834,3.0909,3.111,3.165,3.2001,3.2441,3.3052,3.3102,3.3102,3.3102,3.3102,3.3102,3.3102,3.3102,3.3102,3.3102,3.3102,3.3102,3.3102,3.3102,3.3102,3.3102,3.3102,3.3102,1.7438,1.8041,1.8757,2.0024,2.1041,2.1945,2.2673,2.3123,2.36,2.4356,2.5084,2.5937,2.706,2.7858,2.853,2.9095,2.9183,2.9321,2.9741,2.9792,2.9792,2.9792,2.9792,2.9792,2.9792,3.0294,3.0663,3.0846,3.1679,3.229,3.2466,3.2889,3.3102,3.3102,3.3102,3.3102,3.3102,3.3102,3.3102,3.3102,3.3102,3.3102,3.3102,3.3102,3.3102,3.3102,3.3102,3.3102,3.3102,3.3102,3.2479,3.1431,3.0689,2.9789,2.9015,2.9911,2.963,2.8752,2.8336,2.8593,2.8866,2.7308,2.7311,2.7897,2.7641,2.7302,2.7005,2.7005,2.7005,2.6564,2.4659,2.5567,2.6924,2.6575,2.676,2.7331,2.8502,2.8418,2.8327,2.9106,2.9553,2.9792,2.9792,2.9792,2.9792,2.9792,2.9792,2.993,3.0306,3.0357,3.0557,3.1085,3.1788,3.2378,3.2767,3.2989,3.3102,3.3102,3.3102,3.3102,3.3102,3.3102,3.3102,3.3102,3.3102,3.3102,3.3102,3.3102,3.3102,3.3102,3.3102,3.3102,1.7891,1.8594,1.9396,2.1079,2.1907,2.2608,2.3753,2.4004,2.4318,2.5398,2.6532,2.765,2.8706,2.89,2.9107,2.9691,2.9792,2.9792,2.9792,2.9792,2.9792,2.9792,2.9792,2.9792,2.9804,3.0287,3.0834,3.1381,3.1913,3.2466,3.3065,3.3102,3.3102,3.3102,3.3102,3.3102,3.3102,3.3102,3.3102,3.3102,3.3102,3.3102,3.3102,3.3102,3.3102,3.3102,3.3102,3.3102,3.3102,3.309,3.2729,3.2055,3.0847,3.0062,2.943,2.8176,2.7463,2.7295,2.8415,2.8495,2.8307,2.9417,2.9792,2.9792,2.9792,2.9008,2.8116,2.8116,2.8116,2.7864,2.6801,2.7331,2.7844,2.676,2.734,2.7835,2.676,2.7371,2.8116,2.8116,2.9028,2.9792,2.9792,2.9792,2.9792,2.9792,2.9792,2.9792,2.9792,2.9792,3.0005,3.0538,3.1541,3.2202,3.2181,3.2729,3.309,3.309,3.3102,3.3102,3.3102,3.3102,3.3102,3.3102,3.3102,3.3102,3.3102,3.3102,3.3102,3.3102,3.3102,3.3102,1.7891,1.8594,1.9396,2.1079,2.2512,2.369,2.4402,2.4858,2.5548,2.7055,2.7934,2.8518,2.8838,2.9245,2.9591,2.9767,2.9792,2.9792,2.9792,2.9792,2.9792,2.9792,2.9792,2.9942,3.0331,3.0846,3.1386,3.1926,3.2491,3.2914,3.309,3.3102,3.3102,3.3102,3.3102,3.3102,3.3102,3.3102,3.3102,3.3102,3.3102,3.3102,3.3102,3.3102,3.3102,3.3102,3.3102,3.3102,3.3,3.1736,3.0873,3.029,2.955,2.9187,2.905,2.9133,2.9096,2.8943,2.8474,2.873,2.9216,2.8747,2.9157,2.9792,2.9792,2.9553,2.9307,2.9307,2.9307,2.9216,2.889,2.9059,2.9008,2.7896,2.849,2.9216,2.8902,2.9079,2.9307,2.9307,2.9573,2.9792,2.9792,2.9792,2.9792,2.9792,2.9792,2.9792,2.9792,2.9792,3.0005,3.0538,3.0876,3.1215,3.1599,3.2152,3.2466,3.2466,3.2876,3.3102,3.3102,3.3102,3.3102,3.3102,3.3102,3.3102,3.3102,3.3102,3.3102,3.3102,3.3102,3.3102,1.7891,1.8744,1.9673,2.1129,2.2749,2.4318,2.5523,2.6038,2.6678,2.8116,2.8681,2.8982,2.9208,2.9553,2.9792,2.9792,2.9792,2.9792,2.9792,2.9792,2.9792,2.9792,2.9993,3.0236,3.0563,3.1286,3.1851,3.219,3.2776,3.3102,3.3102,3.3102,3.3102,3.3102,3.3102,3.3102,3.3102,3.3102,3.3102,3.3102,3.3102,3.3102,3.3102,3.3102,3.3102,3.309,3.2851,3.2729,3.2637,3.1353,3.0488,2.9957,2.9642,2.9375,2.9249,2.9639,2.9792,2.9702,2.9008,2.9236,2.9682,2.9008,2.9236,2.9792,2.9792,2.9792,2.9792,2.9792,2.9792,2.9792,2.9792,2.9792,2.9624,2.8937,2.9294,2.9792,2.9792,2.9792,2.9792,2.9792,2.9792,2.9792,2.9792,2.9792,2.9792,2.9792,2.9792,2.9792,2.9792,2.9792,2.9917,3.0256,3.0462,3.0726,3.1047,3.1574,3.1976,3.2202,3.2541,3.2851,3.309,3.3102,3.3102,3.3102,3.3102,3.3102,3.3102,3.3102,3.3102,3.3102,3.3102,3.3102,1.7891,1.8982,2.0075,2.1218,2.2799,2.4657,2.6871,2.7374,2.767,2.8756,2.8982,2.9145,2.9691,2.9792,2.9792,2.9792,2.9792,2.9792,2.9792,2.9792,2.9817,2.9867,3.0306,3.0638,3.0738,3.1617,3.2219,3.229,3.278,3.3102,3.3102,3.3102,3.3102,3.3102,3.3102,3.3102,3.3102,3.3102,3.3102,3.3102,3.3102,3.3102,3.3102,3.3102,3.3077,3.2989,3.2441,3.2131,3.2026,3.1524,3.1009,3.0525,3.0525,3.0231,2.9792,2.9792,2.9792,2.9792,2.9792,2.9792,2.9792,2.9792,2.9792,2.9792,2.9792,2.9792,2.9792,2.9792,2.9792,2.9792,2.9792,2.9792,2.9792,2.9792,2.9792,2.9792,2.9792,2.9792,2.9792,2.9792,2.9792,2.9792,2.9792,2.9792,2.9792,2.9792,2.9792,2.9792,2.9792,2.9792,2.9792,2.9792,3.0244,3.0525,3.0525,3.1022,3.1537,3.2018,3.2093,3.2403,3.2989,3.3077,3.3102,3.3102,3.3102,3.3102,3.3102,3.3102,3.3102,3.3102,3.3102,3.3102,1.7891,1.8982,2.0075,2.1218,2.3088,2.5205,2.7431,2.7921,2.8247,2.9377,2.9603,2.9641,2.9786,2.9792,2.9792,2.9792,2.9792,2.9792,2.9792,2.9792,2.9955,3.0382,3.0525,3.0927,3.1767,3.2056,3.2403,3.2876,3.3027,3.3102,3.3102,3.3102,3.3102,3.3102,3.3102,3.3102,3.3102,3.3102,3.3102,3.3102,3.3102,3.3102,3.3102,3.3102,3.2851,3.239,3.2265,3.1717,3.0939,3.0834,3.047,2.9967,2.9967,2.9892,2.9792,2.9792,2.9792,2.9792,2.9792,2.9792,2.9792,2.9792,2.9792,2.9792,2.9792,2.9792,2.9792,2.9792,2.9792,2.9792,2.9792,2.9792,2.9792,2.9792,2.9792,2.9792,2.9792,2.9792,2.9792,2.9792,2.9792,2.9792,2.9792,2.9792,2.9792,2.9792,2.9792,2.9792,2.9792,2.9792,2.9792,2.9792,2.9892,2.9967,2.9967,3.047,3.0814,3.0939,3.1336,3.1813,3.2378,3.2851,3.3102,3.3102,3.3102,3.3102,3.3102,3.3102,3.3102,3.3102,3.3102,3.3102,1.7891,1.8794,1.9936,2.2146,2.3766,2.5381,2.7607,2.8109,2.8423,2.9585,2.9792,2.9792,2.9792,2.9792,2.9792,2.9792,2.9792,2.9792,2.9792,2.9792,2.9993,3.0538,3.0834,3.1311,3.2127,3.2466,3.2776,3.3077,3.3102,3.3102,3.3102,3.3102,3.3102,3.3102,3.3102,3.3102,3.3102,3.3102,3.3102,3.3102,3.3102,3.2952,3.2667,3.2667,3.2503,3.2169,3.1654,3.1115,3.0575,3.0331,3.0055,2.9792,2.9792,2.9792,2.9792,2.9792,2.9792,2.9792,2.9792,2.9792,2.9792,2.9792,2.9792,2.9792,2.9792,2.9792,2.9792,2.9792,2.9792,2.9792,2.9792,2.9792,2.9792,2.9792,2.9792,2.9792,2.9792,2.9792,2.9792,2.9792,2.9792,2.9792,2.9792,2.9792,2.9792,2.9792,2.9792,2.9792,2.9792,2.9792,2.9792,2.9792,2.9792,2.9792,2.9792,3.0055,3.0331,3.0575,3.0851,3.126,3.1788,3.2114,3.2537,3.309,3.3102,3.3102,3.3102,3.3102,3.3102,3.3102,3.3102,3.3102,1.7777,1.8656,2.0036,2.3088,2.4327,2.5331,2.7356,2.7971,2.8398,2.9428,2.9729,2.9792,2.9792,2.9792,2.9792,2.9792,2.9792,2.9792,2.9792,2.988,3.0143,3.0663,3.121,3.175,3.2303,3.2813,3.3102,3.3102,3.3102,3.3102,3.3102,3.3102,3.3102,3.3102,3.3102,3.3102,3.3102,3.3102,3.3102,3.3102,3.2989,3.2679,3.2181,3.2005,3.1918,3.1867,3.0989,3.0538,3.0432,2.998,2.9792,2.9792,2.9792,2.9792,2.9792,2.9792,2.9792,2.9792,2.9792,2.9792,2.9792,2.9792,2.9792,2.9792,2.9792,2.9792,2.9792,2.9792,2.9792,2.9792,2.9792,2.9792,2.9792,2.9792,2.9792,2.9792,2.9792,2.9792,2.9792,2.9792,2.9792,2.9792,2.9792,2.9792,2.9792,2.9792,2.9792,2.9792,2.9792,2.9792,2.9792,2.9792,2.9792,2.9792,2.9792,2.9792,2.9993,3.0425,3.045,3.0708,3.1235,3.1248,3.1738,3.2788,3.2901,3.3002,3.3102,3.3102,3.3102,3.3102,3.3102,3.3102,1.7313,1.8957,2.093,2.2757,2.4026,2.513,2.6419,2.7437,2.8285,2.8894,2.9453,2.9792,2.9792,2.9792,2.9792,2.9792,2.9792,2.9792,2.9792,3.0206,3.0696,3.1223,3.1763,3.2328,3.2927,3.3052,3.3102,3.3102,3.3102,3.3102,3.3102,3.3102,3.3102,3.3102,3.3102,3.3102,3.3102,3.3102,3.3102,3.309,3.2566,3.229,3.2156,3.124,3.0801,3.0801,3.0651,3.0344,2.9892,2.9829,2.9792,2.9792,2.9792,2.9792,2.9792,2.9792,2.9792,2.9792,2.9792,2.9792,2.9792,2.9792,2.9792,2.9792,2.9792,2.9792,2.9792,2.9792,2.9792,2.9792,2.9792,2.9792,2.9792,2.9792,2.9792,2.9792,2.9792,2.9792,2.9792,2.9792,2.9792,2.9792,2.9792,2.9792,2.9792,2.9792,2.9792,2.9792,2.9792,2.9792,2.9792,2.9792,2.9792,2.9792,2.9792,2.9792,2.9829,2.9892,2.9905,3.0143,3.0676,3.0701,3.0997,3.162,3.2089,3.2579,3.3102,3.3102,3.3102,3.3102,3.3102,3.3102,1.7601,1.9246,2.1018,2.232,2.3722,2.5093,2.6248,2.7336,2.8242,2.8794,2.939,2.9792,2.9792,2.9792,2.9792,2.9792,2.9792,2.9792,2.9792,2.9993,3.0457,3.1306,3.1599,3.2102,3.3014,3.3102,3.3102,3.3102,3.3102,3.3102,3.3102,3.3102,3.3102,3.3102,3.3102,3.3102,3.3102,3.3102,3.2939,3.2591,3.234,3.188,3.129,3.0814,3.06,3.0575,3.0281,3.0018,2.9792,2.9792,2.9792,2.9792,2.9792,2.9792,2.9792,2.9792,2.9792,2.9792,2.9792,2.9792,2.9792,2.9792,2.9792,2.9792,2.9792,2.9792,2.9792,2.9792,2.9792,2.9792,2.9792,2.9792,2.9792,2.9792,2.9792,2.9792,2.9792,2.9792,2.9792,2.9792,2.9792,2.9792,2.9792,2.9792,2.9792,2.9792,2.9792,2.9792,2.9792,2.9792,2.9792,2.9792,2.9792,2.9792,2.9792,2.9792,2.9792,2.9792,2.9792,2.9905,3.0143,3.0156,3.0407,3.0947,3.1486,3.2026,3.2591,3.2591,3.2776,3.3102,3.3102,3.3102,1.7715,1.9108,2.0527,2.1619,2.3135,2.4666,2.5804,2.6909,2.7883,2.8555,2.9157,2.9616,2.9767,2.9792,2.9792,2.9792,2.9792,2.9792,2.9792,2.9917,3.0294,3.1097,3.1436,3.1938,3.2801,3.3014,3.3102,3.3102,3.3102,3.3102,3.3102,3.3102,3.3102,3.3102,3.3102,3.3102,3.3102,3.2952,3.2641,3.2194,3.1918,3.1366,3.0588,3.047,3.0387,3.0362,2.9967,2.9792,2.9792,2.9792,2.9792,2.9792,2.9792,2.9792,2.9792,2.9792,2.9792,2.9792,2.9792,2.9792,2.9792,2.9792,2.9792,2.9792,2.9792,2.9792,2.9792,2.9792,2.9792,2.9792,2.9792,2.9792,2.9792,2.9792,2.9792,2.9792,2.9792,2.9792,2.9792,2.9792,2.9792,2.9792,2.9792,2.9792,2.9792,2.9792,2.9792,2.9792,2.9792,2.9792,2.9792,2.9792,2.9792,2.9792,2.9792,2.9792,2.9792,2.9792,2.9792,2.9792,2.9792,2.9792,2.9993,3.0387,3.0783,3.1323,3.2001,3.2118,3.2441,3.2876,3.3027,3.3102,1.7274,1.8254,1.9371,2.0503,2.1995,2.3484,2.4628,2.5778,2.6889,2.7921,2.8568,2.912,2.9691,2.9792,2.9792,2.9792,2.9792,2.9792,2.9792,3.0244,3.0575,3.0625,3.1529,3.2169,3.2231,3.2754,3.3102,3.3102,3.3102,3.3102,3.3102,3.3102,3.3102,3.3102,3.3102,3.3102,3.3102,3.2528,3.224,3.2181,3.1165,3.0651,3.0575,3.0068,2.9829,2.9829,2.9804,2.9792,2.9792,2.9792,2.9792,2.9792,2.9792,2.9792,2.9792,2.9792,2.9792,2.9792,2.9792,2.9792,2.9792,2.9792,2.9792,2.9792,2.9792,2.9792,2.9792,2.9792,2.9792,2.9792,2.9792,2.9792,2.9792,2.9792,2.9792,2.9792,2.9792,2.9792,2.9792,2.9792,2.9792,2.9792,2.9792,2.9792,2.9792,2.9792,2.9792,2.9792,2.9792,2.9792,2.9792,2.9792,2.9792,2.9792,2.9792,2.9792,2.9792,2.9792,2.9792,2.9792,2.9792,2.9792,2.9804,2.9829,2.9867,3.0394,3.1436,3.1951,3.2206,3.2256,3.2839,3.3102,1.7236,1.818,1.9171,1.9924,2.1617,2.3208,2.3622,2.5159,2.6612,2.6984,2.8047,2.8969,2.9183,2.9541,2.9792,2.9792,2.9792,2.9792,2.9792,2.9967,3.0218,3.055,3.0939,3.1323,3.165,3.1876,3.216,3.2503,3.2516,3.2692,3.3077,3.3102,3.3102,3.3102,3.3102,3.2914,3.2528,3.1964,3.1512,3.1165,3.0776,3.0432,3.008,2.988,2.9792,2.9792,2.9792,2.9792,2.9792,2.9792,2.9792,2.9792,2.9792,2.9792,2.9792,2.9792,2.9792,2.9792,2.9792,2.9792,2.9792,2.9792,2.9792,2.9792,2.9792,2.9792,2.9792,2.9792,2.9792,2.9792,2.9792,2.9792,2.9792,2.9792,2.9792,2.9792,2.9792,2.9792,2.9792,2.9792,2.9792,2.9792,2.9792,2.9792,2.9792,2.9792,2.9792,2.9792,2.9792,2.9792,2.9792,2.9792,2.9792,2.9792,2.9792,2.9792,2.9792,2.9792,2.9792,2.9792,2.9792,2.9792,2.9792,2.9792,2.9792,3.0156,3.0896,3.1085,3.1361,3.17,3.2265,3.2516,1.6986,1.7777,1.8631,1.9346,2.0915,2.2433,2.2982,2.4431,2.582,2.6386,2.7349,2.8191,2.8568,2.9114,2.9566,2.9767,2.9792,2.9792,2.9792,2.9792,2.993,3.0294,3.0487,3.0738,3.1097,3.1286,3.1537,3.1901,3.1938,3.2102,3.2512,3.2537,3.2537,3.2537,3.2537,3.2349,3.1938,3.1399,3.0959,3.06,3.0432,3.0143,2.9792,2.9792,2.9792,2.9792,2.9792,2.9792,2.9792,2.9792,2.9792,2.9792,2.9792,2.9792,2.9792,2.9792,2.9792,2.9792,2.9792,2.9792,2.9792,2.9792,2.9792,2.9792,2.9792,2.9792,2.9792,2.9792,2.9792,2.9792,2.9792,2.9792,2.9792,2.9792,2.9792,2.9792,2.9792,2.9792,2.9792,2.9792,2.9792,2.9792,2.9792,2.9792,2.9792,2.9792,2.9792,2.9792,2.9792,2.9792,2.9792,2.9792,2.9792,2.9792,2.9792,2.9792,2.9792,2.9792,2.9792,2.9792,2.9792,2.9792,2.9792,2.9792,2.9792,2.998,3.0331,3.05,3.0776,3.1135,3.1687,3.2039,0.0,0.0,0.0,1.8694,1.9811,2.1094,2.2671,2.3524,2.4447,2.6084,2.6461,2.6826,2.7858,2.8505,2.907,2.9654,2.9786,2.9792,2.9792,2.9792,2.9792,2.9792,3.0269,3.0575,3.0575,3.1047,3.1369,3.1381,3.1381,3.1373,3.1406,3.1406,3.1406,3.1406,3.1373,3.1381,3.1381,3.0846,3.0575,3.0563,3.0043,2.9792,2.9792,2.9792,2.9792,2.9792,2.9792,2.9792,2.9792,2.9792,2.9792,2.9792,2.9792,2.9792,2.9792,2.9792,2.9792,2.9792,2.9792,2.9792,2.9792,2.9792,2.9792,2.9792,2.9792,2.9792,2.9792,2.9792,2.9792,2.9792,2.9792,2.9792,2.9792,2.9792,2.9792,2.9792,2.9792,2.9792,2.9792,2.9792,2.9792,2.9792,2.9792,2.9792,2.9792,2.9792,2.9792,2.9792,2.9792,2.9792,2.9792,2.9792,2.9792,2.9792,2.9792,2.9792,2.9792,2.9792,2.9792,2.9792,2.9792,2.9792,2.9792,2.9792,2.9792,2.9792,2.9792,3.0331,3.0575,3.0588,3.1122,3.1675,1.65,0.0,0.0,0.0,0.0,0.0,2.1155,2.2383,2.3612,2.4522,2.5669,2.6587,2.6889,2.7695,2.8386,2.8549,2.9264,2.9792,2.9792,2.9792,2.9792,2.9792,2.993,3.0018,3.0018,3.0156,3.0394,3.0796,3.0834,3.0997,3.1373,3.1406,3.1406,3.1406,3.1022,3.0834,3.0834,3.0294,3.0018,3.0018,2.9867,2.9792,2.9792,2.9792,2.9792,2.9792,2.9792,2.9792,2.9792,2.9792,2.9792,2.9792,2.9792,2.9792,2.9792,2.9792,2.9792,2.9792,2.9792,2.9792,2.9792,2.9792,2.9792,2.9792,2.9792,2.9792,2.9792,2.9792,2.9792,2.9792,2.9792,2.9792,2.9792,2.9792,2.9792,2.9792,2.9792,2.9792,2.9792,2.9792,2.9792,2.9792,2.9792,2.9792,2.9792,2.9792,2.9792,2.9792,2.9792,2.9792,2.9792,2.9792,2.9792,2.9792,2.9792,2.9792,2.9792,2.9792,2.9792,2.9792,2.9792,2.9792,2.9792,2.9792,2.9792,2.9792,2.9792,2.9942,3.0018,3.003,3.0583,3.1323,1.65,1.6762,1.7074,1.7348,0.0,0.0,2.0138,2.1418,2.2659,2.3461,2.4594,2.5527,2.5753,2.6695,2.7437,2.7437,2.8379,2.9164,2.9402,2.9641,2.9792,2.9792,2.9792,2.9792,2.9792,2.9792,2.993,3.0244,3.0269,3.0407,3.0728,3.0721,3.0721,3.0721,3.0432,3.0269,3.0269,2.9955,2.9792,2.9792,2.9792,2.9792,2.9792,2.9792,2.9792,2.9792,2.9792,2.9792,2.9792,2.9792,2.9792,2.9792,2.9792,2.9792,2.9792,2.9792,2.9792,2.9792,2.9792,2.9792,2.9792,2.9792,2.9792,2.9792,2.9792,2.9792,2.9792,2.9792,2.9792,2.9792,2.9792,2.9792,2.9792,2.9792,2.9792,2.9792,2.9792,2.9792,2.9792,2.9792,2.9792,2.9792,2.9792,2.9792,2.9792,2.9792,2.9792,2.9792,2.9792,2.9792,2.9792,2.9792,2.9792,2.9792,2.9792,2.9792,2.9792,2.9792,2.9792,2.9792,2.9792,2.9792,2.9792,2.9792,2.9792,2.9792,2.9792,2.9792,2.9792,2.9804,3.0337,3.0927,1.6523,1.65,1.6624,1.7173,1.7713,0.0,1.9397,2.0489,2.1594,2.2619,2.3349,2.3979,2.4515,2.5502,2.6235,2.6298,2.7173,2.8041,2.8718,2.9277,2.9628,2.9691,2.9691,2.9729,2.9779,2.9792,2.9792,2.9792,2.9792,2.9792,2.9792,2.9792,2.9792,2.9792,2.9792,2.9792,2.9792,2.9792,2.9792,2.9792,2.9792,2.9792,2.9792,2.9792,2.9792,2.9792,2.9792,2.9792,2.9792,2.9792,2.9792,2.9792,2.9792,2.9792,2.9792,2.9792,2.9792,2.9792,2.9792,2.9792,2.9792,2.9792,2.9792,2.9792,2.9792,2.9792,2.9792,2.9792,2.9792,2.9792,2.9792,2.9792,2.9792,2.9792,2.9842,2.988,2.988,2.9949,2.9967,2.9967,2.993,2.9905,2.9967,2.9967,2.9967,2.9967,2.9962,2.9917,2.9917,2.9842,2.9792,2.9792,2.9792,2.9792,2.9792,2.9792,2.9792,2.9792,2.9792,2.9792,2.9792,2.9792,2.9792,2.9792,2.9792,2.9792,2.9792,2.9792,2.9792,2.9804,3.0294,3.0538,1.6636,1.65,1.6536,1.6649,1.7124,0.0,1.8367,1.9359,2.0326,2.1017,2.1945,2.2797,2.3333,2.4001,2.4619,2.5071,2.5674,2.6603,2.8041,2.836,2.8599,2.9019,2.9082,2.927,2.9741,2.9792,2.9792,2.9792,2.9792,2.9792,2.9792,2.9792,2.9792,2.9792,2.9792,2.9792,2.9792,2.9792,2.9792,2.9792,2.9792,2.9792,2.9792,2.9792,2.9792,2.9792,2.9792,2.9792,2.9792,2.9792,2.9792,2.9792,2.9792,2.9792,2.9792,2.9792,2.9792,2.9792,2.9792,2.9792,2.9792,2.9792,2.9792,2.9792,2.9792,2.9792,2.9792,2.9792,2.9792,2.9792,2.9792,2.9792,2.9792,2.9792,3.0131,3.0437,3.0437,3.0783,3.1105,3.1105,3.0746,3.0583,3.1009,3.1105,3.1105,3.1105,3.0866,3.0703,3.0703,3.0175,2.9792,2.9792,2.9792,2.9792,2.9792,2.9792,2.9792,2.9792,2.9792,2.9792,2.9792,2.9792,2.9792,2.9792,2.9792,2.9792,2.9792,2.9792,2.9792,2.9792,2.9905,3.0193,1.7099,1.6724,1.65,1.65,1.6724,0.0,0.0,1.8417,1.9158,1.9723,2.0741,2.1581,2.1845,2.2598,2.3251,2.3512,2.4268,2.5096,2.5937,2.6562,2.7152,2.7691,2.7336,2.7476,2.8555,2.8144,2.8122,2.8893,2.9475,2.9792,2.9792,2.9792,2.9792,2.9792,2.9792,2.9792,2.9792,2.9792,2.9792,2.9792,2.9792,2.9792,2.9792,2.9792,2.9792,2.9792,2.9792,2.9792,2.9792,2.9792,2.9792,2.9792,2.9792,2.9792,2.9792,2.9792,2.9792,2.9792,2.9792,2.9792,2.9792,2.9792,2.9792,2.9792,2.9792,2.9792,2.9792,2.9792,2.9792,2.9792,2.9792,2.9993,3.0206,3.0206,3.062,3.0997,3.0997,3.121,3.1474,3.175,3.1587,3.1411,3.1399,3.1406,3.1336,3.118,3.1017,3.0967,3.113,3.0841,3.0595,3.0595,3.0118,2.9792,2.9792,2.9792,2.9792,2.9792,2.9792,2.9792,2.9792,2.9792,2.9792,2.9792,2.9792,2.9792,2.9792,2.9792,2.9792,2.9792,2.9792,2.9942,1.7851,1.7287,1.6799,1.6699,1.6674,1.6762,0.0,0.0,0.0,1.8606,1.951,2.0251,2.0352,2.1154,2.178,2.168,2.2593,2.3265,2.3166,2.3874,2.4848,2.6023,2.5419,2.5436,2.6793,2.6235,2.6411,2.7866,2.8907,2.9573,2.9792,2.9792,2.9792,2.9792,2.9792,2.9792,2.9792,2.9792,2.9792,2.9792,2.9792,2.9792,2.9792,2.9792,2.9792,2.9792,2.9792,2.9792,2.9792,2.9792,2.9792,2.9792,2.9792,2.9792,2.9792,2.9792,2.9792,2.9792,2.9792,2.9792,2.9792,2.9792,2.9792,2.9792,2.9792,2.9792,2.9792,2.9792,2.9867,2.9942,2.9942,3.0357,3.0738,3.0738,3.116,3.1549,3.1549,3.1658,3.1851,3.229,3.2378,3.224,3.1788,3.1733,3.1645,3.1369,3.1331,3.1432,3.1695,3.1733,3.1733,3.1733,3.0954,3.0344,3.0118,3.0105,3.0018,2.9804,2.9792,2.9792,2.9792,2.9792,2.9792,2.9792,2.9792,2.9792,2.9792,2.9792,2.9792,2.9792,2.9792,2.9792,1.8958,1.8418,1.789,1.7412,1.7299,1.7173,1.6712,0.0,1.7512,1.7562,0.0,1.8631,1.912,0.0,0.0,1.9447,2.0185,2.0632,2.0175,1.9711,2.0709,2.4156,2.4149,2.4137,2.4789,2.5421,2.6294,2.7476,2.8024,2.8727,2.9753,2.9792,2.9792,2.9792,2.9792,2.9792,2.9792,2.9792,2.9792,2.9792,2.9792,2.9792,2.9792,2.9792,2.9792,2.9792,2.9792,2.9792,2.9792,2.9792,2.9792,2.9792,2.9792,2.9792,2.9792,2.9792,2.9792,2.9792,2.9792,2.9792,2.9792,2.9792,2.9792,2.9792,2.9792,2.9792,2.9792,2.9792,3.0143,3.05,3.05,3.0909,3.1298,3.1298,3.1725,3.2106,3.2106,3.2516,3.2927,3.2989,3.3002,3.2977,3.2927,3.2901,3.2889,3.2851,3.2851,3.2864,3.2901,3.2901,3.2901,3.2901,3.2801,3.2324,3.1298,3.1231,3.0796,2.9854,2.9792,2.9792,2.9792,2.9792,2.9792,2.9792,2.9792,2.9792,2.9792,2.9792,2.9792,2.9792,2.9792,2.9792,2.0602,1.9798,1.9007,1.8456,1.833,1.818,1.7626,1.7438,1.741,1.741,0.0,0.0,0.0,0.0,0.0,0.0,1.8838,1.899,1.8761,1.8247,1.8879,2.1553,2.1192,2.1131,2.2131,2.3947,2.5312,2.6008,2.6492,2.7498,2.9194,2.8973,2.9126,2.9792,2.9792,2.9792,2.9792,2.9792,2.9792,2.9792,2.9792,2.9792,2.9792,2.9792,2.9792,2.9792,2.9792,2.9792,2.9792,2.9792,2.9792,2.9792,2.9792,2.9792,2.9792,2.9792,2.9792,2.9792,2.9792,2.9792,2.9792,2.9792,2.9792,2.9854,3.0168,3.0269,3.0331,3.0633,3.0884,3.106,3.106,3.1461,3.1863,3.1863,3.2303,3.2717,3.2717,3.2927,3.3102,3.3102,3.3102,3.3102,3.3102,3.3102,3.3102,3.3102,3.3102,3.3102,3.3102,3.5244,3.6763,3.6763,3.6763,3.5571,3.2642,3.2386,3.3248,3.5246,3.2894,3.094,2.985,2.9792,2.9792,2.9792,3.0865,3.0884,2.9792,2.9792,2.9792,2.9792,2.9792,2.9792,2.2284,2.1343,2.0363,1.9823,1.9447,1.907,1.8543,1.8003,1.7575,1.7424,1.741,0.0,0.0,0.0,1.7819,1.7346,0.0,1.7406,1.6925,1.6643,1.7205,1.914,1.8805,1.8859,1.995,2.2092,2.3656,2.4202,2.5074,2.6261,2.7796,2.8167,2.8587,2.9142,2.9588,2.9792,2.9792,2.9792,2.9792,2.9792,2.9792,2.9792,2.9792,2.9792,2.9792,2.9792,2.9792,2.9792,2.9792,2.9792,2.9792,2.9792,2.9792,2.9792,2.9792,2.9792,2.9792,2.9792,2.9792,2.9892,3.0018,3.0018,3.0118,3.0306,3.0708,3.0834,3.0909,3.1286,3.152,3.1612,3.1612,3.2026,3.2453,3.2453,3.2767,3.3102,3.3102,3.3102,3.3197,3.3471,3.3292,3.327,3.3835,3.3713,3.3441,3.3133,3.3102,3.3102,3.3102,3.6783,3.9406,3.9406,3.9406,3.8163,3.5081,3.4828,3.6134,3.921,3.6298,3.3853,3.2499,3.1737,3.0872,2.9811,3.2169,3.2209,2.9792,3.0853,3.0816,2.9792,2.9792,2.9792,2.3916,2.3088,2.2096,2.1543,2.0589,1.9622,1.9096,1.8568,1.8028,1.7511,1.741,1.7223,1.6636,1.7024,1.6871,1.5186,1.5671,0.0,0.0,1.4002,1.5027,1.7225,1.7803,1.8186,0.0,1.9909,2.1166,0.0,2.3988,2.5105,2.531,2.7576,2.8472,2.7591,2.9015,2.9792,2.9792,2.9792,2.9792,2.9792,2.9792,2.9792,2.9792,2.9792,2.9792,2.9792,2.9792,2.9792,2.9792,2.9792,2.9792,2.9792,2.9792,2.9792,2.9792,2.9792,2.9792,2.9792,2.9792,3.0143,3.0563,3.0563,3.0934,3.1356,3.1381,3.1361,3.1373,3.1406,3.1775,3.2169,3.2169,3.2616,3.3077,3.3077,3.309,3.3102,3.3102,3.3102,3.342,3.4449,3.3818,3.3742,3.5754,3.5298,3.4296,3.3261,3.3102,3.3102,3.3102,3.6783,3.9406,3.9406,3.9406,3.9337,3.921,3.9195,3.9265,3.9388,3.9262,3.9149,3.9094,3.6667,3.3575,2.9869,3.3489,3.3558,2.9811,3.3506,3.3419,2.9792,2.9792,2.9792,2.564,2.482,2.3825,2.3288,2.2558,2.1841,2.1316,2.0187,1.9208,1.902,1.8417,1.7752,1.72,1.7261,1.6957,0.0,0.0,0.0,0.0,1.3716,1.4077,1.5102,1.6113,1.6894,0.0,0.0,0.0,0.0,2.1603,0.0,2.5085,2.5291,2.5955,2.7318,2.7961,2.8414,2.8676,2.9424,2.9792,2.9792,2.9792,2.9792,2.9792,2.9792,2.9792,2.9792,2.9792,2.9792,2.9792,2.9792,2.9792,2.9849,3.0193,3.0331,3.0294,2.993,3.0018,3.0382,3.0733,3.0972,3.1135,3.1135,3.1248,3.1482,3.1825,3.1938,3.2014,3.2424,3.2663,3.2801,3.2801,3.2952,3.3102,3.3102,3.3102,3.3102,3.3102,3.3102,3.342,3.4491,3.4408,3.4602,3.5974,3.6501,3.6861,3.7223,3.6047,3.5648,3.7074,3.8527,3.9406,3.9406,3.9406,3.9406,3.9406,3.9406,3.9406,3.9406,3.9406,3.9406,3.9406,3.8554,3.7485,3.618,3.4673,3.3799,3.3575,3.4868,3.4837,3.3575,3.3575,3.2218,2.706,2.6256,2.5322,2.4987,2.4155,2.3336,2.2972,2.1769,2.0626,2.0439,1.9535,1.8656,1.8316,1.7728,1.6972,0.0,0.0,0.0,0.0,1.3367,1.3376,1.3639,1.4838,0.0,0.0,0.0,0.0,0.0,0.0,0.0,0.0,2.3618,2.4449,2.5903,2.6561,2.7286,2.8084,2.8838,2.9404,2.9792,2.9792,2.9792,2.9792,2.9792,2.9792,2.9792,2.9792,2.9792,2.9804,3.0005,3.008,3.0143,3.0683,3.0884,3.0846,3.0495,3.0583,3.0934,3.1273,3.1524,3.1687,3.1687,3.1825,3.2072,3.2416,3.2516,3.2604,3.2989,3.3102,3.3102,3.3102,3.3102,3.3102,3.3102,3.3102,3.3102,3.3102,3.3102,3.342,3.4491,3.4705,3.502,3.6033,3.7098,3.7994,3.8564,3.789,3.7852,3.9213,3.9406,3.9406,3.9406,3.9406,3.9406,3.9406,3.9406,3.9406,3.9406,3.9406,3.9406,3.9406,3.9406,3.9406,3.9406,3.6724,3.5859,3.6896,3.6896,3.64,3.5504,3.5504,3.4418]}]]